Time,TemperatureF,DewpointF,PressureIn,WindDirection,WindDirectionDegrees,WindSpeedMPH,WindSpeedGustMPH,Humidity,HourlyPrecipIn,Conditions,Clouds,dailyrainin,SoftwareType,DateUTC
2013-02-21 00:00:00,24.3,19.3,29.00,East,96,9.6,13.4,81,0.00,,---,0.00,VWS V14.01,2013-02-21 05:00:00,
2013-02-21 00:01:00,24.3,19.3,29.00,SE,137,15.9,16.8,81,0.00,,---,0.00,VWS V14.01,2013-02-21 05:01:00,
2013-02-21 00:02:00,24.3,19.3,29.00,ESE,116,9.6,15.9,81,0.00,,---,0.00,VWS V14.01,2013-02-21 05:02:00,
2013-02-21 00:03:00,24.3,19.6,29.00,SE,140,11.2,12.1,82,0.00,,---,0.00,VWS V14.01,2013-02-21 05:03:00,
2013-02-21 00:04:00,24.3,19.6,29.00,ENE,75,9.2,13.0,82,0.00,,---,0.00,VWS V14.01,2013-02-21 05:04:00,
2013-02-21 00:05:00,24.3,19.6,29.00,SE,129,14.8,14.8,82,0.00,,---,0.00,VWS V14.01,2013-02-21 05:05:00,
2013-02-21 00:06:00,24.3,19.6,29.00,ENE,69,11.6,15.2,82,0.00,,---,0.00,VWS V14.01,2013-02-21 05:06:00,
2013-02-21 00:07:00,24.3,19.6,29.00,ESE,107,9.2,13.4,82,0.00,,---,0.00,VWS V14.01,2013-02-21 05:07:00,
2013-02-21 00:08:00,24.3,19.6,29.00,ESE,104,13.9,15.9,82,0.00,,---,0.00,VWS V14.01,2013-02-21 05:08:00,
2013-02-21 00:09:00,24.3,19.6,29.00,ENE,66,8.3,17.2,82,0.00,,---,0.00,VWS V14.01,2013-02-21 05:09:00,
2013-02-21 00:10:00,24.4,19.7,29.00,SE,135,9.2,13.4,82,0.00,,---,0.00,VWS V14.01,2013-02-21 05:10:00,
2013-02-21 00:11:00,24.4,19.7,29.00,East,86,6.7,11.0,82,0.00,,---,0.00,VWS V14.01,2013-02-21 05:11:00,
2013-02-21 00:12:00,24.4,19.7,29.00,ESE,105,10.5,14.3,82,0.00,,---,0.00,VWS V14.01,2013-02-21 05:12:00,
2013-02-21 00:13:00,24.4,19.7,29.00,NE,47,10.1,11.0,82,0.00,,---,0.00,VWS V14.01,2013-02-21 05:13:00,
2013-02-21 00:14:00,24.4,19.7,29.00,ENE,65,13.9,14.8,82,0.00,,---,0.00,VWS V14.01,2013-02-21 05:14:00,
2013-02-21 00:15:00,24.4,19.7,29.00,ESE,116,12.1,13.9,82,0.00,,---,0.00,VWS V14.01,2013-02-21 05:15:00,
2013-02-21 00:16:00,24.4,19.7,29.00,East,89,8.7,13.9,82,0.00,,---,0.00,VWS V14.01,2013-02-21 05:16:00,
2013-02-21 00:17:00,24.4,19.7,29.00,ESE,108,11.0,14.3,82,0.00,,---,0.00,VWS V14.01,2013-02-21 05:17:00,
2013-02-21 00:18:00,24.6,19.6,29.00,ESE,106,10.5,12.5,81,0.00,,---,0.00,VWS V14.01,2013-02-21 05:18:00,
2013-02-21 00:19:00,24.6,19.6,29.00,East,80,9.6,10.5,81,0.00,,---,0.00,VWS V14.01,2013-02-21 05:19:00,
2013-02-21 00:20:00,24.6,19.6,29.00,East,93,7.4,14.3,81,0.00,,---,0.00,VWS V14.01,2013-02-21 05:20:00,
2013-02-21 00:21:00,24.6,19.6,29.00,ESE,107,11.0,11.2,81,0.00,,---,0.00,VWS V14.01,2013-02-21 05:21:00,
2013-02-21 00:22:00,24.6,19.6,29.00,East,94,6.3,15.2,81,0.00,,---,0.00,VWS V14.01,2013-02-21 05:22:00,
2013-02-21 00:23:00,24.6,19.6,29.00,East,79,8.7,9.6,81,0.00,,---,0.00,VWS V14.01,2013-02-21 05:23:00,
2013-02-21 00:24:00,24.6,19.6,29.00,ESE,112,15.9,15.9,81,0.00,,---,0.00,VWS V14.01,2013-02-21 05:24:00,
2013-02-21 00:25:00,24.8,19.8,29.00,ESE,116,7.8,15.9,81,0.00,,---,0.00,VWS V14.01,2013-02-21 05:25:00,
2013-02-21 00:26:00,24.8,19.8,29.00,ESE,116,8.7,12.1,81,0.00,,---,0.00,VWS V14.01,2013-02-21 05:26:00,
2013-02-21 00:27:00,24.8,19.8,29.00,ESE,108,8.7,11.6,81,0.00,,---,0.00,VWS V14.01,2013-02-21 05:27:00,
2013-02-21 00:28:00,24.8,19.8,29.00,East,86,5.4,9.6,81,0.00,,---,0.00,VWS V14.01,2013-02-21 05:28:00,
2013-02-21 00:29:00,25.0,20.0,29.00,SE,129,7.8,11.0,81,0.00,,---,0.00,VWS V14.01,2013-02-21 05:29:00,
2013-02-21 00:30:00,25.0,20.0,29.00,East,95,18.1,18.1,81,0.00,,---,0.00,VWS V14.01,2013-02-21 05:30:00,
2013-02-21 00:31:00,25.0,19.7,29.00,ESE,111,12.5,18.1,80,0.00,,---,0.00,VWS V14.01,2013-02-21 05:31:00,
2013-02-21 00:32:00,25.0,19.7,29.00,SE,124,6.3,13.9,80,0.00,,---,0.00,VWS V14.01,2013-02-21 05:32:00,
2013-02-21 00:33:00,25.0,19.7,29.00,East,89,13.9,13.9,80,0.00,,---,0.00,VWS V14.01,2013-02-21 05:33:00,
2013-02-21 00:34:00,25.0,19.7,29.00,East,91,11.0,13.9,80,0.00,,---,0.00,VWS V14.01,2013-02-21 05:34:00,
2013-02-21 00:35:00,25.0,19.7,29.00,ESE,107,8.7,11.0,80,0.00,,---,0.00,VWS V14.01,2013-02-21 05:35:00,
2013-02-21 00:36:00,25.0,19.7,29.00,East,88,7.4,11.0,80,0.00,,---,0.00,VWS V14.01,2013-02-21 05:36:00,
2013-02-21 00:37:00,25.0,19.7,29.00,SE,137,8.3,12.5,80,0.00,,---,0.00,VWS V14.01,2013-02-21 05:37:00,
2013-02-21 00:38:00,25.0,19.7,29.00,East,80,8.3,9.6,80,0.00,,---,0.00,VWS V14.01,2013-02-21 05:38:00,
2013-02-21 00:39:00,25.0,19.7,29.00,East,93,11.0,12.5,80,0.00,,---,0.00,VWS V14.01,2013-02-21 05:39:00,
2013-02-21 00:40:00,25.0,19.4,29.00,ENE,74,8.7,12.1,79,0.00,,---,0.00,VWS V14.01,2013-02-21 05:40:00,
2013-02-21 00:41:00,25.0,19.4,29.00,NE,55,8.7,13.9,79,0.00,,---,0.00,VWS V14.01,2013-02-21 05:41:00,
2013-02-21 00:42:00,25.0,19.4,29.00,East,86,7.8,11.2,79,0.00,,---,0.00,VWS V14.01,2013-02-21 05:42:00,
2013-02-21 00:43:00,25.0,19.4,29.00,ENE,76,6.9,13.4,79,0.00,,---,0.00,VWS V14.01,2013-02-21 05:43:00,
2013-02-21 00:44:00,25.0,19.4,29.00,East,95,6.3,14.8,79,0.00,,---,0.00,VWS V14.01,2013-02-21 05:44:00,
2013-02-21 00:45:00,25.0,19.4,29.00,East,101,9.6,13.4,79,0.00,,---,0.00,VWS V14.01,2013-02-21 05:45:00,
2013-02-21 00:46:00,25.0,19.4,29.00,ESE,113,8.7,10.5,79,0.00,,---,0.00,VWS V14.01,2013-02-21 05:46:00,
2013-02-21 00:47:00,25.0,19.4,29.00,ESE,109,10.1,11.2,79,0.00,,---,0.00,VWS V14.01,2013-02-21 05:47:00,
2013-02-21 00:48:00,25.0,19.4,29.00,ESE,107,6.7,10.1,79,0.00,,---,0.00,VWS V14.01,2013-02-21 05:48:00,
2013-02-21 00:49:00,25.0,19.4,29.00,East,93,6.7,6.9,79,0.00,,---,0.00,VWS V14.01,2013-02-21 05:49:00,
2013-02-21 00:50:00,25.0,19.4,29.00,East,85,6.9,10.5,79,0.00,,---,0.00,VWS V14.01,2013-02-21 05:50:00,
2013-02-21 00:51:00,25.0,19.4,29.00,ENE,70,6.9,11.6,79,0.00,,---,0.00,VWS V14.01,2013-02-21 05:51:00,
2013-02-21 00:52:00,25.2,19.6,29.00,ENE,63,7.8,10.1,79,0.00,,---,0.00,VWS V14.01,2013-02-21 05:52:00,
2013-02-21 00:53:00,25.2,19.6,29.00,East,98,6.3,10.5,79,0.00,,---,0.00,VWS V14.01,2013-02-21 05:53:00,
2013-02-21 00:54:00,25.2,19.6,29.00,SE,129,6.9,8.7,79,0.00,,---,0.00,VWS V14.01,2013-02-21 05:54:00,
2013-02-21 00:55:00,25.2,19.6,29.00,East,86,5.8,7.8,79,0.00,,---,0.00,VWS V14.01,2013-02-21 05:55:00,
2013-02-21 00:56:00,25.2,19.6,29.00,ENE,76,5.4,6.7,79,0.00,,---,0.00,VWS V14.01,2013-02-21 05:56:00,
2013-02-21 00:57:00,25.2,19.6,29.00,ENE,77,6.9,9.2,79,0.00,,---,0.00,VWS V14.01,2013-02-21 05:57:00,
2013-02-21 00:58:00,25.2,19.6,29.00,SE,129,9.6,10.5,79,0.00,,---,0.00,VWS V14.01,2013-02-21 05:58:00,
2013-02-21 00:59:00,25.0,19.4,29.00,ENE,74,8.3,10.5,79,0.00,,---,0.00,VWS V14.01,2013-02-21 05:59:00,
2013-02-21 01:00:00,25.0,19.4,29.00,SE,137,8.3,9.6,79,0.00,,---,0.00,VWS V14.01,2013-02-21 06:00:00,
2013-02-21 01:01:00,25.0,19.4,29.00,ENE,71,7.8,10.5,79,0.00,,---,0.00,VWS V14.01,2013-02-21 06:01:00,
2013-02-21 01:02:00,25.0,19.4,29.00,ESE,111,7.8,13.4,79,0.00,,---,0.00,VWS V14.01,2013-02-21 06:02:00,
2013-02-21 01:03:00,25.0,19.4,29.00,ESE,106,6.7,10.1,79,0.00,,---,0.00,VWS V14.01,2013-02-21 06:03:00,
2013-02-21 01:04:00,25.0,19.4,29.00,East,85,8.3,9.2,79,0.00,,---,0.00,VWS V14.01,2013-02-21 06:04:00,
2013-02-21 01:05:00,25.0,19.4,29.00,East,83,6.9,11.0,79,0.00,,---,0.00,VWS V14.01,2013-02-21 06:05:00,
2013-02-21 01:06:00,25.0,19.1,29.00,East,89,9.2,12.5,78,0.00,,---,0.00,VWS V14.01,2013-02-21 06:06:00,
2013-02-21 01:07:00,25.0,19.1,29.00,East,97,9.6,11.2,78,0.00,,---,0.00,VWS V14.01,2013-02-21 06:07:00,
2013-02-21 01:08:00,25.0,19.1,29.00,ESE,119,7.8,9.6,78,0.00,,---,0.00,VWS V14.01,2013-02-21 06:08:00,
2013-02-21 01:09:00,25.0,19.1,29.00,East,98,8.7,10.1,78,0.00,,---,0.00,VWS V14.01,2013-02-21 06:09:00,
2013-02-21 01:10:00,25.0,19.1,29.00,ESE,105,5.8,10.1,78,0.00,,---,0.00,VWS V14.01,2013-02-21 06:10:00,
2013-02-21 01:11:00,25.0,19.1,29.00,ESE,106,8.3,10.1,78,0.00,,---,0.00,VWS V14.01,2013-02-21 06:11:00,
2013-02-21 01:12:00,25.0,19.1,29.00,ESE,123,7.4,10.5,78,0.00,,---,0.00,VWS V14.01,2013-02-21 06:12:00,
2013-02-21 01:13:00,25.0,19.1,29.00,ESE,104,11.2,12.5,78,0.00,,---,0.00,VWS V14.01,2013-02-21 06:13:00,
2013-02-21 01:14:00,25.0,19.1,29.00,East,80,5.4,11.6,78,0.00,,---,0.00,VWS V14.01,2013-02-21 06:14:00,
2013-02-21 01:15:00,25.0,19.1,29.00,ESE,112,10.1,10.1,78,0.00,,---,0.00,VWS V14.01,2013-02-21 06:15:00,
2013-02-21 01:16:00,25.0,19.4,29.00,East,95,9.6,14.8,79,0.00,,---,0.00,VWS V14.01,2013-02-21 06:16:00,
2013-02-21 01:17:00,25.0,19.4,29.00,East,96,6.3,11.2,79,0.00,,---,0.00,VWS V14.01,2013-02-21 06:17:00,
2013-02-21 01:18:00,25.0,19.4,29.00,East,93,12.1,12.1,79,0.00,,---,0.00,VWS V14.01,2013-02-21 06:18:00,
2013-02-21 01:19:00,24.8,19.2,29.00,East,100,9.2,14.3,79,0.00,,---,0.00,VWS V14.01,2013-02-21 06:19:00,
2013-02-21 01:20:00,24.8,19.2,29.00,East,101,8.3,11.6,79,0.00,,---,0.00,VWS V14.01,2013-02-21 06:20:00,
2013-02-21 01:21:00,24.8,19.2,29.00,ESE,114,6.3,8.3,79,0.00,,---,0.00,VWS V14.01,2013-02-21 06:21:00,
2013-02-21 01:22:00,24.8,19.2,29.00,East,88,8.7,14.3,79,0.00,,---,0.00,VWS V14.01,2013-02-21 06:22:00,
2013-02-21 01:23:00,24.8,19.2,29.00,ESE,114,10.1,13.0,79,0.00,,---,0.00,VWS V14.01,2013-02-21 06:23:00,
2013-02-21 01:24:00,24.8,19.2,29.00,SE,127,7.8,11.0,79,0.00,,---,0.00,VWS V14.01,2013-02-21 06:24:00,
2013-02-21 01:25:00,24.8,19.2,29.00,ESE,109,7.4,13.9,79,0.00,,---,0.00,VWS V14.01,2013-02-21 06:25:00,
2013-02-21 01:26:00,24.8,19.2,29.00,SE,135,11.0,11.0,79,0.00,,---,0.00,VWS V14.01,2013-02-21 06:26:00,
2013-02-21 01:27:00,24.8,19.2,29.00,East,93,10.1,12.1,79,0.00,,---,0.00,VWS V14.01,2013-02-21 06:27:00,
2013-02-21 01:28:00,24.8,19.2,29.00,ESE,118,6.9,10.1,79,0.00,,---,0.00,VWS V14.01,2013-02-21 06:28:00,
2013-02-21 01:29:00,24.8,19.2,29.00,ESE,123,6.9,9.2,79,0.00,,---,0.00,VWS V14.01,2013-02-21 06:29:00,
2013-02-21 01:30:00,24.8,19.2,29.00,East,86,8.7,11.2,79,0.00,,---,0.00,VWS V14.01,2013-02-21 06:30:00,
2013-02-21 01:31:00,24.8,19.2,29.00,SE,125,9.6,11.2,79,0.00,,---,0.00,VWS V14.01,2013-02-21 06:31:00,
2013-02-21 01:32:00,24.6,19.3,29.00,ESE,121,11.2,11.6,80,0.00,,---,0.00,VWS V14.01,2013-02-21 06:32:00,
2013-02-21 01:33:00,24.6,19.3,29.00,East,83,7.4,13.9,80,0.00,,---,0.00,VWS V14.01,2013-02-21 06:33:00,
2013-02-21 01:34:00,24.6,19.3,29.00,East,101,8.7,11.2,80,0.00,,---,0.00,VWS V14.01,2013-02-21 06:34:00,
2013-02-21 01:35:00,24.6,19.3,29.00,East,92,6.7,11.0,80,0.00,,---,0.00,VWS V14.01,2013-02-21 06:35:00,
2013-02-21 01:36:00,24.6,19.3,29.00,East,87,8.3,10.1,80,0.00,,---,0.00,VWS V14.01,2013-02-21 06:36:00,
2013-02-21 01:37:00,24.6,19.3,29.00,East,100,11.0,13.9,80,0.00,,---,0.00,VWS V14.01,2013-02-21 06:37:00,
2013-02-21 01:38:00,24.6,19.6,29.00,ESE,105,8.3,11.0,81,0.00,,---,0.00,VWS V14.01,2013-02-21 06:38:00,
2013-02-21 01:39:00,24.6,19.6,29.00,ESE,104,7.4,11.0,81,0.00,,---,0.00,VWS V14.01,2013-02-21 06:39:00,
2013-02-21 01:40:00,24.6,19.6,29.00,ESE,108,8.7,8.7,81,0.00,,---,0.00,VWS V14.01,2013-02-21 06:40:00,
2013-02-21 01:41:00,24.6,19.6,29.00,ESE,112,11.2,13.4,81,0.00,,---,0.00,VWS V14.01,2013-02-21 06:41:00,
2013-02-21 01:42:00,24.6,19.6,29.00,SSE,152,7.4,12.1,81,0.00,,---,0.00,VWS V14.01,2013-02-21 06:42:00,
2013-02-21 01:43:00,24.6,19.9,29.00,ESE,103,8.7,8.7,82,0.00,,---,0.00,VWS V14.01,2013-02-21 06:43:00,
2013-02-21 01:44:00,24.6,19.9,29.00,East,98,11.2,13.4,82,0.00,,---,0.00,VWS V14.01,2013-02-21 06:44:00,
2013-02-21 01:45:00,24.6,19.9,29.00,ESE,106,8.7,11.2,82,0.00,,---,0.00,VWS V14.01,2013-02-21 06:45:00,
2013-02-21 01:46:00,24.6,20.2,29.00,ESE,116,10.5,10.5,83,0.00,,---,0.00,VWS V14.01,2013-02-21 06:46:00,
2013-02-21 01:47:00,24.6,20.2,29.00,East,79,7.8,11.2,83,0.00,,---,0.00,VWS V14.01,2013-02-21 06:47:00,
2013-02-21 01:48:00,24.6,20.2,29.00,East,95,5.4,11.0,83,0.00,,---,0.00,VWS V14.01,2013-02-21 06:48:00,
2013-02-21 01:49:00,24.6,20.5,29.00,ESE,108,7.8,12.1,84,0.00,,---,0.00,VWS V14.01,2013-02-21 06:49:00,
2013-02-21 01:50:00,24.6,20.5,29.00,ESE,103,6.7,11.0,84,0.00,,---,0.00,VWS V14.01,2013-02-21 06:50:00,
2013-02-21 01:51:00,24.6,20.5,28.97,ESE,123,7.4,10.5,84,0.00,,---,0.00,VWS V14.01,2013-02-21 06:51:00,
2013-02-21 01:52:00,24.6,20.8,28.97,ESE,115,11.2,11.6,85,0.00,,---,0.00,VWS V14.01,2013-02-21 06:52:00,
2013-02-21 01:53:00,24.6,20.8,28.97,East,94,8.7,16.3,85,0.00,,---,0.00,VWS V14.01,2013-02-21 06:53:00,
2013-02-21 01:54:00,24.6,20.8,28.97,East,86,13.4,15.9,85,0.00,,---,0.00,VWS V14.01,2013-02-21 06:54:00,
2013-02-21 01:55:00,24.6,20.8,28.97,ESE,108,10.1,13.4,85,0.00,,---,0.00,VWS V14.01,2013-02-21 06:55:00,
2013-02-21 01:56:00,24.6,20.8,28.97,East,95,11.6,11.6,85,0.00,,---,0.00,VWS V14.01,2013-02-21 06:56:00,
2013-02-21 01:57:00,24.6,21.0,28.97,ESE,106,6.3,12.1,86,0.00,,---,0.00,VWS V14.01,2013-02-21 06:57:00,
2013-02-21 01:58:00,24.6,21.0,28.97,East,95,4.9,8.3,86,0.00,,---,0.00,VWS V14.01,2013-02-21 06:58:00,
2013-02-21 01:59:00,24.6,21.0,28.97,ESE,118,7.8,11.2,86,0.00,,---,0.00,VWS V14.01,2013-02-21 06:59:00,
2013-02-21 02:00:00,24.6,21.0,28.97,SE,127,6.7,12.1,86,0.00,,---,0.00,VWS V14.01,2013-02-21 07:00:00,
2013-02-21 02:01:00,24.6,21.0,28.97,SE,124,19.5,19.5,86,0.00,,---,0.00,VWS V14.01,2013-02-21 07:01:00,
2013-02-21 02:02:00,24.6,21.3,28.97,ESE,104,8.7,19.5,87,0.00,,---,0.00,VWS V14.01,2013-02-21 07:02:00,
2013-02-21 02:03:00,24.6,21.3,28.97,ESE,110,8.7,15.2,87,0.00,,---,0.00,VWS V14.01,2013-02-21 07:03:00,
2013-02-21 02:04:00,24.6,21.3,28.97,ESE,117,11.2,13.4,87,0.00,,---,0.00,VWS V14.01,2013-02-21 07:04:00,
2013-02-21 02:05:00,24.6,21.3,28.97,East,96,4.9,13.4,87,0.00,,---,0.00,VWS V14.01,2013-02-21 07:05:00,
2013-02-21 02:06:00,24.6,21.3,28.94,ESE,105,5.4,10.5,87,0.00,,---,0.00,VWS V14.01,2013-02-21 07:06:00,
2013-02-21 02:07:00,24.6,21.3,28.94,ESE,104,10.5,11.2,87,0.00,,---,0.00,VWS V14.01,2013-02-21 07:07:00,
2013-02-21 02:08:00,24.6,21.3,28.94,East,82,7.4,11.0,87,0.00,,---,0.00,VWS V14.01,2013-02-21 07:08:00,
2013-02-21 02:09:00,24.6,21.6,28.94,ESE,106,10.1,13.9,88,0.00,,---,0.00,VWS V14.01,2013-02-21 07:09:00,
2013-02-21 02:10:00,24.6,21.6,28.94,SE,124,15.2,15.2,88,0.00,,---,0.00,VWS V14.01,2013-02-21 07:10:00,
2013-02-21 02:11:00,24.6,21.6,28.94,SE,127,8.7,15.2,88,0.00,,---,0.00,VWS V14.01,2013-02-21 07:11:00,
2013-02-21 02:12:00,24.6,21.6,28.94,East,90,10.1,13.0,88,0.00,,---,0.00,VWS V14.01,2013-02-21 07:12:00,
2013-02-21 02:13:00,24.6,21.6,28.94,East,101,11.0,11.2,88,0.00,,---,0.00,VWS V14.01,2013-02-21 07:13:00,
2013-02-21 02:14:00,24.6,21.6,28.94,ESE,114,13.4,13.9,88,0.00,,---,0.00,VWS V14.01,2013-02-21 07:14:00,
2013-02-21 02:15:00,24.6,21.6,28.94,East,101,6.9,13.4,88,0.00,,---,0.00,VWS V14.01,2013-02-21 07:15:00,
2013-02-21 02:16:00,24.6,21.6,28.94,ESE,106,7.8,9.2,88,0.00,,---,0.00,VWS V14.01,2013-02-21 07:16:00,
2013-02-21 02:17:00,24.6,21.6,28.94,ESE,104,9.2,11.2,88,0.00,,---,0.00,VWS V14.01,2013-02-21 07:17:00,
2013-02-21 02:18:00,24.6,21.6,28.94,ESE,103,8.3,9.6,88,0.00,,---,0.00,VWS V14.01,2013-02-21 07:18:00,
2013-02-21 02:19:00,24.6,21.9,28.94,NE,52,8.3,10.5,89,0.00,,---,0.00,VWS V14.01,2013-02-21 07:19:00,
2013-02-21 02:20:00,24.6,21.9,28.94,ESE,120,11.0,13.9,89,0.00,,---,0.00,VWS V14.01,2013-02-21 07:20:00,
2013-02-21 02:21:00,24.6,21.9,28.94,ESE,114,9.2,14.8,89,0.00,,---,0.00,VWS V14.01,2013-02-21 07:21:00,
2013-02-21 02:22:00,24.6,21.9,28.94,ESE,112,15.4,15.4,89,0.00,,---,0.00,VWS V14.01,2013-02-21 07:22:00,
2013-02-21 02:23:00,24.6,21.9,28.94,ESE,113,6.9,15.4,89,0.00,,---,0.00,VWS V14.01,2013-02-21 07:23:00,
2013-02-21 02:24:00,24.6,21.9,28.94,SE,128,13.9,13.9,89,0.00,,---,0.00,VWS V14.01,2013-02-21 07:24:00,
2013-02-21 02:25:00,21.7,9.6,29.23,North,0,4.0,4.0,59,0.00,,---,0.00,VWS V14.01,2013-02-21 07:25:00,
2013-02-21 02:26:00,24.6,21.9,28.94,East,83,6.3,11.0,89,0.00,,---,0.00,VWS V14.01,2013-02-21 07:26:00,
2013-02-21 02:27:00,24.8,22.0,28.94,ESE,104,7.4,10.1,89,0.00,,---,0.00,VWS V14.01,2013-02-21 07:27:00,
2013-02-21 02:28:00,24.8,22.0,28.94,ENE,76,7.4,7.4,89,0.00,,---,0.00,VWS V14.01,2013-02-21 07:28:00,
2013-02-21 02:29:00,24.8,22.0,28.94,ESE,107,8.7,11.0,89,0.00,,---,0.00,VWS V14.01,2013-02-21 07:29:00,
2013-02-21 02:30:00,24.8,22.0,28.94,ESE,102,8.3,11.6,89,0.00,,---,0.00,VWS V14.01,2013-02-21 07:30:00,
2013-02-21 02:31:00,21.6,9.5,29.23,North,0,0.0,3.1,59,0.00,,---,0.00,VWS V14.01,2013-02-21 07:31:00,
2013-02-21 02:32:00,24.8,22.0,28.94,East,91,9.2,13.4,89,0.00,,---,0.00,VWS V14.01,2013-02-21 07:32:00,
2013-02-21 02:33:00,24.8,22.0,28.94,ESE,112,7.8,9.2,89,0.00,,---,0.00,VWS V14.01,2013-02-21 07:33:00,
2013-02-21 02:35:00,24.8,22.0,28.94,SE,124,4.0,12.1,89,0.00,,---,0.00,VWS V14.01,2013-02-21 07:35:00,
2013-02-21 02:36:00,24.8,22.0,28.94,ESE,120,10.1,11.0,89,0.00,,---,0.00,VWS V14.01,2013-02-21 07:36:00,
2013-02-21 02:37:00,24.8,22.0,28.94,East,99,7.4,10.1,89,0.00,,---,0.00,VWS V14.01,2013-02-21 07:37:00,
2013-02-21 02:38:00,24.8,22.0,28.94,ESE,112,9.2,14.3,89,0.00,,---,0.00,VWS V14.01,2013-02-21 07:38:00,
2013-02-21 02:39:00,24.8,22.0,28.94,ESE,106,7.4,11.0,89,0.00,,---,0.00,VWS V14.01,2013-02-21 07:39:00,
2013-02-21 02:40:00,24.8,22.0,28.94,East,95,8.7,12.5,89,0.00,,---,0.00,VWS V14.01,2013-02-21 07:40:00,
2013-02-21 02:41:00,24.8,22.0,28.94,ESE,106,12.5,12.5,89,0.00,,---,0.00,VWS V14.01,2013-02-21 07:41:00,
2013-02-21 02:42:00,21.6,9.5,29.23,North,3,2.7,3.1,59,0.00,,---,0.00,VWS V14.01,2013-02-21 07:42:00,
2013-02-21 02:44:00,24.8,22.0,28.94,SE,130,6.7,8.7,89,0.00,,---,0.00,VWS V14.01,2013-02-21 07:44:00,
2013-02-21 02:45:00,24.8,22.0,28.94,East,91,6.7,9.2,89,0.00,,---,0.00,VWS V14.01,2013-02-21 07:45:00,
2013-02-21 02:46:00,24.8,22.0,28.94,ESE,117,9.2,11.0,89,0.00,,---,0.00,VWS V14.01,2013-02-21 07:46:00,
2013-02-21 02:47:00,24.8,22.0,28.94,ESE,107,12.1,12.1,89,0.00,,---,0.00,VWS V14.01,2013-02-21 07:47:00,
2013-02-21 02:48:00,21.7,9.6,29.23,North,3,0.0,0.0,59,0.00,,---,0.00,VWS V14.01,2013-02-21 07:48:00,
2013-02-21 02:49:00,24.8,22.0,28.94,East,98,8.7,12.1,89,0.00,,---,0.00,VWS V14.01,2013-02-21 07:49:00,
2013-02-21 02:50:00,24.8,22.0,28.94,ENE,76,7.4,11.6,89,0.00,,---,0.00,VWS V14.01,2013-02-21 07:50:00,
2013-02-21 02:51:00,24.8,22.0,28.94,ESE,122,8.3,10.5,89,0.00,,---,0.00,VWS V14.01,2013-02-21 07:51:00,
2013-02-21 02:52:00,24.8,22.0,28.94,SE,124,10.1,12.5,89,0.00,,---,0.00,VWS V14.01,2013-02-21 07:52:00,
2013-02-21 02:53:00,21.7,9.2,29.23,North,4,0.0,4.5,58,0.00,,---,0.00,VWS V14.01,2013-02-21 07:53:00,
2013-02-21 02:54:00,24.8,22.0,28.94,ENE,72,5.8,13.4,89,0.00,,---,0.00,VWS V14.01,2013-02-21 07:54:00,
2013-02-21 02:56:00,24.8,22.0,28.94,East,89,6.9,13.9,89,0.00,,---,0.00,VWS V14.01,2013-02-21 07:56:00,
2013-02-21 02:57:00,24.8,22.0,28.94,SE,129,13.0,15.4,89,0.00,,---,0.00,VWS V14.01,2013-02-21 07:57:00,
2013-02-21 02:58:00,24.8,21.8,28.94,East,99,7.4,17.7,88,0.00,,---,0.00,VWS V14.01,2013-02-21 07:58:00,
2013-02-21 02:59:00,24.8,21.8,28.94,ESE,117,12.1,13.0,88,0.00,,---,0.00,VWS V14.01,2013-02-21 07:59:00,
2013-02-21 03:00:00,24.8,21.8,28.94,ESE,105,11.6,13.4,88,0.00,,---,0.00,VWS V14.01,2013-02-21 08:00:00,
2013-02-21 03:01:00,21.6,8.7,29.23,North,5,0.0,5.8,57,0.00,,---,0.00,VWS V14.01,2013-02-21 08:01:00,
2013-02-21 03:02:00,24.8,21.8,28.94,ENE,68,10.5,15.4,88,0.00,,---,0.00,VWS V14.01,2013-02-21 08:02:00,
2013-02-21 03:03:00,24.8,21.8,28.94,East,101,8.3,14.3,88,0.00,,---,0.00,VWS V14.01,2013-02-21 08:03:00,
2013-02-21 03:04:00,24.8,21.8,28.94,East,99,10.1,12.1,88,0.00,,---,0.00,VWS V14.01,2013-02-21 08:04:00,
2013-02-21 03:05:00,24.8,21.8,28.94,East,90,7.8,10.1,88,0.00,,---,0.00,VWS V14.01,2013-02-21 08:05:00,
2013-02-21 03:06:00,25.0,21.9,28.88,ESE,116,10.5,13.9,88,0.00,,---,0.00,VWS V14.01,2013-02-21 08:06:00,
2013-02-21 03:07:00,25.0,21.9,28.88,East,85,11.0,11.2,88,0.00,,---,0.00,VWS V14.01,2013-02-21 08:07:00,
2013-02-21 03:08:00,21.4,8.1,29.23,North,2,4.9,4.9,56,0.00,,---,0.00,VWS V14.01,2013-02-21 08:08:00,
2013-02-21 03:09:00,24.8,21.8,28.88,East,96,10.5,14.3,88,0.00,,---,0.00,VWS V14.01,2013-02-21 08:09:00,
2013-02-21 03:10:00,24.8,21.5,28.88,East,82,5.8,12.5,87,0.00,,---,0.00,VWS V14.01,2013-02-21 08:10:00,
2013-02-21 03:11:00,25.0,21.7,28.88,East,98,13.4,17.2,87,0.00,,---,0.00,VWS V14.01,2013-02-21 08:11:00,
2013-02-21 03:12:00,25.0,21.7,28.88,East,85,6.7,13.4,87,0.00,,---,0.00,VWS V14.01,2013-02-21 08:12:00,
2013-02-21 03:13:00,25.0,21.7,28.88,East,86,7.4,14.8,87,0.00,,---,0.00,VWS V14.01,2013-02-21 08:13:00,
2013-02-21 03:14:00,21.0,7.4,29.21,NNW,341,3.1,6.9,55,0.00,,---,0.00,VWS V14.01,2013-02-21 08:14:00,
2013-02-21 03:15:00,25.0,21.7,28.88,East,86,10.1,15.2,87,0.00,,---,0.00,VWS V14.01,2013-02-21 08:15:00,
2013-02-21 03:16:00,25.0,21.7,28.88,ESE,120,12.5,15.9,87,0.00,,---,0.00,VWS V14.01,2013-02-21 08:16:00,
2013-02-21 03:17:00,25.0,21.7,28.88,East,96,11.2,19.0,87,0.00,,---,0.00,VWS V14.01,2013-02-21 08:17:00,
2013-02-21 03:18:00,25.0,21.7,28.88,ESE,113,15.2,15.2,87,0.00,,---,0.00,VWS V14.01,2013-02-21 08:18:00,
2013-02-21 03:19:00,21.2,7.6,29.21,NNE,15,0.0,4.0,55,0.00,,---,0.00,VWS V14.01,2013-02-21 08:19:00,
2013-02-21 03:20:00,25.0,21.7,28.88,ESE,109,11.6,14.8,87,0.00,,---,0.00,VWS V14.01,2013-02-21 08:20:00,
2013-02-21 03:21:00,25.0,21.7,28.88,SE,126,12.5,15.9,87,0.00,,---,0.00,VWS V14.01,2013-02-21 08:21:00,
2013-02-21 03:22:00,25.0,21.7,28.88,ENE,78,11.6,13.4,87,0.00,,---,0.00,VWS V14.01,2013-02-21 08:22:00,
2013-02-21 03:23:00,25.0,21.7,28.88,East,98,11.6,13.4,87,0.00,,---,0.00,VWS V14.01,2013-02-21 08:23:00,
2013-02-21 03:24:00,21.4,8.1,29.21,NNE,15,3.1,4.9,56,0.00,,---,0.00,VWS V14.01,2013-02-21 08:24:00,
2013-02-21 03:25:00,25.0,21.7,28.88,ESE,113,11.6,13.4,87,0.00,,---,0.00,VWS V14.01,2013-02-21 08:25:00,
2013-02-21 03:26:00,25.0,21.7,28.88,ESE,106,9.2,11.6,87,0.00,,---,0.00,VWS V14.01,2013-02-21 08:26:00,
2013-02-21 03:27:00,25.0,21.7,28.88,ESE,118,15.2,15.2,87,0.00,,---,0.00,VWS V14.01,2013-02-21 08:27:00,
2013-02-21 03:28:00,25.0,21.7,28.88,SE,126,9.6,15.2,87,0.00,,---,0.00,VWS V14.01,2013-02-21 08:28:00,
2013-02-21 03:29:00,21.2,8.0,29.23,NNW,335,0.0,5.4,56,0.00,,---,0.00,VWS V14.01,2013-02-21 08:29:00,
2013-02-21 03:30:00,25.0,21.7,28.88,ESE,122,6.7,11.6,87,0.00,,---,0.00,VWS V14.01,2013-02-21 08:30:00,
2013-02-21 03:31:00,25.0,21.7,28.88,ESE,113,10.1,12.5,87,0.00,,---,0.00,VWS V14.01,2013-02-21 08:31:00,
2013-02-21 03:32:00,25.0,21.7,28.88,East,89,6.9,14.3,87,0.00,,---,0.00,VWS V14.01,2013-02-21 08:32:00,
2013-02-21 03:33:00,25.0,21.7,28.88,ESE,108,11.2,13.9,87,0.00,,---,0.00,VWS V14.01,2013-02-21 08:33:00,
2013-02-21 03:34:00,21.4,8.5,29.23,NNW,335,0.0,3.1,57,0.00,,---,0.00,VWS V14.01,2013-02-21 08:34:00,
2013-02-21 03:35:00,25.0,21.7,28.88,ESE,108,10.5,11.6,87,0.00,,---,0.00,VWS V14.01,2013-02-21 08:35:00,
2013-02-21 03:36:00,25.0,21.7,28.88,ESE,107,9.2,13.9,87,0.00,,---,0.00,VWS V14.01,2013-02-21 08:36:00,
2013-02-21 03:37:00,25.0,21.7,28.88,ENE,75,6.3,10.1,87,0.00,,---,0.00,VWS V14.01,2013-02-21 08:37:00,
2013-02-21 03:38:00,25.0,21.7,28.88,ESE,123,9.6,11.0,87,0.00,,---,0.00,VWS V14.01,2013-02-21 08:38:00,
2013-02-21 03:39:00,21.4,8.9,29.23,NNW,335,4.0,5.4,58,0.00,,---,0.00,VWS V14.01,2013-02-21 08:39:00,
2013-02-21 03:40:00,25.0,21.7,28.88,ESE,103,8.3,17.2,87,0.00,,---,0.00,VWS V14.01,2013-02-21 08:40:00,
2013-02-21 03:41:00,25.0,21.7,28.88,ESE,112,16.8,16.8,87,0.00,,---,0.00,VWS V14.01,2013-02-21 08:41:00,
2013-02-21 03:42:00,25.0,21.7,28.88,East,82,8.7,18.6,87,0.00,,---,0.00,VWS V14.01,2013-02-21 08:42:00,
2013-02-21 03:43:00,25.0,21.7,28.88,East,86,11.6,13.0,87,0.00,,---,0.00,VWS V14.01,2013-02-21 08:43:00,
2013-02-21 03:44:00,21.4,8.9,29.21,NNE,29,0.0,4.5,58,0.00,,---,0.00,VWS V14.01,2013-02-21 08:44:00,
2013-02-21 03:45:00,25.0,21.7,28.88,ESE,107,9.6,14.3,87,0.00,,---,0.00,VWS V14.01,2013-02-21 08:45:00,
2013-02-21 03:46:00,25.0,21.7,28.88,ESE,105,11.2,16.3,87,0.00,,---,0.00,VWS V14.01,2013-02-21 08:46:00,
2013-02-21 03:47:00,25.0,21.9,28.88,East,88,7.4,13.9,88,0.00,,---,0.00,VWS V14.01,2013-02-21 08:47:00,
2013-02-21 03:48:00,25.0,21.9,28.88,ESE,114,14.3,14.3,88,0.00,,---,0.00,VWS V14.01,2013-02-21 08:48:00,
2013-02-21 03:49:00,21.4,8.9,29.21,North,356,0.0,3.1,58,0.00,,---,0.00,VWS V14.01,2013-02-21 08:49:00,
2013-02-21 03:50:00,25.0,21.9,28.88,ESE,109,9.2,12.5,88,0.00,,---,0.00,VWS V14.01,2013-02-21 08:50:00,
2013-02-21 03:51:00,25.0,21.9,28.85,East,92,8.3,13.0,88,0.00,,---,0.00,VWS V14.01,2013-02-21 08:51:00,
2013-02-21 03:52:00,25.0,21.9,28.85,East,86,12.1,15.4,88,0.00,,---,0.00,VWS V14.01,2013-02-21 08:52:00,
2013-02-21 03:53:00,25.0,21.9,28.85,SE,131,8.3,13.9,88,0.00,,---,0.00,VWS V14.01,2013-02-21 08:53:00,
2013-02-21 03:54:00,21.4,9.3,29.21,North,356,0.0,0.0,59,0.00,,---,0.00,VWS V14.01,2013-02-21 08:54:00,
2013-02-21 03:55:00,25.0,21.9,28.85,SE,125,11.0,15.9,88,0.00,,---,0.00,VWS V14.01,2013-02-21 08:55:00,
2013-02-21 03:56:00,25.0,21.9,28.85,East,82,7.4,15.4,88,0.00,,---,0.00,VWS V14.01,2013-02-21 08:56:00,
2013-02-21 03:57:00,25.0,21.9,28.85,SE,128,6.9,13.0,88,0.00,,---,0.00,VWS V14.01,2013-02-21 08:57:00,
2013-02-21 03:58:00,25.0,21.9,28.85,ESE,102,7.4,10.5,88,0.00,,---,0.00,VWS V14.01,2013-02-21 08:58:00,
2013-02-21 03:59:00,21.4,9.3,29.21,North,356,0.0,0.0,59,0.00,,---,0.00,VWS V14.01,2013-02-21 08:59:00,
2013-02-21 04:00:00,25.2,22.1,28.85,ENE,73,4.9,10.1,88,0.00,,---,0.00,VWS V14.01,2013-02-21 09:00:00,
2013-02-21 04:01:00,25.2,22.1,28.85,East,90,12.1,13.4,88,0.00,,---,0.00,VWS V14.01,2013-02-21 09:01:00,
2013-02-21 04:02:00,25.2,22.1,28.85,ESE,104,9.2,12.1,88,0.00,,---,0.00,VWS V14.01,2013-02-21 09:02:00,
2013-02-21 04:03:00,25.2,22.1,28.85,ESE,109,9.6,11.0,88,0.00,,---,0.00,VWS V14.01,2013-02-21 09:03:00,
2013-02-21 04:04:00,21.6,9.8,29.21,North,356,3.1,3.1,60,0.00,,---,0.00,VWS V14.01,2013-02-21 09:04:00,
2013-02-21 04:05:00,25.2,21.8,28.85,ESE,117,7.4,12.5,87,0.00,,---,0.00,VWS V14.01,2013-02-21 09:05:00,
2013-02-21 04:06:00,25.2,21.8,28.88,ESE,116,7.8,12.1,87,0.00,,---,0.00,VWS V14.01,2013-02-21 09:06:00,
2013-02-21 04:07:00,25.2,21.8,28.88,ESE,105,8.7,11.0,87,0.00,,---,0.00,VWS V14.01,2013-02-21 09:07:00,
2013-02-21 04:08:00,25.2,21.8,28.88,East,92,11.0,11.0,87,0.00,,---,0.00,VWS V14.01,2013-02-21 09:08:00,
2013-02-21 04:09:00,21.6,9.8,29.21,North,2,0.0,5.4,60,0.00,,---,0.00,VWS V14.01,2013-02-21 09:09:00,
2013-02-21 04:10:00,25.2,21.8,28.88,ESE,118,8.7,12.5,87,0.00,,---,0.00,VWS V14.01,2013-02-21 09:10:00,
2013-02-21 04:11:00,25.2,21.8,28.88,ESE,103,8.3,10.5,87,0.00,,---,0.00,VWS V14.01,2013-02-21 09:11:00,
2013-02-21 04:12:00,25.3,22.0,28.88,East,99,6.3,9.2,87,0.00,,---,0.00,VWS V14.01,2013-02-21 09:12:00,
2013-02-21 04:13:00,25.3,22.0,28.88,ENE,78,8.3,11.0,87,0.00,,---,0.00,VWS V14.01,2013-02-21 09:13:00,
2013-02-21 04:14:00,21.7,10.0,29.21,North,2,0.0,0.0,60,0.00,,---,0.00,VWS V14.01,2013-02-21 09:14:00,
2013-02-21 04:15:00,25.3,22.0,28.88,East,97,4.0,8.7,87,0.00,,---,0.00,VWS V14.01,2013-02-21 09:15:00,
2013-02-21 04:16:00,25.3,22.0,28.88,ESE,120,10.5,10.5,87,0.00,,---,0.00,VWS V14.01,2013-02-21 09:16:00,
2013-02-21 04:17:00,25.3,22.0,28.88,East,96,8.7,12.5,87,0.00,,---,0.00,VWS V14.01,2013-02-21 09:17:00,
2013-02-21 04:18:00,25.3,22.0,28.88,ENE,74,9.2,9.2,87,0.00,,---,0.00,VWS V14.01,2013-02-21 09:18:00,
2013-02-21 04:19:00,21.6,10.2,29.21,North,2,3.6,4.0,61,0.00,,---,0.00,VWS V14.01,2013-02-21 09:19:00,
2013-02-21 04:20:00,25.3,22.0,28.88,ESE,113,6.9,11.0,87,0.00,,---,0.00,VWS V14.01,2013-02-21 09:20:00,
2013-02-21 04:21:00,25.3,22.0,28.85,ESE,102,10.1,11.6,87,0.00,,---,0.00,VWS V14.01,2013-02-21 09:21:00,
2013-02-21 04:22:00,25.3,22.0,28.85,East,92,9.6,13.0,87,0.00,,---,0.00,VWS V14.01,2013-02-21 09:22:00,
2013-02-21 04:23:00,25.3,22.0,28.85,ENE,76,5.8,12.1,87,0.00,,---,0.00,VWS V14.01,2013-02-21 09:23:00,
2013-02-21 04:24:00,21.6,10.2,29.21,NNW,333,3.6,4.0,61,0.00,,---,0.00,VWS V14.01,2013-02-21 09:24:00,
2013-02-21 04:25:00,25.5,22.2,28.85,East,93,5.4,7.8,87,0.00,,---,0.00,VWS V14.01,2013-02-21 09:25:00,
2013-02-21 04:26:00,25.5,22.2,28.85,ESE,105,8.7,10.5,87,0.00,,---,0.00,VWS V14.01,2013-02-21 09:26:00,
2013-02-21 04:27:00,25.5,22.2,28.85,East,85,11.2,11.2,87,0.00,,---,0.00,VWS V14.01,2013-02-21 09:27:00,
2013-02-21 04:28:00,25.5,22.2,28.85,East,99,7.8,11.2,87,0.00,,---,0.00,VWS V14.01,2013-02-21 09:28:00,
2013-02-21 04:29:00,21.6,10.2,29.21,NNW,342,3.6,3.6,61,0.00,,---,0.00,VWS V14.01,2013-02-21 09:29:00,
2013-02-21 04:30:00,25.5,22.2,28.85,SE,132,11.0,12.5,87,0.00,,---,0.00,VWS V14.01,2013-02-21 09:30:00,
2013-02-21 04:31:00,25.5,22.2,28.85,East,94,6.7,11.2,87,0.00,,---,0.00,VWS V14.01,2013-02-21 09:31:00,
2013-02-21 04:32:00,25.5,21.9,28.85,ESE,121,12.5,12.5,86,0.00,,---,0.00,VWS V14.01,2013-02-21 09:32:00,
2013-02-21 04:33:00,25.5,21.9,28.85,East,93,11.6,12.5,86,0.00,,---,0.00,VWS V14.01,2013-02-21 09:33:00,
2013-02-21 04:34:00,21.6,10.2,29.21,NNW,328,4.0,4.0,61,0.00,,---,0.00,VWS V14.01,2013-02-21 09:34:00,
2013-02-21 04:35:00,25.7,22.1,28.85,ESE,122,8.7,11.0,86,0.00,,---,0.00,VWS V14.01,2013-02-21 09:35:00,
2013-02-21 04:36:00,25.7,22.1,28.85,SE,127,15.4,15.4,86,0.00,,---,0.00,VWS V14.01,2013-02-21 09:36:00,
2013-02-21 04:37:00,25.7,22.1,28.85,East,98,7.8,15.4,86,0.00,,---,0.00,VWS V14.01,2013-02-21 09:37:00,
2013-02-21 04:38:00,25.7,22.1,28.85,ESE,111,6.9,8.3,86,0.00,,---,0.00,VWS V14.01,2013-02-21 09:38:00,
2013-02-21 04:39:00,21.6,10.6,29.21,NNW,339,7.8,7.8,62,0.00,,---,0.00,VWS V14.01,2013-02-21 09:39:00,
2013-02-21 04:40:00,25.7,22.1,28.85,ESE,108,7.8,11.0,86,0.00,,---,0.00,VWS V14.01,2013-02-21 09:40:00,
2013-02-21 04:43:00,26.1,22.5,28.85,ESE,115,6.7,7.8,86,0.00,,---,0.00,VWS V14.01,2013-02-21 09:43:00,
2013-02-21 04:44:00,21.6,10.2,29.23,NNE,19,5.8,5.8,61,0.00,,---,0.00,VWS V14.01,2013-02-21 09:44:00,
2013-02-21 04:45:00,26.1,22.5,28.85,SE,138,13.9,13.9,86,0.00,,---,0.00,VWS V14.01,2013-02-21 09:45:00,
2013-02-21 04:46:00,26.1,22.5,28.85,East,80,9.6,13.9,86,0.00,,---,0.00,VWS V14.01,2013-02-21 09:46:00,
2013-02-21 04:47:00,26.1,22.5,28.85,East,79,7.8,11.2,86,0.00,,---,0.00,VWS V14.01,2013-02-21 09:47:00,
2013-02-21 04:48:00,26.1,22.5,28.85,East,91,6.9,10.1,86,0.00,,---,0.00,VWS V14.01,2013-02-21 09:48:00,
2013-02-21 04:49:00,21.6,10.2,29.23,NNE,25,0.0,3.6,61,0.00,,---,0.00,VWS V14.01,2013-02-21 09:49:00,
2013-02-21 04:50:00,26.1,22.5,28.85,East,93,6.7,10.5,86,0.00,,---,0.00,VWS V14.01,2013-02-21 09:50:00,
2013-02-21 04:51:00,26.1,22.5,28.85,ESE,119,6.7,7.8,86,0.00,,---,0.00,VWS V14.01,2013-02-21 09:51:00,
2013-02-21 04:52:00,26.1,22.5,28.85,East,98,6.9,9.2,86,0.00,,---,0.00,VWS V14.01,2013-02-21 09:52:00,
2013-02-21 04:53:00,26.2,22.6,28.85,ESE,108,11.6,11.6,86,0.00,,---,0.00,VWS V14.01,2013-02-21 09:53:00,
2013-02-21 04:54:00,21.6,9.8,29.23,NNE,16,0.0,4.9,60,0.00,,---,0.00,VWS V14.01,2013-02-21 09:54:00,
2013-02-21 04:55:00,26.1,22.5,28.85,ESE,116,6.9,10.5,86,0.00,,---,0.00,VWS V14.01,2013-02-21 09:55:00,
2013-02-21 04:56:00,26.1,22.5,28.85,ESE,108,8.3,9.2,86,0.00,,---,0.00,VWS V14.01,2013-02-21 09:56:00,
2013-02-21 04:57:00,26.1,22.5,28.85,East,94,8.3,13.0,86,0.00,,---,0.00,VWS V14.01,2013-02-21 09:57:00,
2013-02-21 04:58:00,26.1,22.5,28.85,ESE,112,11.2,13.9,86,0.00,,---,0.00,VWS V14.01,2013-02-21 09:58:00,
2013-02-21 04:59:00,21.6,9.8,29.21,NNE,17,4.5,4.5,60,0.00,,---,0.00,VWS V14.01,2013-02-21 09:59:00,
2013-02-21 05:00:00,26.1,22.7,28.85,East,99,10.1,13.4,87,0.00,,---,0.00,VWS V14.01,2013-02-21 10:00:00,
2013-02-21 05:01:00,25.9,22.5,28.85,ESE,113,5.8,11.0,87,0.00,,---,0.00,VWS V14.01,2013-02-21 10:01:00,
2013-02-21 05:02:00,25.9,22.5,28.85,ESE,110,10.1,11.6,87,0.00,,---,0.00,VWS V14.01,2013-02-21 10:02:00,
2013-02-21 05:03:00,25.9,22.5,28.85,East,98,7.4,11.2,87,0.00,,---,0.00,VWS V14.01,2013-02-21 10:03:00,
2013-02-21 05:04:00,21.6,9.5,29.21,North,3,3.6,4.9,59,0.00,,---,0.00,VWS V14.01,2013-02-21 10:04:00,
2013-02-21 05:05:00,25.9,22.5,28.85,East,97,7.4,11.6,87,0.00,,---,0.00,VWS V14.01,2013-02-21 10:05:00,
2013-02-21 05:06:00,25.9,22.5,28.82,ESE,107,12.1,13.4,87,0.00,,---,0.00,VWS V14.01,2013-02-21 10:06:00,
2013-02-21 05:07:00,25.9,22.5,28.82,ESE,118,7.8,13.0,87,0.00,,---,0.00,VWS V14.01,2013-02-21 10:07:00,
2013-02-21 05:08:00,25.9,22.5,28.82,ESE,102,13.4,13.4,87,0.00,,---,0.00,VWS V14.01,2013-02-21 10:08:00,
2013-02-21 05:09:00,21.6,9.1,29.21,NNE,13,0.0,4.5,58,0.00,,---,0.00,VWS V14.01,2013-02-21 10:09:00,
2013-02-21 05:10:00,25.9,22.8,28.82,SE,127,9.6,11.0,88,0.00,,---,0.00,VWS V14.01,2013-02-21 10:10:00,
2013-02-21 05:11:00,25.9,22.8,28.82,ESE,106,7.8,9.6,88,0.00,,---,0.00,VWS V14.01,2013-02-21 10:11:00,
2013-02-21 05:12:00,25.9,22.8,28.82,ESE,119,8.7,11.0,88,0.00,,---,0.00,VWS V14.01,2013-02-21 10:12:00,
2013-02-21 05:13:00,26.1,23.0,28.82,NE,53,7.4,11.2,88,0.00,,---,0.00,VWS V14.01,2013-02-21 10:13:00,
2013-02-21 05:14:00,21.6,9.1,29.21,NNE,24,0.0,2.7,58,0.00,,---,0.00,VWS V14.01,2013-02-21 10:14:00,
2013-02-21 05:15:00,26.1,23.0,28.82,SE,136,7.4,14.3,88,0.00,,---,0.00,VWS V14.01,2013-02-21 10:15:00,
2013-02-21 05:16:00,26.1,23.0,28.82,ESE,106,11.0,13.0,88,0.00,,---,0.00,VWS V14.01,2013-02-21 10:16:00,
2013-02-21 05:17:00,26.1,23.0,28.82,ESE,114,8.3,11.6,88,0.00,,---,0.00,VWS V14.01,2013-02-21 10:17:00,
2013-02-21 05:18:00,26.1,23.0,28.82,East,90,10.5,11.6,88,0.00,,---,0.00,VWS V14.01,2013-02-21 10:18:00,
2013-02-21 05:19:00,21.6,9.1,29.21,NNE,12,2.7,4.5,58,0.00,,---,0.00,VWS V14.01,2013-02-21 10:19:00,
2013-02-21 05:20:00,26.1,23.3,28.82,East,100,9.6,11.0,89,0.00,,---,0.00,VWS V14.01,2013-02-21 10:20:00,
2013-02-21 05:21:00,26.1,23.3,28.82,ESE,114,9.6,11.0,89,0.00,,---,0.00,VWS V14.01,2013-02-21 10:21:00,
2013-02-21 05:22:00,26.1,23.3,28.82,ESE,106,11.2,12.5,89,0.00,,---,0.00,VWS V14.01,2013-02-21 10:22:00,
2013-02-21 05:23:00,26.1,23.3,28.82,ESE,107,9.2,11.2,89,0.00,,---,0.00,VWS V14.01,2013-02-21 10:23:00,
2013-02-21 05:24:00,21.6,9.1,29.21,NNW,343,0.0,4.0,58,0.00,,---,0.00,VWS V14.01,2013-02-21 10:24:00,
2013-02-21 05:25:00,26.2,23.5,28.82,East,85,6.7,8.7,89,0.00,,---,0.00,VWS V14.01,2013-02-21 10:25:00,
2013-02-21 05:26:00,26.2,23.5,28.82,ESE,120,6.7,8.7,89,0.00,,---,0.00,VWS V14.01,2013-02-21 10:26:00,
2013-02-21 05:27:00,26.2,23.5,28.82,East,93,7.4,10.1,89,0.00,,---,0.00,VWS V14.01,2013-02-21 10:27:00,
2013-02-21 05:28:00,26.2,23.7,28.82,SE,128,14.8,14.8,90,0.00,,---,0.00,VWS V14.01,2013-02-21 10:28:00,
2013-02-21 05:29:00,21.6,9.1,29.21,NNE,17,2.7,6.3,58,0.00,,---,0.00,VWS V14.01,2013-02-21 10:29:00,
2013-02-21 05:30:00,26.2,23.7,28.82,East,101,6.9,11.2,90,0.00,,---,0.00,VWS V14.01,2013-02-21 10:30:00,
2013-02-21 05:31:00,26.2,23.7,28.82,ESE,120,6.7,11.0,90,0.00,,---,0.00,VWS V14.01,2013-02-21 10:31:00,
2013-02-21 05:32:00,26.2,23.7,28.82,East,93,11.0,12.5,90,0.00,,---,0.00,VWS V14.01,2013-02-21 10:32:00,
2013-02-21 05:33:00,26.2,23.7,28.82,ESE,122,6.7,11.0,90,0.00,,---,0.00,VWS V14.01,2013-02-21 10:33:00,
2013-02-21 05:34:00,21.6,9.1,29.21,NNE,23,4.9,4.9,58,0.00,,---,0.00,VWS V14.01,2013-02-21 10:34:00,
2013-02-21 05:35:00,26.2,23.7,28.82,ESE,115,6.9,10.5,90,0.00,,---,0.00,VWS V14.01,2013-02-21 10:35:00,
2013-02-21 05:36:00,26.4,23.9,28.82,ESE,110,8.3,11.6,90,0.00,,---,0.00,VWS V14.01,2013-02-21 10:36:00,
2013-02-21 05:37:00,26.2,23.7,28.82,East,95,9.6,11.0,90,0.00,,---,0.00,VWS V14.01,2013-02-21 10:37:00,
2013-02-21 05:38:00,26.2,24.0,28.82,East,92,7.4,9.6,91,0.00,,---,0.00,VWS V14.01,2013-02-21 10:38:00,
2013-02-21 05:39:00,21.6,9.1,29.21,NNW,340,4.9,5.4,58,0.00,,---,0.00,VWS V14.01,2013-02-21 10:39:00,
2013-02-21 05:40:00,26.4,24.1,28.82,ESE,115,7.4,10.1,91,0.00,,---,0.00,VWS V14.01,2013-02-21 10:40:00,
2013-02-21 05:41:00,26.6,24.3,28.82,ESE,107,8.3,11.0,91,0.00,,---,0.00,VWS V14.01,2013-02-21 10:41:00,
2013-02-21 05:42:00,26.6,24.3,28.82,ESE,106,4.9,8.7,91,0.00,,---,0.00,VWS V14.01,2013-02-21 10:42:00,
2013-02-21 05:43:00,26.6,24.3,28.82,ESE,110,6.7,7.8,91,0.00,,---,0.00,VWS V14.01,2013-02-21 10:43:00,
2013-02-21 05:44:00,21.6,9.1,29.21,NNE,28,3.1,4.9,58,0.00,,---,0.00,VWS V14.01,2013-02-21 10:44:00,
2013-02-21 05:45:00,26.8,24.5,28.82,ESE,116,9.6,13.4,91,0.00,,---,0.00,VWS V14.01,2013-02-21 10:45:00,
2013-02-21 05:46:00,27.0,25.0,28.82,SSE,149,8.3,9.6,92,0.00,,---,0.00,VWS V14.01,2013-02-21 10:46:00,
2013-02-21 05:47:00,27.1,25.1,28.82,SE,131,8.7,12.1,92,0.00,,---,0.00,VWS V14.01,2013-02-21 10:47:00,
2013-02-21 05:48:00,27.1,25.1,28.82,SSE,155,8.3,11.0,92,0.00,,---,0.00,VWS V14.01,2013-02-21 10:48:00,
2013-02-21 05:49:00,21.7,9.2,29.21,NNE,15,0.0,3.6,58,0.00,,---,0.00,VWS V14.01,2013-02-21 10:49:00,
2013-02-21 05:50:00,27.1,25.1,28.82,ESE,104,10.1,10.1,92,0.00,,---,0.00,VWS V14.01,2013-02-21 10:50:00,
2013-02-21 05:51:00,27.1,25.1,28.82,SE,141,8.3,12.5,92,0.00,,---,0.00,VWS V14.01,2013-02-21 10:51:00,
2013-02-21 05:52:00,27.1,25.4,28.82,ESE,118,9.6,11.2,93,0.00,,---,0.00,VWS V14.01,2013-02-21 10:52:00,
2013-02-21 05:53:00,27.1,25.4,28.82,SSE,150,7.8,9.6,93,0.00,,---,0.00,VWS V14.01,2013-02-21 10:53:00,
2013-02-21 05:54:00,21.9,9.8,29.21,NNE,24,2.7,4.5,59,0.00,,---,0.00,VWS V14.01,2013-02-21 10:54:00,
2013-02-21 05:55:00,27.1,25.4,28.82,ESE,123,8.7,8.7,93,0.00,,---,0.00,VWS V14.01,2013-02-21 10:55:00,
2013-02-21 05:56:00,27.1,25.4,28.82,SE,137,7.4,11.0,93,0.00,,---,0.00,VWS V14.01,2013-02-21 10:56:00,
2013-02-21 05:57:00,27.1,25.4,28.82,ESE,105,7.4,9.2,93,0.00,,---,0.00,VWS V14.01,2013-02-21 10:57:00,
2013-02-21 05:58:00,27.1,25.4,28.82,SE,131,10.1,13.4,93,0.00,,---,0.00,VWS V14.01,2013-02-21 10:58:00,
2013-02-21 05:59:00,21.7,9.2,29.23,North,6,5.4,5.4,58,0.00,,---,0.00,VWS V14.01,2013-02-21 10:59:00,
2013-02-21 06:00:00,27.3,25.8,28.82,SE,142,6.7,8.7,94,0.00,,---,0.00,VWS V14.01,2013-02-21 11:00:00,
2013-02-21 06:01:00,27.3,25.8,28.82,East,100,4.5,8.7,94,0.00,,---,0.00,VWS V14.01,2013-02-21 11:01:00,
2013-02-21 06:02:00,27.3,25.8,28.82,SSE,148,5.8,10.1,94,0.00,,---,0.00,VWS V14.01,2013-02-21 11:02:00,
2013-02-21 06:03:00,27.3,25.8,28.82,SE,137,6.3,6.9,94,0.00,,---,0.00,VWS V14.01,2013-02-21 11:03:00,
2013-02-21 06:04:00,21.7,9.2,29.23,North,7,3.6,4.9,58,0.00,,---,0.00,VWS V14.01,2013-02-21 11:04:00,
2013-02-21 06:05:00,27.3,25.8,28.82,SE,125,4.9,8.7,94,0.00,,---,0.00,VWS V14.01,2013-02-21 11:05:00,
2013-02-21 06:06:00,27.3,25.8,28.82,ESE,110,7.8,7.8,94,0.00,,---,0.00,VWS V14.01,2013-02-21 11:06:00,
2013-02-21 06:07:00,27.5,26.0,28.82,ESE,119,5.4,8.3,94,0.00,,---,0.00,VWS V14.01,2013-02-21 11:07:00,
2013-02-21 06:08:00,27.5,26.0,28.82,SE,125,7.4,9.6,94,0.00,,---,0.00,VWS V14.01,2013-02-21 11:08:00,
2013-02-21 06:09:00,21.9,9.4,29.23,North,9,2.7,5.8,58,0.00,,---,0.00,VWS V14.01,2013-02-21 11:09:00,
2013-02-21 06:10:00,27.5,26.0,28.82,ESE,118,8.3,8.3,94,0.00,,---,0.00,VWS V14.01,2013-02-21 11:10:00,
2013-02-21 06:11:00,27.5,26.0,28.82,ESE,111,6.3,8.3,94,0.00,,---,0.00,VWS V14.01,2013-02-21 11:11:00,
2013-02-21 06:12:00,27.5,26.0,28.82,ESE,106,6.7,8.7,94,0.00,,---,0.00,VWS V14.01,2013-02-21 11:12:00,
2013-02-21 06:13:00,27.5,26.0,28.82,SE,146,5.8,10.5,94,0.00,,---,0.00,VWS V14.01,2013-02-21 11:13:00,
2013-02-21 06:14:00,21.9,9.4,29.23,NNE,29,4.0,4.5,58,0.00,,---,0.00,VWS V14.01,2013-02-21 11:14:00,
2013-02-21 06:15:00,27.7,26.4,28.82,SE,134,6.7,8.3,95,0.00,,---,0.00,VWS V14.01,2013-02-21 11:15:00,
2013-02-21 06:16:00,27.7,26.4,28.82,SE,131,4.9,6.7,95,0.00,,---,0.00,VWS V14.01,2013-02-21 11:16:00,
2013-02-21 06:17:00,27.7,26.4,28.82,ESE,112,6.3,7.8,95,0.00,,---,0.00,VWS V14.01,2013-02-21 11:17:00,
2013-02-21 06:18:00,27.7,26.4,28.82,SE,140,7.8,10.5,95,0.00,,---,0.00,VWS V14.01,2013-02-21 11:18:00,
2013-02-21 06:19:00,21.9,9.4,29.23,NNE,33,4.5,4.5,58,0.00,,---,0.00,VWS V14.01,2013-02-21 11:19:00,
2013-02-21 06:20:00,27.7,26.4,28.82,SE,125,6.3,8.3,95,0.00,,---,0.00,VWS V14.01,2013-02-21 11:20:00,
2013-02-21 06:21:00,27.7,26.4,28.82,ESE,120,3.6,6.3,95,0.00,,---,0.00,VWS V14.01,2013-02-21 11:21:00,
2013-02-21 06:22:00,27.7,26.4,28.82,SSE,159,5.8,6.7,95,0.00,,---,0.00,VWS V14.01,2013-02-21 11:22:00,
2013-02-21 06:23:00,27.9,26.6,28.82,East,95,5.8,8.7,95,0.00,,---,0.00,VWS V14.01,2013-02-21 11:23:00,
2013-02-21 06:24:00,22.1,9.6,29.23,NNE,33,0.0,4.0,58,0.00,,---,0.00,VWS V14.01,2013-02-21 11:24:00,
2013-02-21 06:25:00,27.9,26.6,28.82,ESE,111,6.9,11.6,95,0.00,,---,0.00,VWS V14.01,2013-02-21 11:25:00,
2013-02-21 06:26:00,27.9,26.6,28.82,ESE,103,5.8,7.4,95,0.00,,---,0.00,VWS V14.01,2013-02-21 11:26:00,
2013-02-21 06:27:00,27.9,26.6,28.82,ESE,117,8.3,9.6,95,0.00,,---,0.00,VWS V14.01,2013-02-21 11:27:00,
2013-02-21 06:28:00,27.9,26.6,28.82,ESE,123,7.4,8.3,95,0.00,,---,0.00,VWS V14.01,2013-02-21 11:28:00,
2013-02-21 06:29:00,22.1,10.0,29.23,NE,42,2.7,4.5,59,0.00,,---,0.00,VWS V14.01,2013-02-21 11:29:00,
2013-02-21 06:30:00,27.9,26.6,28.82,ESE,109,6.3,9.6,95,0.00,,---,0.00,VWS V14.01,2013-02-21 11:30:00,
2013-02-21 06:31:00,27.9,26.6,28.82,ESE,105,6.3,8.7,95,0.00,,---,0.00,VWS V14.01,2013-02-21 11:31:00,
2013-02-21 06:32:00,27.9,26.9,28.82,ESE,117,6.7,6.9,96,0.00,,---,0.00,VWS V14.01,2013-02-21 11:32:00,
2013-02-21 06:33:00,27.9,26.9,28.82,East,85,5.8,8.7,96,0.00,,---,0.00,VWS V14.01,2013-02-21 11:33:00,
2013-02-21 06:34:00,22.1,10.0,29.23,NNE,21,0.0,5.8,59,0.00,,---,0.00,VWS V14.01,2013-02-21 11:34:00,
2013-02-21 06:35:00,27.9,26.9,28.82,ESE,112,7.4,7.4,96,0.00,,---,0.00,VWS V14.01,2013-02-21 11:35:00,
2013-02-21 06:36:00,27.9,26.9,28.82,ESE,120,8.7,8.7,96,0.00,,---,0.00,VWS V14.01,2013-02-21 11:36:00,
2013-02-21 06:37:00,27.9,26.9,28.82,SE,138,6.7,10.1,96,0.00,,---,0.00,VWS V14.01,2013-02-21 11:37:00,
2013-02-21 06:38:00,27.9,26.9,28.82,SE,127,7.8,11.0,96,0.00,,---,0.00,VWS V14.01,2013-02-21 11:38:00,
2013-02-21 06:39:00,22.1,10.0,29.23,NNE,20,3.1,4.0,59,0.00,,---,0.00,VWS V14.01,2013-02-21 11:39:00,
2013-02-21 06:40:00,27.9,26.9,28.82,SE,134,8.3,10.1,96,0.00,,---,0.00,VWS V14.01,2013-02-21 11:40:00,
2013-02-21 06:41:00,27.9,26.9,28.82,ESE,105,6.7,8.3,96,0.00,,---,0.00,VWS V14.01,2013-02-21 11:41:00,
2013-02-21 06:42:00,27.9,26.9,28.82,SE,125,6.3,10.1,96,0.00,,---,0.00,VWS V14.01,2013-02-21 11:42:00,
2013-02-21 06:43:00,27.9,26.9,28.82,ESE,105,10.5,11.2,96,0.00,,---,0.00,VWS V14.01,2013-02-21 11:43:00,
2013-02-21 06:44:00,27.9,26.9,28.82,East,97,6.3,11.0,96,0.00,,---,0.00,VWS V14.01,2013-02-21 11:44:00,
2013-02-21 06:46:00,27.9,26.9,28.82,East,100,4.9,8.7,96,0.00,,---,0.00,VWS V14.01,2013-02-21 11:46:00,
2013-02-21 06:47:00,22.1,9.6,29.23,NNE,19,4.5,4.9,58,0.00,,---,0.00,VWS V14.01,2013-02-21 11:47:00,
2013-02-21 06:48:00,27.9,26.9,28.82,ESE,113,6.7,6.9,96,0.00,,---,0.00,VWS V14.01,2013-02-21 11:48:00,
2013-02-21 06:49:00,28.0,27.0,28.82,East,88,6.9,8.7,96,0.00,,---,0.00,VWS V14.01,2013-02-21 11:49:00,
2013-02-21 06:50:00,28.0,27.0,28.82,SE,126,4.0,9.2,96,0.00,,---,0.00,VWS V14.01,2013-02-21 11:50:00,
2013-02-21 06:51:00,28.0,27.0,28.82,SE,136,6.3,8.7,96,0.00,,---,0.00,VWS V14.01,2013-02-21 11:51:00,
2013-02-21 06:52:00,28.0,27.0,28.82,ESE,116,6.3,7.4,96,0.00,,---,0.00,VWS V14.01,2013-02-21 11:52:00,
2013-02-21 06:53:00,28.0,27.0,28.82,ESE,118,7.4,7.4,96,0.00,,---,0.00,VWS V14.01,2013-02-21 11:53:00,
2013-02-21 06:54:00,28.0,27.0,28.82,SE,133,2.7,8.7,96,0.00,,---,0.00,VWS V14.01,2013-02-21 11:54:00,
2013-02-21 06:55:00,28.0,27.0,28.82,ESE,108,6.7,7.8,96,0.00,,---,0.00,VWS V14.01,2013-02-21 11:55:00,
2013-02-21 06:56:00,28.0,27.0,28.82,ESE,103,6.3,7.8,96,0.00,,---,0.00,VWS V14.01,2013-02-21 11:56:00,
2013-02-21 06:57:00,28.0,27.0,28.82,ESE,109,7.4,9.2,96,0.00,,---,0.00,VWS V14.01,2013-02-21 11:57:00,
2013-02-21 06:58:00,28.0,27.0,28.82,SE,129,8.3,8.3,96,0.00,,---,0.00,VWS V14.01,2013-02-21 11:58:00,
2013-02-21 06:59:00,28.2,27.5,28.82,ESE,112,6.7,8.3,97,0.00,,---,0.00,VWS V14.01,2013-02-21 11:59:00,
2013-02-21 07:00:00,28.2,27.5,28.82,ESE,111,5.4,6.9,97,0.00,,---,0.00,VWS V14.01,2013-02-21 12:00:00,
2013-02-21 07:01:00,28.2,27.5,28.82,East,99,5.8,5.8,97,0.00,,---,0.00,VWS V14.01,2013-02-21 12:01:00,
2013-02-21 07:02:00,28.2,27.5,28.82,SE,127,5.4,6.7,97,0.00,,---,0.00,VWS V14.01,2013-02-21 12:02:00,
2013-02-21 07:03:00,28.2,27.5,28.82,ESE,116,7.4,7.4,97,0.00,,---,0.00,VWS V14.01,2013-02-21 12:03:00,
2013-02-21 07:04:00,28.2,27.5,28.82,ESE,120,6.7,8.3,97,0.00,,---,0.00,VWS V14.01,2013-02-21 12:04:00,
2013-02-21 07:05:00,28.2,27.5,28.82,ESE,117,5.4,7.8,97,0.00,,---,0.00,VWS V14.01,2013-02-21 12:05:00,
2013-02-21 07:06:00,28.2,27.5,28.82,SE,134,8.3,9.2,97,0.00,,---,0.00,VWS V14.01,2013-02-21 12:06:00,
2013-02-21 07:07:00,28.2,27.5,28.82,ESE,114,5.8,9.2,97,0.00,,---,0.00,VWS V14.01,2013-02-21 12:07:00,
2013-02-21 07:08:00,28.2,27.5,28.82,SE,138,7.4,11.2,97,0.00,,---,0.00,VWS V14.01,2013-02-21 12:08:00,
2013-02-21 07:09:00,28.4,27.7,28.82,ESE,120,7.4,9.6,97,0.00,,---,0.00,VWS V14.01,2013-02-21 12:09:00,
2013-02-21 07:10:00,28.4,27.7,28.82,ESE,122,4.9,8.3,97,0.00,,---,0.00,VWS V14.01,2013-02-21 12:10:00,
2013-02-21 07:11:00,22.1,9.6,29.23,North,351,0.0,4.5,58,0.00,,---,0.00,VWS V14.01,2013-02-21 12:11:00,
2013-02-21 07:12:00,28.4,27.7,28.82,ESE,119,5.8,7.4,97,0.00,,---,0.00,VWS V14.01,2013-02-21 12:12:00,
2013-02-21 07:13:00,28.4,27.7,28.82,ESE,108,5.8,8.3,97,0.00,,---,0.00,VWS V14.01,2013-02-21 12:13:00,
2013-02-21 07:14:00,28.4,27.7,28.82,SE,142,6.3,6.7,97,0.00,,---,0.00,VWS V14.01,2013-02-21 12:14:00,
2013-02-21 07:15:00,28.4,27.7,28.82,East,98,5.8,6.9,97,0.00,,---,0.00,VWS V14.01,2013-02-21 12:15:00,
2013-02-21 07:16:00,22.1,9.6,29.26,NNW,337,2.7,6.3,58,0.00,,---,0.00,VWS V14.01,2013-02-21 12:16:00,
2013-02-21 07:17:00,28.6,27.8,28.82,ESE,107,4.5,7.8,97,0.00,,---,0.00,VWS V14.01,2013-02-21 12:17:00,
2013-02-21 07:18:00,28.6,27.8,28.82,ESE,102,4.9,4.9,97,0.00,,---,0.00,VWS V14.01,2013-02-21 12:18:00,
2013-02-21 07:19:00,28.6,27.8,28.82,ESE,110,4.0,4.9,97,0.00,,---,0.00,VWS V14.01,2013-02-21 12:19:00,
2013-02-21 07:20:00,28.6,27.8,28.82,East,98,6.3,6.3,97,0.00,,---,0.00,VWS V14.01,2013-02-21 12:20:00,
2013-02-21 07:21:00,28.6,27.8,28.82,ESE,120,6.7,7.8,97,0.00,,---,0.00,VWS V14.01,2013-02-21 12:21:00,
2013-02-21 07:22:00,22.1,9.6,29.26,NE,41,0.0,3.6,58,0.00,,---,0.00,VWS V14.01,2013-02-21 12:22:00,
2013-02-21 07:23:00,28.6,27.8,28.82,ESE,106,4.9,5.8,97,0.00,,---,0.00,VWS V14.01,2013-02-21 12:23:00,
2013-02-21 07:24:00,28.6,27.8,28.82,SE,131,4.9,6.7,97,0.00,,---,0.00,VWS V14.01,2013-02-21 12:24:00,
2013-02-21 07:25:00,28.6,27.8,28.82,SSE,164,6.7,6.9,97,0.00,,---,0.00,VWS V14.01,2013-02-21 12:25:00,
2013-02-21 07:26:00,28.8,28.0,28.82,ESE,123,5.4,6.7,97,0.00,,---,0.00,VWS V14.01,2013-02-21 12:26:00,
2013-02-21 07:27:00,22.1,9.6,29.23,NNE,23,3.1,4.0,58,0.00,,---,0.00,VWS V14.01,2013-02-21 12:27:00,
2013-02-21 07:28:00,28.8,28.0,28.82,SE,125,4.0,8.7,97,0.00,,---,0.00,VWS V14.01,2013-02-21 12:28:00,
2013-02-21 07:29:00,28.8,28.0,28.82,ESE,110,6.9,8.7,97,0.00,,---,0.00,VWS V14.01,2013-02-21 12:29:00,
2013-02-21 07:30:00,28.8,28.0,28.82,ESE,114,8.7,9.6,97,0.00,,---,0.00,VWS V14.01,2013-02-21 12:30:00,
2013-02-21 07:31:00,28.8,28.0,28.82,ESE,110,4.0,8.7,97,0.00,,---,0.00,VWS V14.01,2013-02-21 12:31:00,
2013-02-21 07:32:00,22.3,10.1,29.23,NNE,23,0.0,2.7,59,0.00,,---,0.00,VWS V14.01,2013-02-21 12:32:00,
2013-02-21 07:33:00,28.8,28.0,28.82,ENE,67,6.7,7.8,97,0.00,,---,0.00,VWS V14.01,2013-02-21 12:33:00,
2013-02-21 07:34:00,28.8,28.0,28.82,ESE,119,4.9,7.8,97,0.00,,---,0.00,VWS V14.01,2013-02-21 12:34:00,
2013-02-21 07:35:00,28.8,28.0,28.82,SE,127,4.9,7.4,97,0.00,,---,0.00,VWS V14.01,2013-02-21 12:35:00,
2013-02-21 07:36:00,28.8,28.0,28.82,ESE,121,4.5,5.4,97,0.00,,---,0.00,VWS V14.01,2013-02-21 12:36:00,
2013-02-21 07:37:00,22.1,9.6,29.23,NNW,330,0.0,3.1,58,0.00,,---,0.00,VWS V14.01,2013-02-21 12:37:00,
2013-02-21 07:38:00,28.8,28.0,28.82,SE,143,5.4,6.7,97,0.00,,---,0.00,VWS V14.01,2013-02-21 12:38:00,
2013-02-21 07:39:00,28.8,28.0,28.82,SE,125,3.6,5.4,97,0.00,,---,0.00,VWS V14.01,2013-02-21 12:39:00,
2013-02-21 07:40:00,28.8,28.0,28.82,ESE,104,6.9,7.4,97,0.00,,---,0.00,VWS V14.01,2013-02-21 12:40:00,
2013-02-21 07:41:00,28.8,28.0,28.82,ESE,106,4.9,7.4,97,0.00,,---,0.00,VWS V14.01,2013-02-21 12:41:00,
2013-02-21 07:42:00,22.3,9.8,29.23,ENE,62,0.0,0.0,58,0.00,,---,0.00,VWS V14.01,2013-02-21 12:42:00,
2013-02-21 07:43:00,28.8,28.0,28.82,SE,129,6.7,6.9,97,0.00,,---,0.00,VWS V14.01,2013-02-21 12:43:00,
2013-02-21 07:44:00,28.8,28.0,28.82,ESE,115,5.8,8.3,97,0.00,,---,0.00,VWS V14.01,2013-02-21 12:44:00,
2013-02-21 07:45:00,28.8,28.0,28.82,ESE,109,6.7,9.2,97,0.00,,---,0.00,VWS V14.01,2013-02-21 12:45:00,
2013-02-21 07:46:00,28.8,28.0,28.82,ESE,111,6.7,6.9,97,0.00,,---,0.00,VWS V14.01,2013-02-21 12:46:00,
2013-02-21 07:47:00,22.5,9.9,29.23,ENE,62,0.0,0.0,58,0.00,,---,0.00,VWS V14.01,2013-02-21 12:47:00,
2013-02-21 07:48:00,28.8,28.0,28.82,East,96,3.6,7.4,97,0.00,,---,0.00,VWS V14.01,2013-02-21 12:48:00,
2013-02-21 07:49:00,28.8,28.0,28.82,ESE,106,4.9,5.8,97,0.00,,---,0.00,VWS V14.01,2013-02-21 12:49:00,
2013-02-21 07:50:00,28.8,28.0,28.82,ESE,108,6.7,7.4,97,0.00,,---,0.00,VWS V14.01,2013-02-21 12:50:00,
2013-02-21 07:51:00,28.8,28.0,28.79,ESE,123,6.9,6.9,97,0.00,,---,0.00,VWS V14.01,2013-02-21 12:51:00,
2013-02-21 07:52:00,22.5,9.9,29.23,ENE,62,0.0,0.0,58,0.00,,---,0.00,VWS V14.01,2013-02-21 12:52:00,
2013-02-21 07:53:00,28.8,28.0,28.79,ESE,121,4.9,7.4,97,0.00,,---,0.00,VWS V14.01,2013-02-21 12:53:00,
2013-02-21 07:54:00,28.8,28.0,28.79,ESE,114,5.4,8.7,97,0.00,,---,0.00,VWS V14.01,2013-02-21 12:54:00,
2013-02-21 07:55:00,28.8,28.0,28.79,ESE,110,5.8,6.3,97,0.00,,---,0.00,VWS V14.01,2013-02-21 12:55:00,
2013-02-21 07:56:00,28.8,28.0,28.79,SE,134,4.0,6.3,97,0.00,,---,0.00,VWS V14.01,2013-02-21 12:56:00,
2013-02-21 07:57:00,28.8,28.0,28.79,SE,139,3.1,4.5,97,0.00,,---,0.00,VWS V14.01,2013-02-21 12:57:00,
2013-02-21 07:58:00,22.6,10.5,29.23,ENE,70,5.8,5.8,59,0.00,,---,0.00,VWS V14.01,2013-02-21 12:58:00,
2013-02-21 07:59:00,28.9,28.2,28.79,ESE,107,4.5,7.8,97,0.00,,---,0.00,VWS V14.01,2013-02-21 12:59:00,
2013-02-21 08:00:00,28.9,28.2,28.79,ESE,118,4.9,5.8,97,0.00,,---,0.00,VWS V14.01,2013-02-21 13:00:00,
2013-02-21 08:01:00,28.9,28.2,28.79,ESE,107,4.0,7.8,97,0.00,,---,0.00,VWS V14.01,2013-02-21 13:01:00,
2013-02-21 08:02:00,28.9,28.2,28.79,SE,132,5.8,5.8,97,0.00,,---,0.00,VWS V14.01,2013-02-21 13:02:00,
2013-02-21 08:03:00,22.6,10.5,29.23,ENE,63,4.5,5.4,59,0.00,,---,0.00,VWS V14.01,2013-02-21 13:03:00,
2013-02-21 08:04:00,28.9,28.2,28.79,ESE,117,3.1,5.8,97,0.00,,---,0.00,VWS V14.01,2013-02-21 13:04:00,
2013-02-21 08:05:00,28.9,28.2,28.79,ESE,119,3.6,4.5,97,0.00,,---,0.00,VWS V14.01,2013-02-21 13:05:00,
2013-02-21 08:06:00,28.9,28.2,28.82,ESE,104,3.6,4.9,97,0.00,,---,0.00,VWS V14.01,2013-02-21 13:06:00,
2013-02-21 08:07:00,28.9,28.2,28.82,ESE,115,0.0,4.9,97,0.00,,---,0.00,VWS V14.01,2013-02-21 13:07:00,
2013-02-21 08:08:00,28.9,28.2,28.82,ESE,116,3.1,3.6,97,0.00,,---,0.00,VWS V14.01,2013-02-21 13:08:00,
2013-02-21 08:09:00,28.9,28.2,28.82,East,101,5.8,5.8,97,0.00,,---,0.00,VWS V14.01,2013-02-21 13:09:00,
2013-02-21 08:10:00,22.8,10.6,29.23,ENE,64,0.0,0.0,59,0.00,,---,0.00,VWS V14.01,2013-02-21 13:10:00,
2013-02-21 08:11:00,28.9,28.2,28.82,ESE,116,4.5,5.4,97,0.00,,---,0.00,VWS V14.01,2013-02-21 13:11:00,
2013-02-21 08:12:00,28.9,28.2,28.82,ESE,102,5.4,7.4,97,0.00,,---,0.00,VWS V14.01,2013-02-21 13:12:00,
2013-02-21 08:13:00,28.9,28.2,28.82,ESE,123,5.8,8.3,97,0.00,,---,0.00,VWS V14.01,2013-02-21 13:13:00,
2013-02-21 08:14:00,28.9,28.2,28.82,ESE,113,6.7,6.7,97,0.00,,---,0.00,VWS V14.01,2013-02-21 13:14:00,
2013-02-21 08:15:00,23.0,10.8,29.26,ENE,64,0.0,2.7,59,0.00,,---,0.00,VWS V14.01,2013-02-21 13:15:00,
2013-02-21 08:16:00,28.9,28.2,28.82,ESE,107,3.1,4.5,97,0.00,,---,0.00,VWS V14.01,2013-02-21 13:16:00,
2013-02-21 08:17:00,28.9,28.2,28.82,ESE,107,4.5,6.3,97,0.00,,---,0.00,VWS V14.01,2013-02-21 13:17:00,
2013-02-21 08:18:00,29.1,28.4,28.82,ESE,108,0.0,4.5,97,0.00,,---,0.00,VWS V14.01,2013-02-21 13:18:00,
2013-02-21 08:19:00,29.1,28.4,28.82,ESE,118,4.9,4.9,97,0.00,,---,0.00,VWS V14.01,2013-02-21 13:19:00,
2013-02-21 08:20:00,29.1,28.4,28.82,SE,132,6.9,6.9,97,0.00,,---,0.00,VWS V14.01,2013-02-21 13:20:00,
2013-02-21 08:21:00,29.1,28.4,28.82,ESE,122,4.0,6.9,97,0.00,,---,0.00,VWS V14.01,2013-02-21 13:21:00,
2013-02-21 08:22:00,23.0,10.8,29.26,ENE,64,0.0,4.0,59,0.00,,---,0.00,VWS V14.01,2013-02-21 13:22:00,
2013-02-21 08:23:00,29.1,28.4,28.82,ESE,109,4.0,6.7,97,0.00,,---,0.00,VWS V14.01,2013-02-21 13:23:00,
2013-02-21 08:24:00,29.1,28.4,28.82,ESE,111,5.4,6.3,97,0.00,,---,0.00,VWS V14.01,2013-02-21 13:24:00,
2013-02-21 08:25:00,29.1,28.4,28.82,ESE,113,4.5,5.4,97,0.00,,---,0.00,VWS V14.01,2013-02-21 13:25:00,
2013-02-21 08:26:00,29.1,28.4,28.82,ESE,110,5.4,5.8,97,0.00,,---,0.00,VWS V14.01,2013-02-21 13:26:00,
2013-02-21 08:27:00,23.0,10.8,29.26,ENE,64,0.0,3.1,59,0.00,,---,0.00,VWS V14.01,2013-02-21 13:27:00,
2013-02-21 08:28:00,29.1,28.4,28.82,ESE,106,4.5,5.8,97,0.00,,---,0.00,VWS V14.01,2013-02-21 13:28:00,
2013-02-21 08:29:00,29.1,28.4,28.82,ESE,109,0.0,6.3,97,0.00,,---,0.00,VWS V14.01,2013-02-21 13:29:00,
2013-02-21 08:30:00,29.1,28.4,28.82,ESE,108,4.9,6.3,97,0.00,,---,0.00,VWS V14.01,2013-02-21 13:30:00,
2013-02-21 08:31:00,29.1,28.4,28.82,ESE,113,5.8,6.3,97,0.00,,---,0.00,VWS V14.01,2013-02-21 13:31:00,
2013-02-21 08:32:00,22.6,9.7,29.26,North,351,0.0,6.7,57,0.00,,---,0.00,VWS V14.01,2013-02-21 13:32:00,
2013-02-21 08:33:00,29.1,28.4,28.82,ESE,114,0.0,3.6,97,0.00,,---,0.00,VWS V14.01,2013-02-21 13:33:00,
2013-02-21 08:34:00,29.1,28.4,28.82,East,85,2.7,5.4,97,0.00,,---,0.00,VWS V14.01,2013-02-21 13:34:00,
2013-02-21 08:35:00,29.1,28.4,28.82,East,85,3.1,3.1,97,0.00,,---,0.00,VWS V14.01,2013-02-21 13:35:00,
2013-02-21 08:36:00,29.3,28.6,28.82,ESE,110,4.0,4.9,97,0.00,,---,0.00,VWS V14.01,2013-02-21 13:36:00,
2013-02-21 08:37:00,22.8,10.3,29.26,NNE,18,2.7,6.3,58,0.00,,---,0.00,VWS V14.01,2013-02-21 13:37:00,
2013-02-21 08:38:00,29.3,28.6,28.82,East,97,3.6,4.5,97,0.00,,---,0.00,VWS V14.01,2013-02-21 13:38:00,
2013-02-21 08:39:00,29.3,28.6,28.82,East,97,3.6,3.6,97,0.00,,---,0.00,VWS V14.01,2013-02-21 13:39:00,
2013-02-21 08:40:00,29.3,28.6,28.82,ESE,109,4.0,5.4,97,0.00,,---,0.00,VWS V14.01,2013-02-21 13:40:00,
2013-02-21 08:41:00,29.3,28.6,28.82,ESE,107,4.5,4.5,97,0.00,,---,0.00,VWS V14.01,2013-02-21 13:41:00,
2013-02-21 08:42:00,23.0,10.4,29.26,NNE,14,3.6,4.5,58,0.00,,---,0.00,VWS V14.01,2013-02-21 13:42:00,
2013-02-21 08:43:00,29.3,28.6,28.82,ESE,113,3.6,4.0,97,0.00,,---,0.00,VWS V14.01,2013-02-21 13:43:00,
2013-02-21 08:44:00,29.3,28.6,28.82,ESE,105,3.1,6.9,97,0.00,,---,0.00,VWS V14.01,2013-02-21 13:44:00,
2013-02-21 08:45:00,29.3,28.6,28.82,ESE,112,2.7,4.9,97,0.00,,---,0.00,VWS V14.01,2013-02-21 13:45:00,
2013-02-21 08:46:00,29.3,28.6,28.82,ESE,116,0.0,4.0,97,0.00,,---,0.00,VWS V14.01,2013-02-21 13:46:00,
2013-02-21 08:47:00,29.3,28.6,28.82,ESE,117,0.0,0.0,97,0.00,,---,0.00,VWS V14.01,2013-02-21 13:47:00,
2013-02-21 08:48:00,23.4,10.8,29.26,NNE,14,0.0,3.6,58,0.00,,---,0.00,VWS V14.01,2013-02-21 13:48:00,
2013-02-21 08:49:00,29.5,28.7,28.82,ESE,107,5.4,5.8,97,0.00,,---,0.00,VWS V14.01,2013-02-21 13:49:00,
2013-02-21 08:50:00,29.5,28.7,28.82,ESE,103,3.6,5.4,97,0.00,,---,0.00,VWS V14.01,2013-02-21 13:50:00,
2013-02-21 08:51:00,29.5,28.7,28.82,ESE,103,3.6,5.4,97,0.00,,---,0.00,VWS V14.01,2013-02-21 13:51:00,
2013-02-21 08:52:00,29.5,28.7,28.82,East,90,3.6,4.0,97,0.00,,---,0.00,VWS V14.01,2013-02-21 13:52:00,
2013-02-21 08:53:00,23.5,10.9,29.26,NNE,14,0.0,3.6,58,0.00,,---,0.00,VWS V14.01,2013-02-21 13:53:00,
2013-02-21 08:54:00,29.5,28.7,28.82,East,86,0.0,3.6,97,0.00,,---,0.00,VWS V14.01,2013-02-21 13:54:00,
2013-02-21 08:55:00,29.5,28.7,28.82,East,86,4.9,4.9,97,0.00,,---,0.00,VWS V14.01,2013-02-21 13:55:00,
2013-02-21 08:56:00,29.5,28.7,28.82,East,89,2.7,4.9,97,0.00,,---,0.00,VWS V14.01,2013-02-21 13:56:00,
2013-02-21 08:57:00,29.7,28.9,28.82,East,89,2.7,4.0,97,0.00,,---,0.00,VWS V14.01,2013-02-21 13:57:00,
2013-02-21 08:58:00,23.5,10.9,29.26,ENE,72,3.1,4.9,58,0.00,,---,0.00,VWS V14.01,2013-02-21 13:58:00,
2013-02-21 08:59:00,29.7,28.9,28.82,East,92,0.0,4.0,97,0.00,,---,0.00,VWS V14.01,2013-02-21 13:59:00,
2013-02-21 09:00:00,29.7,28.9,28.82,East,92,3.1,3.1,97,0.00,,---,0.00,VWS V14.01,2013-02-21 14:00:00,
2013-02-21 09:01:00,29.7,28.9,28.82,East,92,3.1,4.0,97,0.00,,---,0.00,VWS V14.01,2013-02-21 14:01:00,
2013-02-21 09:02:00,29.7,28.9,28.82,East,92,3.6,4.0,97,0.00,,---,0.00,VWS V14.01,2013-02-21 14:02:00,
2013-02-21 09:03:00,29.7,28.9,28.82,East,92,0.0,3.6,97,0.00,,---,0.00,VWS V14.01,2013-02-21 14:03:00,
2013-02-21 09:04:00,23.4,10.4,29.26,ENE,67,4.9,6.7,57,0.00,,---,0.00,VWS V14.01,2013-02-21 14:04:00,
2013-02-21 09:05:00,29.7,28.9,28.82,ESE,106,4.5,5.4,97,0.00,,---,0.00,VWS V14.01,2013-02-21 14:05:00,
2013-02-21 09:06:00,29.7,28.9,28.82,East,98,5.8,5.8,97,0.00,,---,0.00,VWS V14.01,2013-02-21 14:06:00,
2013-02-21 09:07:00,29.7,28.9,28.82,ESE,113,3.6,5.8,97,0.00,,---,0.00,VWS V14.01,2013-02-21 14:07:00,
2013-02-21 09:08:00,29.7,28.9,28.82,ESE,115,2.7,4.0,97,0.00,,---,0.00,VWS V14.01,2013-02-21 14:08:00,
2013-02-21 09:09:00,29.7,28.9,28.82,ESE,105,3.6,4.0,97,0.00,,---,0.00,VWS V14.01,2013-02-21 14:09:00,
2013-02-21 09:10:00,29.7,28.9,28.82,ESE,115,4.0,4.9,97,0.00,,---,0.00,VWS V14.01,2013-02-21 14:10:00,
2013-02-21 09:11:00,29.7,28.9,28.82,ESE,116,3.1,5.4,97,0.00,,---,0.00,VWS V14.01,2013-02-21 14:11:00,
2013-02-21 09:12:00,23.4,10.4,29.23,NE,47,6.7,7.4,57,0.00,,---,0.00,VWS V14.01,2013-02-21 14:12:00,
2013-02-21 09:13:00,29.8,29.1,28.82,ESE,107,3.6,3.6,97,0.00,,---,0.00,VWS V14.01,2013-02-21 14:13:00,
2013-02-21 09:14:00,29.8,29.1,28.82,ESE,112,4.0,4.9,97,0.00,,---,0.00,VWS V14.01,2013-02-21 14:14:00,
2013-02-21 09:15:00,29.8,29.1,28.82,ESE,115,3.6,4.9,97,0.00,,---,0.00,VWS V14.01,2013-02-21 14:15:00,
2013-02-21 09:16:00,29.8,29.1,28.82,ESE,115,3.6,5.4,97,0.00,,---,0.00,VWS V14.01,2013-02-21 14:16:00,
2013-02-21 09:17:00,23.2,10.2,29.23,ENE,78,5.8,6.7,57,0.00,,---,0.00,VWS V14.01,2013-02-21 14:17:00,
2013-02-21 09:18:00,29.8,29.1,28.82,ESE,114,3.1,5.4,97,0.00,,---,0.00,VWS V14.01,2013-02-21 14:18:00,
2013-02-21 09:19:00,29.8,29.1,28.82,ESE,111,4.5,4.5,97,0.00,,---,0.00,VWS V14.01,2013-02-21 14:19:00,
2013-02-21 09:20:00,30.0,29.3,28.82,SE,131,5.4,5.4,97,0.00,,---,0.00,VWS V14.01,2013-02-21 14:20:00,
2013-02-21 09:22:00,23.0,9.7,29.23,ENE,74,5.4,6.9,56,0.00,,---,0.00,VWS V14.01,2013-02-21 14:22:00,
2013-02-21 09:28:00,30.2,29.5,28.82,East,84,3.6,5.4,97,0.00,,---,0.00,VWS V14.01,2013-02-21 14:28:00,
2013-02-21 09:29:00,23.2,9.8,29.26,East,94,5.4,6.7,56,0.00,,---,0.00,VWS V14.01,2013-02-21 14:29:00,
2013-02-21 09:30:00,30.2,29.5,28.82,ESE,115,3.6,4.9,97,0.00,,---,0.00,VWS V14.01,2013-02-21 14:30:00,
2013-02-21 09:31:00,30.2,29.5,28.82,ESE,111,4.0,4.0,97,0.00,,---,0.00,VWS V14.01,2013-02-21 14:31:00,
2013-02-21 09:32:00,30.4,29.6,28.82,ESE,106,5.8,5.8,97,0.00,,---,0.00,VWS V14.01,2013-02-21 14:32:00,
2013-02-21 09:33:00,30.4,29.6,28.82,ESE,107,3.6,6.3,97,0.00,,---,0.00,VWS V14.01,2013-02-21 14:33:00,
2013-02-21 09:34:00,23.0,9.2,29.26,ENE,74,5.4,5.8,55,0.00,,---,0.00,VWS V14.01,2013-02-21 14:34:00,
2013-02-21 09:35:00,30.4,29.6,28.82,East,94,3.1,5.8,97,0.00,,---,0.00,VWS V14.01,2013-02-21 14:35:00,
2013-02-21 09:36:00,30.4,29.6,28.82,East,93,4.0,5.8,97,0.00,,---,0.00,VWS V14.01,2013-02-21 14:36:00,
2013-02-21 09:37:00,30.4,29.6,28.82,East,99,4.0,5.8,97,0.00,,---,0.00,VWS V14.01,2013-02-21 14:37:00,
2013-02-21 09:38:00,30.4,29.6,28.82,East,88,4.9,6.7,97,0.00,,---,0.00,VWS V14.01,2013-02-21 14:38:00,
2013-02-21 09:39:00,23.5,9.8,29.26,East,90,4.0,6.7,55,0.00,,---,0.00,VWS V14.01,2013-02-21 14:39:00,
2013-02-21 09:40:00,30.4,29.6,28.82,East,99,3.6,5.8,97,0.00,,---,0.00,VWS V14.01,2013-02-21 14:40:00,
2013-02-21 09:41:00,30.6,29.8,28.82,East,100,2.7,4.0,97,0.00,,---,0.00,VWS V14.01,2013-02-21 14:41:00,
2013-02-21 09:42:00,30.6,29.8,28.82,East,100,2.7,3.6,97,0.00,,---,0.00,VWS V14.01,2013-02-21 14:42:00,
2013-02-21 09:43:00,30.6,29.8,28.82,ESE,107,5.4,5.8,97,0.00,,---,0.00,VWS V14.01,2013-02-21 14:43:00,
2013-02-21 09:44:00,30.6,29.8,28.82,ESE,106,6.7,6.7,97,0.00,,---,0.00,VWS V14.01,2013-02-21 14:44:00,
2013-02-21 09:45:00,23.5,9.4,29.26,East,82,0.0,4.0,54,0.00,,---,0.00,VWS V14.01,2013-02-21 14:45:00,
2013-02-21 09:50:00,23.9,9.3,29.26,East,80,3.6,4.9,53,0.00,,---,0.00,VWS V14.01,2013-02-21 14:50:00,
2013-02-21 09:51:00,31.1,30.4,28.82,East,100,5.4,5.4,97,0.00,,---,0.00,VWS V14.01,2013-02-21 14:51:00,
2013-02-21 09:52:00,31.1,30.4,28.82,ESE,114,5.4,7.4,97,0.00,,---,0.00,VWS V14.01,2013-02-21 14:52:00,
2013-02-21 09:53:00,31.1,30.4,28.82,ESE,111,5.4,5.8,97,0.00,,---,0.00,VWS V14.01,2013-02-21 14:53:00,
2013-02-21 09:54:00,31.1,30.4,28.82,East,98,3.1,5.4,97,0.00,,---,0.00,VWS V14.01,2013-02-21 14:54:00,
2013-02-21 09:55:00,31.1,30.4,28.82,ESE,102,4.9,5.4,97,0.00,,---,0.00,VWS V14.01,2013-02-21 14:55:00,
2013-02-21 09:56:00,24.4,10.2,29.26,ENE,77,0.0,4.0,54,0.00,,---,0.00,VWS V14.01,2013-02-21 14:56:00,
2013-02-21 09:57:00,31.1,30.4,28.82,SE,126,5.8,6.3,97,0.00,,---,0.00,VWS V14.01,2013-02-21 14:57:00,
2013-02-21 09:58:00,31.3,30.5,28.82,ESE,102,4.0,5.8,97,0.00,,---,0.00,VWS V14.01,2013-02-21 14:58:00,
2013-02-21 09:59:00,31.3,30.5,28.82,ESE,106,3.6,4.9,97,0.00,,---,0.00,VWS V14.01,2013-02-21 14:59:00,
2013-02-21 10:00:00,31.3,30.5,28.82,ESE,112,4.0,4.9,97,0.00,,---,0.00,VWS V14.01,2013-02-21 15:00:00,
2013-02-21 10:01:00,24.6,9.9,29.26,ENE,77,2.7,4.0,53,0.00,,---,0.00,VWS V14.01,2013-02-21 15:01:00,
2013-02-21 10:02:00,31.3,30.5,28.82,East,93,4.0,6.3,97,0.00,,---,0.00,VWS V14.01,2013-02-21 15:02:00,
2013-02-21 10:03:00,31.3,30.5,28.82,ESE,112,4.0,4.5,97,0.00,,---,0.00,VWS V14.01,2013-02-21 15:03:00,
2013-02-21 10:04:00,31.5,30.7,28.82,ESE,112,4.9,5.4,97,0.00,,---,0.00,VWS V14.01,2013-02-21 15:04:00,
2013-02-21 10:05:00,31.3,30.5,28.82,ESE,118,4.5,5.8,97,0.00,,---,0.00,VWS V14.01,2013-02-21 15:05:00,
2013-02-21 10:06:00,24.4,9.4,29.26,ENE,72,4.9,5.8,52,0.00,,---,0.00,VWS V14.01,2013-02-21 15:06:00,
2013-02-21 10:07:00,31.3,30.5,28.82,ESE,108,3.6,4.9,97,0.00,,---,0.00,VWS V14.01,2013-02-21 15:07:00,
2013-02-21 10:08:00,31.3,30.5,28.82,ESE,106,5.4,5.4,97,0.00,,---,0.00,VWS V14.01,2013-02-21 15:08:00,
2013-02-21 10:09:00,31.3,30.5,28.82,ESE,123,4.5,5.8,97,0.00,,---,0.00,VWS V14.01,2013-02-21 15:09:00,
2013-02-21 10:10:00,31.5,30.7,28.82,ESE,116,3.1,4.5,97,0.00,,---,0.00,VWS V14.01,2013-02-21 15:10:00,
2013-02-21 10:11:00,24.4,9.4,29.26,ESE,105,3.6,5.8,52,0.00,,---,0.00,VWS V14.01,2013-02-21 15:11:00,
2013-02-21 10:12:00,31.5,30.7,28.82,ESE,111,4.5,4.5,97,0.00,,---,0.00,VWS V14.01,2013-02-21 15:12:00,
2013-02-21 10:13:00,31.6,30.9,28.82,ESE,122,4.0,4.9,97,0.00,,---,0.00,VWS V14.01,2013-02-21 15:13:00,
2013-02-21 10:14:00,31.6,30.9,28.82,ESE,115,4.0,4.9,97,0.00,,---,0.00,VWS V14.01,2013-02-21 15:14:00,
2013-02-21 10:15:00,31.6,30.9,28.82,ESE,102,4.5,4.9,97,0.00,,---,0.00,VWS V14.01,2013-02-21 15:15:00,
2013-02-21 10:16:00,31.6,30.9,28.82,ESE,120,3.6,5.4,97,0.00,,---,0.00,VWS V14.01,2013-02-21 15:16:00,
2013-02-21 10:17:00,24.4,8.9,29.23,East,91,4.0,5.4,51,0.00,,---,0.00,VWS V14.01,2013-02-21 15:17:00,
2013-02-21 10:18:00,31.8,31.1,28.82,ESE,106,4.9,4.9,97,0.00,,---,0.00,VWS V14.01,2013-02-21 15:18:00,
2013-02-21 10:19:00,31.8,31.1,28.82,ESE,105,3.1,4.9,97,0.00,,---,0.00,VWS V14.01,2013-02-21 15:19:00,
2013-02-21 10:20:00,32.0,31.2,28.82,ESE,105,4.5,4.5,97,0.00,,---,0.00,VWS V14.01,2013-02-21 15:20:00,
2013-02-21 10:21:00,32.0,31.2,28.79,ESE,106,4.9,5.4,97,0.00,,---,0.00,VWS V14.01,2013-02-21 15:21:00,
2013-02-21 10:22:00,32.0,31.2,28.79,East,90,4.0,5.8,97,0.00,,---,0.00,VWS V14.01,2013-02-21 15:22:00,
2013-02-21 10:23:00,24.6,8.6,29.23,NE,53,3.6,5.8,50,0.00,,---,0.00,VWS V14.01,2013-02-21 15:23:00,
2013-02-21 10:24:00,32.0,31.2,28.79,ESE,107,4.0,4.5,97,0.00,,---,0.00,VWS V14.01,2013-02-21 15:24:00,
2013-02-21 10:25:00,32.0,31.2,28.79,ESE,115,4.0,4.5,97,0.00,,---,0.00,VWS V14.01,2013-02-21 15:25:00,
2013-02-21 10:26:00,32.2,31.4,28.79,ESE,116,3.1,4.0,97,0.00,,---,0.00,VWS V14.01,2013-02-21 15:26:00,
2013-02-21 10:27:00,32.2,31.4,28.79,ESE,120,4.0,4.5,97,0.00,,---,0.00,VWS V14.01,2013-02-21 15:27:00,
2013-02-21 10:28:00,24.6,7.7,29.26,ESE,103,0.0,4.9,48,0.00,,---,0.00,VWS V14.01,2013-02-21 15:28:00,
2013-02-21 10:29:00,32.2,31.4,28.79,ESE,106,0.0,4.0,97,0.00,,---,0.00,VWS V14.01,2013-02-21 15:29:00,
2013-02-21 10:30:00,32.2,31.4,28.79,ESE,106,0.0,3.6,97,0.00,,---,0.00,VWS V14.01,2013-02-21 15:30:00,
2013-02-21 10:31:00,32.2,31.4,28.79,ESE,106,2.7,5.4,97,0.00,,---,0.00,VWS V14.01,2013-02-21 15:31:00,
2013-02-21 10:32:00,32.4,31.6,28.79,ESE,106,0.0,2.7,97,0.00,,---,0.00,VWS V14.01,2013-02-21 15:32:00,
2013-02-21 10:33:00,24.8,7.4,29.26,SE,130,4.0,4.9,47,0.00,,---,0.00,VWS V14.01,2013-02-21 15:33:00,
2013-02-21 10:34:00,32.4,31.6,28.79,ESE,105,3.6,5.4,97,0.00,,---,0.00,VWS V14.01,2013-02-21 15:34:00,
2013-02-21 10:35:00,32.5,31.8,28.79,ESE,116,3.6,5.4,97,0.00,,---,0.00,VWS V14.01,2013-02-21 15:35:00,
2013-02-21 10:36:00,32.5,31.8,28.79,East,99,4.5,4.5,97,0.00,,---,0.00,VWS V14.01,2013-02-21 15:36:00,
2013-02-21 10:37:00,32.5,31.8,28.79,ESE,109,3.1,4.5,97,0.00,,---,0.00,VWS V14.01,2013-02-21 15:37:00,
2013-02-21 10:38:00,24.6,7.3,29.26,SE,128,2.7,5.4,47,0.00,,---,0.00,VWS V14.01,2013-02-21 15:38:00,
2013-02-21 10:39:00,32.5,31.8,28.79,ESE,110,4.5,4.5,97,0.00,,---,0.00,VWS V14.01,2013-02-21 15:39:00,
2013-02-21 10:40:00,32.5,31.8,28.79,ESE,110,3.1,4.5,97,0.00,,---,0.00,VWS V14.01,2013-02-21 15:40:00,
2013-02-21 10:41:00,32.7,32.0,28.79,ESE,110,3.1,4.0,97,0.00,,---,0.00,VWS V14.01,2013-02-21 15:41:00,
2013-02-21 10:42:00,32.7,32.0,28.79,ESE,110,3.1,3.6,97,0.00,,---,0.00,VWS V14.01,2013-02-21 15:42:00,
2013-02-21 10:43:00,32.7,32.0,28.79,ESE,110,2.7,4.0,97,0.00,,---,0.00,VWS V14.01,2013-02-21 15:43:00,
2013-02-21 10:44:00,24.4,6.6,29.26,SE,130,4.0,4.9,46,0.00,,---,0.00,VWS V14.01,2013-02-21 15:44:00,
2013-02-21 10:45:00,32.9,32.1,28.79,ESE,110,3.1,3.1,97,0.00,,---,0.00,VWS V14.01,2013-02-21 15:45:00,
2013-02-21 10:46:00,32.9,32.1,28.79,ESE,110,2.7,4.0,97,0.00,,---,0.00,VWS V14.01,2013-02-21 15:46:00,
2013-02-21 10:47:00,33.1,32.3,28.79,ESE,110,2.7,3.1,97,0.00,,---,0.00,VWS V14.01,2013-02-21 15:47:00,
2013-02-21 10:48:00,33.1,32.3,28.79,ESE,110,4.5,4.5,97,0.00,,---,0.00,VWS V14.01,2013-02-21 15:48:00,
2013-02-21 10:49:00,24.6,7.3,29.26,East,81,3.6,4.0,47,0.00,,---,0.00,VWS V14.01,2013-02-21 15:49:00,
2013-02-21 10:50:00,33.1,32.3,28.79,ESE,110,0.0,4.0,97,0.00,,---,0.00,VWS V14.01,2013-02-21 15:50:00,
2013-02-21 10:51:00,33.1,32.3,28.79,ESE,110,3.6,4.0,97,0.00,,---,0.00,VWS V14.01,2013-02-21 15:51:00,
2013-02-21 10:52:00,33.3,32.5,28.79,ESE,110,0.0,4.0,97,0.00,,---,0.00,VWS V14.01,2013-02-21 15:52:00,
2013-02-21 10:53:00,33.3,32.5,28.79,ESE,110,0.0,2.7,97,0.00,,---,0.00,VWS V14.01,2013-02-21 15:53:00,
2013-02-21 10:54:00,33.3,32.5,28.79,ESE,110,0.0,0.0,97,0.00,,---,0.00,VWS V14.01,2013-02-21 15:54:00,
2013-02-21 10:55:00,24.8,7.9,29.26,East,85,4.0,6.3,48,0.00,,---,0.00,VWS V14.01,2013-02-21 15:55:00,
2013-02-21 10:56:00,33.3,32.5,28.79,ESE,110,0.0,3.6,97,0.00,,---,0.00,VWS V14.01,2013-02-21 15:56:00,
2013-02-21 10:57:00,33.3,32.5,28.79,ESE,110,2.7,2.7,97,0.00,,---,0.00,VWS V14.01,2013-02-21 15:57:00,
2013-02-21 10:58:00,33.4,32.7,28.79,ESE,110,2.7,3.6,97,0.00,,---,0.00,VWS V14.01,2013-02-21 15:58:00,
2013-02-21 10:59:00,33.4,32.7,28.79,ESE,110,0.0,4.5,97,0.00,,---,0.00,VWS V14.01,2013-02-21 15:59:00,
2013-02-21 11:00:00,24.8,7.4,29.26,ENE,71,5.4,6.3,47,0.00,,---,0.00,VWS V14.01,2013-02-21 16:00:00,
2013-02-21 11:01:00,33.4,32.7,28.79,ESE,110,3.6,4.0,97,0.00,,---,0.00,VWS V14.01,2013-02-21 16:01:00,
2013-02-21 11:02:00,33.4,32.7,28.79,ESE,110,0.0,4.5,97,0.00,,---,0.00,VWS V14.01,2013-02-21 16:02:00,
2013-02-21 11:03:00,33.6,32.9,28.79,ESE,110,2.7,3.6,97,0.00,,---,0.00,VWS V14.01,2013-02-21 16:03:00,
2013-02-21 11:04:00,33.6,32.9,28.79,ESE,110,0.0,2.7,97,0.00,,---,0.00,VWS V14.01,2013-02-21 16:04:00,
2013-02-21 11:05:00,25.2,7.3,29.26,ESE,110,5.8,5.8,46,0.00,,---,0.00,VWS V14.01,2013-02-21 16:05:00,
2013-02-21 11:06:00,33.6,32.9,28.79,ESE,110,0.0,2.7,97,0.00,,---,0.00,VWS V14.01,2013-02-21 16:06:00,
2013-02-21 11:08:00,33.8,33.0,28.79,ESE,110,3.1,4.0,97,0.00,,---,0.00,VWS V14.01,2013-02-21 16:08:00,
2013-02-21 11:09:00,33.8,33.0,28.79,ESE,110,0.0,3.6,97,0.00,,---,0.00,VWS V14.01,2013-02-21 16:09:00,
2013-02-21 11:10:00,33.8,33.0,28.79,ESE,110,0.0,0.0,97,0.00,,---,0.00,VWS V14.01,2013-02-21 16:10:00,
2013-02-21 11:11:00,25.5,7.6,29.26,SE,127,4.0,6.3,46,0.00,,---,0.00,VWS V14.01,2013-02-21 16:11:00,
2013-02-21 11:13:00,33.8,33.0,28.79,ESE,110,4.0,4.0,97,0.00,,---,0.00,VWS V14.01,2013-02-21 16:13:00,
2013-02-21 11:14:00,33.8,33.0,28.79,ESE,111,4.5,5.4,97,0.00,,---,0.00,VWS V14.01,2013-02-21 16:14:00,
2013-02-21 11:16:00,25.3,7.0,29.23,ENE,72,5.4,7.4,45,0.00,,---,0.00,VWS V14.01,2013-02-21 16:16:00,
2013-02-21 11:17:00,34.0,33.2,28.79,ESE,111,3.6,4.0,97,0.00,,---,0.00,VWS V14.01,2013-02-21 16:17:00,
2013-02-21 11:18:00,34.0,33.2,28.79,ESE,111,0.0,3.6,97,0.00,,---,0.00,VWS V14.01,2013-02-21 16:18:00,
2013-02-21 11:19:00,34.0,33.2,28.79,ESE,111,0.0,0.0,97,0.00,,---,0.00,VWS V14.01,2013-02-21 16:19:00,
2013-02-21 11:20:00,34.0,33.2,28.79,ESE,111,0.0,0.0,97,0.00,,---,0.00,VWS V14.01,2013-02-21 16:20:00,
2013-02-21 11:21:00,25.2,6.3,29.23,SE,132,4.0,6.7,44,0.00,,---,0.00,VWS V14.01,2013-02-21 16:21:00,
2013-02-21 11:22:00,34.2,33.4,28.79,ESE,111,0.0,0.0,97,0.00,,---,0.00,VWS V14.01,2013-02-21 16:22:00,
2013-02-21 11:23:00,34.2,33.4,28.79,ESE,111,0.0,0.0,97,0.00,,---,0.00,VWS V14.01,2013-02-21 16:23:00,
2013-02-21 11:24:00,34.2,33.4,28.79,ESE,111,0.0,2.7,97,0.00,,---,0.00,VWS V14.01,2013-02-21 16:24:00,
2013-02-21 11:25:00,34.3,33.6,28.79,ESE,111,3.1,4.0,97,0.00,,---,0.00,VWS V14.01,2013-02-21 16:25:00,
2013-02-21 11:26:00,34.3,33.6,28.79,ESE,111,3.6,3.6,97,0.00,,---,0.00,VWS V14.01,2013-02-21 16:26:00,
2013-02-21 11:27:00,25.2,6.3,29.26,East,101,5.4,6.7,44,0.00,,---,0.00,VWS V14.01,2013-02-21 16:27:00,
2013-02-21 11:28:00,34.3,33.6,28.79,SE,132,3.1,4.9,97,0.00,,---,0.00,VWS V14.01,2013-02-21 16:28:00,
2013-02-21 11:29:00,34.3,33.6,28.79,SE,132,0.0,4.5,97,0.00,,---,0.00,VWS V14.01,2013-02-21 16:29:00,
2013-02-21 11:30:00,34.3,33.6,28.79,SE,132,0.0,0.0,97,0.00,,---,0.00,VWS V14.01,2013-02-21 16:30:00,
2013-02-21 11:31:00,34.3,33.6,28.79,SE,132,0.0,0.0,97,0.00,,---,0.00,VWS V14.01,2013-02-21 16:31:00,
2013-02-21 11:32:00,34.5,33.8,28.79,SE,132,0.0,2.7,97,0.00,,---,0.00,VWS V14.01,2013-02-21 16:32:00,
2013-02-21 11:33:00,25.2,6.3,29.26,SE,135,8.3,8.3,44,0.00,,---,0.00,VWS V14.01,2013-02-21 16:33:00,
2013-02-21 11:34:00,34.5,33.8,28.79,SE,132,0.0,0.0,97,0.00,,---,0.00,VWS V14.01,2013-02-21 16:34:00,
2013-02-21 11:35:00,34.7,33.9,28.79,SE,132,3.1,3.1,97,0.00,,---,0.00,VWS V14.01,2013-02-21 16:35:00,
2013-02-21 11:36:00,34.7,33.9,28.79,SE,132,0.0,3.1,97,0.00,,---,0.00,VWS V14.01,2013-02-21 16:36:00,
2013-02-21 11:37:00,34.7,33.9,28.79,SE,132,0.0,0.0,97,0.00,,---,0.00,VWS V14.01,2013-02-21 16:37:00,
2013-02-21 11:38:00,34.9,34.1,28.79,SE,132,0.0,3.1,97,0.00,,---,0.00,VWS V14.01,2013-02-21 16:38:00,
2013-02-21 11:39:00,25.3,6.5,29.26,ESE,112,0.0,4.9,44,0.00,,---,0.00,VWS V14.01,2013-02-21 16:39:00,
2013-02-21 11:40:00,34.9,34.1,28.79,SE,132,0.0,0.0,97,0.00,,---,0.00,VWS V14.01,2013-02-21 16:40:00,
2013-02-21 11:41:00,35.1,34.3,28.79,SE,132,0.0,0.0,97,0.00,,---,0.00,VWS V14.01,2013-02-21 16:41:00,
2013-02-21 11:42:00,35.2,34.5,28.79,SE,132,0.0,0.0,97,0.00,,---,0.00,VWS V14.01,2013-02-21 16:42:00,
2013-02-21 11:43:00,35.2,34.5,28.79,SE,132,0.0,3.1,97,0.00,,---,0.00,VWS V14.01,2013-02-21 16:43:00,
2013-02-21 11:44:00,35.4,34.7,28.79,SE,132,0.0,0.0,97,0.00,,---,0.00,VWS V14.01,2013-02-21 16:44:00,
2013-02-21 11:45:00,35.4,34.7,28.79,SE,132,0.0,0.0,97,0.00,,---,0.00,VWS V14.01,2013-02-21 16:45:00,
2013-02-21 11:46:00,35.4,34.7,28.79,SE,132,0.0,3.1,97,0.00,,---,0.00,VWS V14.01,2013-02-21 16:46:00,
2013-02-21 11:47:00,35.6,34.8,28.79,SE,132,0.0,0.0,97,0.00,,---,0.00,VWS V14.01,2013-02-21 16:47:00,
2013-02-21 11:48:00,35.6,34.8,28.79,SE,132,0.0,0.0,97,0.00,,---,0.00,VWS V14.01,2013-02-21 16:48:00,
2013-02-21 11:49:00,35.6,34.8,28.79,SE,132,0.0,0.0,97,0.00,,---,0.00,VWS V14.01,2013-02-21 16:49:00,
2013-02-21 11:50:00,35.8,35.0,28.79,SE,132,0.0,0.0,97,0.00,,---,0.00,VWS V14.01,2013-02-21 16:50:00,
2013-02-21 11:51:00,35.8,35.0,28.79,SE,132,0.0,0.0,97,0.00,,---,0.00,VWS V14.01,2013-02-21 16:51:00,
2013-02-21 11:52:00,36.0,35.2,28.79,SSW,197,3.1,4.5,97,0.00,,---,0.00,VWS V14.01,2013-02-21 16:52:00,
2013-02-21 11:53:00,36.0,35.2,28.79,SW,222,0.0,5.4,97,0.00,,---,0.00,VWS V14.01,2013-02-21 16:53:00,
2013-02-21 11:54:00,36.0,35.2,28.79,SW,218,3.6,4.5,97,0.00,,---,0.00,VWS V14.01,2013-02-21 16:54:00,
2013-02-21 11:55:00,36.0,35.2,28.79,SW,217,3.1,3.6,97,0.00,,---,0.00,VWS V14.01,2013-02-21 16:55:00,
2013-02-21 11:56:00,36.1,35.4,28.79,SW,217,0.0,4.0,97,0.00,,---,0.00,VWS V14.01,2013-02-21 16:56:00,
2013-02-21 11:57:00,36.1,35.4,28.79,SW,217,2.7,2.7,97,0.00,,---,0.00,VWS V14.01,2013-02-21 16:57:00,
2013-02-21 11:58:00,36.1,35.4,28.79,SW,217,5.4,5.4,97,0.00,,---,0.00,VWS V14.01,2013-02-21 16:58:00,
2013-02-21 12:00:00,36.1,35.4,28.79,SW,216,2.7,2.7,97,0.00,,---,0.00,VWS V14.01,2013-02-21 17:00:00,
2013-02-21 12:01:00,36.1,35.4,28.79,SW,216,2.7,3.6,97,0.00,,---,0.00,VWS V14.01,2013-02-21 17:01:00,
2013-02-21 12:02:00,36.1,35.4,28.79,SW,217,3.6,4.5,97,0.00,,---,0.00,VWS V14.01,2013-02-21 17:02:00,
2013-02-21 12:03:00,36.1,35.4,28.79,SW,218,0.0,5.4,97,0.00,,---,0.00,VWS V14.01,2013-02-21 17:03:00,
2013-02-21 12:04:00,36.1,35.4,28.79,SW,218,0.0,3.6,97,0.00,,---,0.00,VWS V14.01,2013-02-21 17:04:00,
2013-02-21 12:05:00,36.1,35.4,28.79,SSW,210,3.6,6.3,97,0.00,,---,0.00,VWS V14.01,2013-02-21 17:05:00,
2013-02-21 12:06:00,36.1,35.4,28.82,South,185,4.9,4.9,97,0.00,,---,0.00,VWS V14.01,2013-02-21 17:06:00,
2013-02-21 12:07:00,36.1,35.4,28.82,SW,231,0.0,4.9,97,0.00,,---,0.00,VWS V14.01,2013-02-21 17:07:00,
2013-02-21 12:08:00,36.1,35.4,28.82,SW,216,3.6,4.0,97,0.00,,---,0.00,VWS V14.01,2013-02-21 17:08:00,
2013-02-21 12:09:00,36.1,35.4,28.82,SW,214,0.0,4.0,97,0.00,,---,0.00,VWS V14.01,2013-02-21 17:09:00,
2013-02-21 12:10:00,36.3,35.5,28.82,NE,41,3.1,3.6,97,0.00,,---,0.00,VWS V14.01,2013-02-21 17:10:00,
2013-02-21 12:11:00,36.1,35.4,28.82,SSW,212,4.0,7.8,97,0.00,,---,0.00,VWS V14.01,2013-02-21 17:11:00,
2013-02-21 12:12:00,36.1,35.4,28.82,SW,227,5.8,6.3,97,0.00,,---,0.00,VWS V14.01,2013-02-21 17:12:00,
2013-02-21 12:13:00,36.1,35.4,28.82,SW,230,4.9,6.3,97,0.00,,---,0.00,VWS V14.01,2013-02-21 17:13:00,
2013-02-21 12:14:00,36.1,35.4,28.82,SW,222,0.0,5.4,97,0.00,,---,0.00,VWS V14.01,2013-02-21 17:14:00,
2013-02-21 12:15:00,36.1,35.4,28.82,SW,217,3.1,4.9,97,0.00,,---,0.00,VWS V14.01,2013-02-21 17:15:00,
2013-02-21 12:16:00,36.3,35.5,28.82,SW,217,2.7,3.1,97,0.00,,---,0.00,VWS V14.01,2013-02-21 17:16:00,
2013-02-21 12:17:00,36.3,35.5,28.82,SW,214,4.9,5.8,97,0.00,,---,0.00,VWS V14.01,2013-02-21 17:17:00,
2013-02-21 12:18:00,36.3,35.5,28.82,SW,217,6.3,6.9,97,0.00,,---,0.00,VWS V14.01,2013-02-21 17:18:00,
2013-02-21 12:19:00,36.3,35.5,28.82,SSW,193,5.4,7.4,97,0.00,,---,0.00,VWS V14.01,2013-02-21 17:19:00,
2013-02-21 12:20:00,36.3,35.5,28.82,SW,226,0.0,5.8,97,0.00,,---,0.00,VWS V14.01,2013-02-21 17:20:00,
2013-02-21 12:21:00,36.3,35.5,28.82,SSW,206,4.5,6.3,97,0.00,,---,0.00,VWS V14.01,2013-02-21 17:21:00,
2013-02-21 12:22:00,36.3,35.5,28.82,SW,218,4.0,4.5,97,0.00,,---,0.00,VWS V14.01,2013-02-21 17:22:00,
2013-02-21 12:23:00,36.3,35.5,28.82,SSW,206,4.0,7.4,97,0.00,,---,0.00,VWS V14.01,2013-02-21 17:23:00,
2013-02-21 12:24:00,36.3,35.5,28.82,SW,218,3.6,5.4,97,0.00,,---,0.00,VWS V14.01,2013-02-21 17:24:00,
2013-02-21 12:25:00,36.3,35.5,28.82,SSW,209,4.9,5.8,97,0.00,,---,0.00,VWS V14.01,2013-02-21 17:25:00,
2013-02-21 12:26:00,36.5,35.7,28.82,SW,227,4.5,6.7,97,0.00,,---,0.00,VWS V14.01,2013-02-21 17:26:00,
2013-02-21 12:27:00,36.5,35.7,28.82,SSW,212,5.8,5.8,97,0.00,,---,0.00,VWS V14.01,2013-02-21 17:27:00,
2013-02-21 12:28:00,36.5,35.7,28.82,SW,221,4.5,5.8,97,0.00,,---,0.00,VWS V14.01,2013-02-21 17:28:00,
2013-02-21 12:29:00,36.5,35.7,28.82,SSW,207,4.5,8.3,97,0.00,,---,0.00,VWS V14.01,2013-02-21 17:29:00,
2013-02-21 12:30:00,36.5,35.7,28.82,SSW,211,3.1,4.5,97,0.00,,---,0.00,VWS V14.01,2013-02-21 17:30:00,
2013-02-21 12:31:00,36.5,35.7,28.82,SSW,206,6.9,7.4,97,0.00,,---,0.00,VWS V14.01,2013-02-21 17:31:00,
2013-02-21 12:32:00,36.7,35.9,28.82,SW,229,4.0,6.9,97,0.00,,---,0.00,VWS V14.01,2013-02-21 17:32:00,
2013-02-21 12:33:00,36.7,35.9,28.82,SSW,207,4.5,5.4,97,0.00,,---,0.00,VWS V14.01,2013-02-21 17:33:00,
2013-02-21 12:34:00,36.7,35.9,28.82,SW,234,6.3,6.3,97,0.00,,---,0.00,VWS V14.01,2013-02-21 17:34:00,
2013-02-21 12:35:00,36.7,35.9,28.82,SW,218,4.0,6.9,97,0.00,,---,0.00,VWS V14.01,2013-02-21 17:35:00,
2013-02-21 12:36:00,36.7,35.9,28.82,SW,216,4.5,4.5,97,0.00,,---,0.00,VWS V14.01,2013-02-21 17:36:00,
2013-02-21 12:37:00,36.7,35.9,28.82,SW,214,4.5,4.5,97,0.00,,---,0.00,VWS V14.01,2013-02-21 17:37:00,
2013-02-21 12:38:00,36.9,36.1,28.82,SW,229,5.4,6.7,97,0.00,,---,0.00,VWS V14.01,2013-02-21 17:38:00,
2013-02-21 12:39:00,36.9,36.1,28.82,SW,222,5.8,6.7,97,0.00,,---,0.00,VWS V14.01,2013-02-21 17:39:00,
2013-02-21 12:40:00,36.9,36.1,28.82,SW,216,4.0,5.8,97,0.00,,---,0.00,VWS V14.01,2013-02-21 17:40:00,
2013-02-21 12:41:00,36.9,36.1,28.82,WSW,238,3.6,6.9,97,0.00,,---,0.00,VWS V14.01,2013-02-21 17:41:00,
2013-02-21 12:42:00,36.9,36.1,28.82,SW,226,6.3,6.3,97,0.00,,---,0.00,VWS V14.01,2013-02-21 17:42:00,
2013-02-21 12:43:00,36.9,36.1,28.82,WNW,290,0.0,6.9,97,0.00,,---,0.00,VWS V14.01,2013-02-21 17:43:00,
2013-02-21 12:44:00,36.9,36.1,28.82,SW,219,3.6,6.3,97,0.00,,---,0.00,VWS V14.01,2013-02-21 17:44:00,
2013-02-21 12:45:00,36.9,36.1,28.82,SW,231,4.0,6.3,97,0.00,,---,0.00,VWS V14.01,2013-02-21 17:45:00,
2013-02-21 12:47:00,37.0,36.3,28.82,SSW,204,4.5,4.5,97,0.00,,---,0.00,VWS V14.01,2013-02-21 17:47:00,
2013-02-21 12:48:00,37.0,36.3,28.82,SW,221,4.5,5.8,97,0.00,,---,0.00,VWS V14.01,2013-02-21 17:48:00,
2013-02-21 12:49:00,37.0,36.3,28.82,SW,235,4.5,5.8,97,0.00,,---,0.00,VWS V14.01,2013-02-21 17:49:00,
2013-02-21 12:50:00,37.0,36.3,28.82,SW,226,2.7,5.4,97,0.00,,---,0.00,VWS V14.01,2013-02-21 17:50:00,
2013-02-21 12:51:00,37.2,36.5,28.82,WSW,241,8.7,8.7,97,0.00,,---,0.00,VWS V14.01,2013-02-21 17:51:00,
2013-02-21 12:53:00,37.2,36.5,28.82,SW,233,3.6,5.8,97,0.00,,---,0.00,VWS V14.01,2013-02-21 17:53:00,
2013-02-21 12:54:00,37.2,36.5,28.82,SW,222,6.7,7.4,97,0.00,,---,0.00,VWS V14.01,2013-02-21 17:54:00,
2013-02-21 12:55:00,37.2,36.5,28.82,WSW,254,4.0,6.7,97,0.00,,---,0.00,VWS V14.01,2013-02-21 17:55:00,
2013-02-21 12:56:00,37.2,36.5,28.82,SSW,206,5.8,7.4,97,0.00,,---,0.00,VWS V14.01,2013-02-21 17:56:00,
2013-02-21 12:57:00,37.2,36.5,28.82,SW,215,5.8,7.4,97,0.00,,---,0.00,VWS V14.01,2013-02-21 17:57:00,
2013-02-21 12:58:00,37.0,36.3,28.82,SW,230,6.3,9.2,97,0.00,,---,0.00,VWS V14.01,2013-02-21 17:58:00,
2013-02-21 12:59:00,37.0,36.3,28.82,WSW,245,3.1,7.8,97,0.00,,---,0.00,VWS V14.01,2013-02-21 17:59:00,
2013-02-21 13:00:00,37.0,36.3,28.82,SSW,205,6.3,6.3,97,0.00,,---,0.00,VWS V14.01,2013-02-21 18:00:00,
2013-02-21 13:01:00,37.0,36.3,28.82,SW,214,4.9,6.9,97,0.00,,---,0.00,VWS V14.01,2013-02-21 18:01:00,
2013-02-21 13:02:00,37.0,36.3,28.82,West,272,6.7,6.7,97,0.00,,---,0.00,VWS V14.01,2013-02-21 18:02:00,
2013-02-21 13:03:00,37.0,36.3,28.82,SW,234,3.1,7.4,97,0.00,,---,0.00,VWS V14.01,2013-02-21 18:03:00,
2013-02-21 13:04:00,37.0,36.3,28.82,WSW,258,4.0,5.4,97,0.00,,---,0.00,VWS V14.01,2013-02-21 18:04:00,
2013-02-21 13:05:00,37.0,36.3,28.82,SW,232,5.4,5.4,97,0.00,,---,0.00,VWS V14.01,2013-02-21 18:05:00,
2013-02-21 13:06:00,37.2,36.5,28.82,SSW,211,5.4,6.7,97,0.00,,---,0.00,VWS V14.01,2013-02-21 18:06:00,
2013-02-21 13:07:00,37.2,36.5,28.82,WSW,240,5.8,6.3,97,0.00,,---,0.00,VWS V14.01,2013-02-21 18:07:00,
2013-02-21 13:08:00,37.4,36.6,28.82,WSW,258,7.8,7.8,97,0.00,,---,0.00,VWS V14.01,2013-02-21 18:08:00,
2013-02-21 13:09:00,37.2,36.5,28.82,SW,227,7.4,10.5,97,0.00,,---,0.00,VWS V14.01,2013-02-21 18:09:00,
2013-02-21 13:10:00,37.2,36.5,28.82,WSW,242,7.8,8.3,97,0.00,,---,0.00,VWS V14.01,2013-02-21 18:10:00,
2013-02-21 13:11:00,37.0,36.3,28.82,SW,222,5.4,8.7,97,0.00,,---,0.00,VWS V14.01,2013-02-21 18:11:00,
2013-02-21 13:12:00,37.0,36.3,28.82,West,269,4.9,5.8,97,0.00,,---,0.00,VWS V14.01,2013-02-21 18:12:00,
2013-02-21 13:13:00,37.0,36.3,28.82,WSW,251,5.4,7.8,97,0.00,,---,0.00,VWS V14.01,2013-02-21 18:13:00,
2013-02-21 13:14:00,36.9,36.1,28.82,SSW,203,4.0,7.8,97,0.00,,---,0.00,VWS V14.01,2013-02-21 18:14:00,
2013-02-21 13:15:00,36.9,36.1,28.82,SW,230,4.9,6.3,97,0.00,,---,0.00,VWS V14.01,2013-02-21 18:15:00,
2013-02-21 13:16:00,36.9,36.1,28.82,West,259,5.8,6.9,97,0.00,,---,0.00,VWS V14.01,2013-02-21 18:16:00,
2013-02-21 13:17:00,27.3,8.3,29.21,ESE,108,8.7,9.6,44,0.00,,---,0.00,VWS V14.01,2013-02-21 18:17:00,
2013-02-21 13:18:00,37.0,36.3,28.82,SW,233,2.7,6.9,97,0.00,,---,0.00,VWS V14.01,2013-02-21 18:18:00,
2013-02-21 13:19:00,37.0,36.3,28.82,SW,219,8.3,8.3,97,0.00,,---,0.00,VWS V14.01,2013-02-21 18:19:00,
2013-02-21 13:20:00,37.0,36.3,28.82,SW,219,3.6,10.1,97,0.00,,---,0.00,VWS V14.01,2013-02-21 18:20:00,
2013-02-21 13:21:00,36.9,36.1,28.82,SW,229,7.8,12.5,97,0.00,,---,0.00,VWS V14.01,2013-02-21 18:21:00,
2013-02-21 13:22:00,28.0,8.4,29.21,East,98,5.4,9.2,43,0.00,,---,0.00,VWS V14.01,2013-02-21 18:22:00,
2013-02-21 13:23:00,36.9,36.1,28.82,SW,227,6.7,11.2,97,0.00,,---,0.00,VWS V14.01,2013-02-21 18:23:00,
2013-02-21 13:24:00,36.9,36.1,28.82,WSW,238,5.4,7.4,97,0.00,,---,0.00,VWS V14.01,2013-02-21 18:24:00,
2013-02-21 13:25:00,36.9,36.1,28.82,WSW,255,7.4,11.0,97,0.00,,---,0.00,VWS V14.01,2013-02-21 18:25:00,
2013-02-21 13:26:00,36.9,36.1,28.82,WSW,252,6.9,7.8,97,0.00,,---,0.00,VWS V14.01,2013-02-21 18:26:00,
2013-02-21 13:27:00,27.9,7.8,29.21,East,93,5.8,10.5,42,0.00,,---,0.00,VWS V14.01,2013-02-21 18:27:00,
2013-02-21 13:28:00,36.9,35.8,28.82,SW,227,6.3,7.4,96,0.00,,---,0.00,VWS V14.01,2013-02-21 18:28:00,
2013-02-21 13:29:00,36.9,35.8,28.82,West,268,6.9,8.3,96,0.00,,---,0.00,VWS V14.01,2013-02-21 18:29:00,
2013-02-21 13:30:00,36.7,35.7,28.82,West,279,5.4,13.4,96,0.00,,---,0.00,VWS V14.01,2013-02-21 18:30:00,
2013-02-21 13:31:00,36.9,35.8,28.82,SW,233,3.6,6.7,96,0.00,,---,0.00,VWS V14.01,2013-02-21 18:31:00,
2013-02-21 13:32:00,36.9,35.8,28.82,WSW,242,0.0,9.6,96,0.00,,---,0.00,VWS V14.01,2013-02-21 18:32:00,
2013-02-21 13:33:00,28.6,8.4,29.21,ENE,76,4.0,6.9,42,0.00,,---,0.00,VWS V14.01,2013-02-21 18:33:00,
2013-02-21 13:34:00,36.9,35.8,28.82,WSW,251,5.4,5.4,96,0.00,,---,0.00,VWS V14.01,2013-02-21 18:34:00,
2013-02-21 13:35:00,37.0,36.0,28.82,WSW,245,10.1,10.1,96,0.00,,---,0.00,VWS V14.01,2013-02-21 18:35:00,
2013-02-21 13:36:00,37.0,36.0,28.82,WSW,239,7.4,10.1,96,0.00,,---,0.00,VWS V14.01,2013-02-21 18:36:00,
2013-02-21 13:37:00,37.0,36.0,28.82,SSW,208,3.6,7.4,96,0.00,,---,0.00,VWS V14.01,2013-02-21 18:37:00,
2013-02-21 13:38:00,28.2,7.6,29.21,ESE,120,7.8,12.1,41,0.00,,---,0.00,VWS V14.01,2013-02-21 18:38:00,
2013-02-21 13:39:00,37.0,36.0,28.82,WSW,254,6.3,7.4,96,0.00,,---,0.00,VWS V14.01,2013-02-21 18:39:00,
2013-02-21 13:40:00,37.0,36.0,28.82,WSW,253,6.9,9.6,96,0.00,,---,0.00,VWS V14.01,2013-02-21 18:40:00,
2013-02-21 13:41:00,36.9,35.8,28.82,SW,225,6.3,7.4,96,0.00,,---,0.00,VWS V14.01,2013-02-21 18:41:00,
2013-02-21 13:42:00,36.9,35.8,28.82,WSW,252,6.9,9.6,96,0.00,,---,0.00,VWS V14.01,2013-02-21 18:42:00,
2013-02-21 13:44:00,37.0,36.0,28.82,SW,218,5.8,8.7,96,0.00,,---,0.00,VWS V14.01,2013-02-21 18:44:00,
2013-02-21 13:45:00,27.7,7.6,29.21,East,86,5.4,6.9,42,0.00,,---,0.00,VWS V14.01,2013-02-21 18:45:00,
2013-02-21 13:46:00,37.0,36.0,28.82,SW,236,4.0,10.1,96,0.00,,---,0.00,VWS V14.01,2013-02-21 18:46:00,
2013-02-21 13:47:00,37.0,36.0,28.82,SSW,205,5.8,8.7,96,0.00,,---,0.00,VWS V14.01,2013-02-21 18:47:00,
2013-02-21 13:48:00,37.0,36.0,28.82,SW,221,4.0,6.7,96,0.00,,---,0.00,VWS V14.01,2013-02-21 18:48:00,
2013-02-21 13:49:00,37.2,36.2,28.82,SSW,212,4.0,6.3,96,0.00,,---,0.00,VWS V14.01,2013-02-21 18:49:00,
2013-02-21 13:50:00,37.2,36.2,28.82,West,273,5.4,5.4,96,0.00,,---,0.00,VWS V14.01,2013-02-21 18:50:00,
2013-02-21 13:51:00,27.3,7.8,29.21,East,79,6.3,8.3,43,0.00,,---,0.00,VWS V14.01,2013-02-21 18:51:00,
2013-02-21 13:52:00,37.2,35.9,28.82,SW,233,6.7,10.1,95,0.00,,---,0.00,VWS V14.01,2013-02-21 18:52:00,
2013-02-21 13:53:00,37.0,35.7,28.82,WSW,255,6.3,9.2,95,0.00,,---,0.00,VWS V14.01,2013-02-21 18:53:00,
2013-02-21 13:54:00,37.0,35.7,28.82,SW,224,5.4,6.9,95,0.00,,---,0.00,VWS V14.01,2013-02-21 18:54:00,
2013-02-21 13:55:00,37.0,35.7,28.82,WSW,242,4.5,9.2,95,0.00,,---,0.00,VWS V14.01,2013-02-21 18:55:00,
2013-02-21 13:56:00,27.3,7.8,29.21,ENE,64,5.8,6.9,43,0.00,,---,0.00,VWS V14.01,2013-02-21 18:56:00,
2013-02-21 13:57:00,37.2,35.9,28.82,WSW,258,6.3,6.7,95,0.00,,---,0.00,VWS V14.01,2013-02-21 18:57:00,
2013-02-21 13:58:00,37.2,35.9,28.82,WSW,239,4.0,8.3,95,0.00,,---,0.00,VWS V14.01,2013-02-21 18:58:00,
2013-02-21 13:59:00,37.4,36.1,28.82,WSW,246,10.5,10.5,95,0.04,,---,0.04,VWS V14.01,2013-02-21 18:59:00,
2013-02-21 14:01:00,27.7,8.1,29.18,ENE,59,5.4,6.9,43,0.00,,---,0.00,VWS V14.01,2013-02-21 19:01:00,
2013-02-21 14:02:00,37.2,35.7,28.82,SW,225,5.8,5.8,94,0.04,,---,0.04,VWS V14.01,2013-02-21 19:02:00,
2013-02-21 14:03:00,37.2,35.7,28.82,SW,233,3.1,7.4,94,0.04,,---,0.04,VWS V14.01,2013-02-21 19:03:00,
2013-02-21 14:04:00,37.4,35.8,28.82,SW,234,8.3,8.3,94,0.04,,---,0.04,VWS V14.01,2013-02-21 19:04:00,
2013-02-21 14:05:00,37.4,35.8,28.82,West,272,3.1,11.2,94,0.04,,---,0.04,VWS V14.01,2013-02-21 19:05:00,
2013-02-21 14:06:00,37.4,35.8,28.82,SSW,209,4.9,6.3,94,0.04,,---,0.04,VWS V14.01,2013-02-21 19:06:00,
2013-02-21 14:07:00,27.7,8.1,29.18,ENE,77,7.4,9.2,43,0.00,,---,0.00,VWS V14.01,2013-02-21 19:07:00,
2013-02-21 14:08:00,37.4,35.6,28.82,WSW,250,7.4,8.7,93,0.04,,---,0.04,VWS V14.01,2013-02-21 19:08:00,
2013-02-21 14:09:00,37.0,35.2,28.82,WSW,247,8.7,10.5,93,0.04,,---,0.04,VWS V14.01,2013-02-21 19:09:00,
2013-02-21 14:10:00,37.0,35.2,28.82,West,274,7.4,8.7,93,0.04,,---,0.04,VWS V14.01,2013-02-21 19:10:00,
2013-02-21 14:11:00,37.0,35.2,28.82,WSW,241,3.1,7.4,93,0.04,,---,0.04,VWS V14.01,2013-02-21 19:11:00,
2013-02-21 14:12:00,37.0,35.2,28.82,SW,230,6.3,6.9,93,0.04,,---,0.04,VWS V14.01,2013-02-21 19:12:00,
2013-02-21 14:13:00,27.7,8.1,29.18,ESE,122,5.8,7.4,43,0.00,,---,0.00,VWS V14.01,2013-02-21 19:13:00,
2013-02-21 14:14:00,37.0,34.9,28.82,WSW,239,6.7,12.1,92,0.08,,---,0.08,VWS V14.01,2013-02-21 19:14:00,
2013-02-21 14:15:00,36.9,34.8,28.82,SW,226,6.3,8.3,92,0.08,,---,0.08,VWS V14.01,2013-02-21 19:15:00,
2013-02-21 14:16:00,36.9,34.8,28.82,WSW,241,8.3,11.0,92,0.08,,---,0.08,VWS V14.01,2013-02-21 19:16:00,
2013-02-21 14:17:00,36.9,34.5,28.82,West,274,8.7,10.5,91,0.08,,---,0.08,VWS V14.01,2013-02-21 19:17:00,
2013-02-21 14:18:00,36.7,34.3,28.82,SW,219,5.4,9.6,91,0.08,,---,0.08,VWS V14.01,2013-02-21 19:18:00,
2013-02-21 14:19:00,27.5,7.9,29.18,East,90,8.3,10.1,43,0.00,,---,0.00,VWS V14.01,2013-02-21 19:19:00,
2013-02-21 14:20:00,36.9,34.5,28.82,West,279,5.4,8.7,91,0.08,,---,0.08,VWS V14.01,2013-02-21 19:20:00,
2013-02-21 14:21:00,36.9,34.5,28.82,WSW,258,4.0,5.8,91,0.08,,---,0.08,VWS V14.01,2013-02-21 19:21:00,
2013-02-21 14:22:00,36.9,34.5,28.82,WNW,285,11.0,11.0,91,0.08,,---,0.08,VWS V14.01,2013-02-21 19:22:00,
2013-02-21 14:23:00,36.9,34.5,28.82,WSW,254,6.9,11.0,91,0.08,,---,0.08,VWS V14.01,2013-02-21 19:23:00,
2013-02-21 14:24:00,27.3,7.8,29.18,East,98,7.8,11.0,43,0.00,,---,0.00,VWS V14.01,2013-02-21 19:24:00,
2013-02-21 14:25:00,36.9,34.5,28.82,WSW,258,10.1,10.5,91,0.08,,---,0.08,VWS V14.01,2013-02-21 19:25:00,
2013-02-21 14:26:00,36.9,34.5,28.82,SSW,205,6.9,11.0,91,0.08,,---,0.08,VWS V14.01,2013-02-21 19:26:00,
2013-02-21 14:27:00,36.9,34.5,28.82,West,269,3.6,7.8,91,0.08,,---,0.08,VWS V14.01,2013-02-21 19:27:00,
2013-02-21 14:28:00,36.9,34.5,28.82,SW,232,4.9,8.3,91,0.08,,---,0.08,VWS V14.01,2013-02-21 19:28:00,
2013-02-21 14:29:00,28.0,8.9,29.15,ENE,75,9.2,10.5,44,0.00,,---,0.00,VWS V14.01,2013-02-21 19:29:00,
2013-02-21 14:30:00,36.9,34.5,28.82,SSW,212,6.3,7.8,91,0.08,,---,0.08,VWS V14.01,2013-02-21 19:30:00,
2013-02-21 14:31:00,36.7,34.3,28.82,West,259,8.7,11.2,91,0.08,,---,0.08,VWS V14.01,2013-02-21 19:31:00,
2013-02-21 14:32:00,36.7,34.0,28.82,West,277,6.9,8.7,90,0.08,,---,0.08,VWS V14.01,2013-02-21 19:32:00,
2013-02-21 14:33:00,36.9,34.2,28.82,West,267,4.5,6.9,90,0.08,,---,0.08,VWS V14.01,2013-02-21 19:33:00,
2013-02-21 14:34:00,27.7,8.1,29.15,SE,125,11.0,11.0,43,0.00,,---,0.00,VWS V14.01,2013-02-21 19:34:00,
2013-02-21 14:35:00,36.7,34.0,28.82,WSW,245,7.8,10.5,90,0.08,,---,0.08,VWS V14.01,2013-02-21 19:35:00,
2013-02-21 14:36:00,36.7,34.0,28.82,West,270,4.5,10.1,90,0.16,,---,0.16,VWS V14.01,2013-02-21 19:36:00,
2013-02-21 14:37:00,36.7,34.0,28.82,WSW,239,4.9,8.3,90,0.16,,---,0.16,VWS V14.01,2013-02-21 19:37:00,
2013-02-21 14:38:00,36.7,34.0,28.82,WNW,288,8.3,8.3,90,0.16,,---,0.16,VWS V14.01,2013-02-21 19:38:00,
2013-02-21 14:39:00,27.7,8.1,29.15,ENE,70,8.3,10.5,43,0.00,,---,0.00,VWS V14.01,2013-02-21 19:39:00,
2013-02-21 14:44:00,28.0,8.9,29.12,ESE,105,6.9,8.3,44,0.00,,---,0.00,VWS V14.01,2013-02-21 19:44:00,
2013-02-21 14:47:00,36.5,34.1,28.82,SW,215,4.5,11.6,91,0.16,,---,0.16,VWS V14.01,2013-02-21 19:47:00,
2013-02-21 14:48:00,36.5,34.1,28.82,WSW,248,6.3,6.3,91,0.16,,---,0.16,VWS V14.01,2013-02-21 19:48:00,
2013-02-21 14:49:00,36.5,34.1,28.82,West,271,5.8,9.2,91,0.16,,---,0.16,VWS V14.01,2013-02-21 19:49:00,
2013-02-21 14:50:00,28.0,8.4,29.12,ESE,116,14.8,14.8,43,0.00,,---,0.00,VWS V14.01,2013-02-21 19:50:00,
2013-02-21 14:51:00,36.3,34.0,28.82,WSW,237,4.9,9.2,91,0.16,,---,0.16,VWS V14.01,2013-02-21 19:51:00,
2013-02-21 14:52:00,36.3,34.0,28.82,West,270,3.6,6.3,91,0.16,,---,0.16,VWS V14.01,2013-02-21 19:52:00,
2013-02-21 14:53:00,36.5,34.4,28.82,SSW,208,5.8,5.8,92,0.16,,---,0.16,VWS V14.01,2013-02-21 19:53:00,
2013-02-21 14:54:00,36.5,34.4,28.82,SW,214,4.9,8.7,92,0.16,,---,0.16,VWS V14.01,2013-02-21 19:54:00,
2013-02-21 14:55:00,27.5,7.9,29.12,East,93,8.7,13.9,43,0.00,,---,0.00,VWS V14.01,2013-02-21 19:55:00,
2013-02-21 14:56:00,36.5,34.1,28.82,West,268,6.3,6.9,91,0.16,,---,0.16,VWS V14.01,2013-02-21 19:56:00,
2013-02-21 14:57:00,36.7,34.3,28.82,West,279,5.8,8.7,91,0.16,,---,0.16,VWS V14.01,2013-02-21 19:57:00,
2013-02-21 14:58:00,36.7,34.6,28.82,SW,224,4.5,6.3,92,0.16,,---,0.16,VWS V14.01,2013-02-21 19:58:00,
2013-02-21 14:59:00,36.7,34.6,28.82,SW,217,8.3,11.0,92,0.16,,---,0.16,VWS V14.01,2013-02-21 19:59:00,
2013-02-21 15:00:00,27.3,8.3,29.12,SE,131,7.8,11.6,44,0.00,,---,0.00,VWS V14.01,2013-02-21 20:00:00,
2013-02-21 15:01:00,36.5,34.4,28.82,WSW,258,7.4,9.2,92,0.12,,---,0.16,VWS V14.01,2013-02-21 20:01:00,
2013-02-21 15:02:00,36.3,34.2,28.82,SW,235,9.2,13.0,92,0.12,,---,0.16,VWS V14.01,2013-02-21 20:02:00,
2013-02-21 15:03:00,36.3,34.2,28.82,SW,224,7.4,10.5,92,0.12,,---,0.16,VWS V14.01,2013-02-21 20:03:00,
2013-02-21 15:04:00,36.3,34.2,28.82,South,182,7.8,7.8,92,0.12,,---,0.16,VWS V14.01,2013-02-21 20:04:00,
2013-02-21 15:05:00,27.0,8.0,29.12,East,86,8.7,8.7,44,0.00,,---,0.00,VWS V14.01,2013-02-21 20:05:00,
2013-02-21 15:06:00,36.3,34.2,28.82,SW,224,5.8,10.1,92,0.12,,---,0.16,VWS V14.01,2013-02-21 20:06:00,
2013-02-21 15:07:00,36.3,34.2,28.82,SW,219,6.7,8.3,92,0.12,,---,0.16,VWS V14.01,2013-02-21 20:07:00,
2013-02-21 15:08:00,36.5,34.4,28.82,WSW,249,2.7,6.7,92,0.16,,---,0.20,VWS V14.01,2013-02-21 20:08:00,
2013-02-21 15:09:00,36.3,34.2,28.82,WSW,250,4.0,6.3,92,0.16,,---,0.20,VWS V14.01,2013-02-21 20:09:00,
2013-02-21 15:10:00,36.5,34.4,28.82,WSW,258,0.0,6.9,92,0.16,,---,0.20,VWS V14.01,2013-02-21 20:10:00,
2013-02-21 15:11:00,27.1,8.6,29.12,ESE,115,8.3,8.3,45,0.00,,---,0.00,VWS V14.01,2013-02-21 20:11:00,
2013-02-21 15:14:00,36.3,34.2,28.82,WSW,243,9.2,9.2,92,0.16,,---,0.20,VWS V14.01,2013-02-21 20:14:00,
2013-02-21 15:15:00,36.3,34.2,28.82,West,261,11.2,13.4,92,0.12,,---,0.20,VWS V14.01,2013-02-21 20:15:00,
2013-02-21 15:16:00,27.0,8.9,29.15,ESE,114,8.7,11.2,46,0.00,,---,0.00,VWS V14.01,2013-02-21 20:16:00,
2013-02-21 15:17:00,36.1,34.0,28.82,WSW,239,8.7,11.2,92,0.12,,---,0.20,VWS V14.01,2013-02-21 20:17:00,
2013-02-21 15:18:00,36.1,34.0,28.82,SSW,212,7.8,11.2,92,0.12,,---,0.20,VWS V14.01,2013-02-21 20:18:00,
2013-02-21 15:19:00,36.1,34.0,28.82,WSW,252,5.8,8.3,92,0.12,,---,0.20,VWS V14.01,2013-02-21 20:19:00,
2013-02-21 15:20:00,36.1,34.0,28.82,South,183,6.3,6.3,92,0.12,,---,0.20,VWS V14.01,2013-02-21 20:20:00,
2013-02-21 15:21:00,27.1,9.1,29.15,ESE,115,8.7,10.1,46,0.00,,---,0.00,VWS V14.01,2013-02-21 20:21:00,
2013-02-21 15:22:00,36.0,33.9,28.82,West,274,10.1,14.8,92,0.12,,---,0.20,VWS V14.01,2013-02-21 20:22:00,
2013-02-21 15:23:00,36.0,33.9,28.82,WSW,247,4.9,11.6,92,0.12,,---,0.20,VWS V14.01,2013-02-21 20:23:00,
2013-02-21 15:24:00,36.0,33.9,28.82,SW,235,6.3,11.2,92,0.12,,---,0.20,VWS V14.01,2013-02-21 20:24:00,
2013-02-21 15:25:00,35.8,33.7,28.82,WSW,252,3.6,8.3,92,0.12,,---,0.20,VWS V14.01,2013-02-21 20:25:00,
2013-02-21 15:26:00,26.6,8.6,29.15,ESE,109,7.8,14.3,46,0.00,,---,0.00,VWS V14.01,2013-02-21 20:26:00,
2013-02-21 15:27:00,35.8,33.7,28.82,SW,234,5.4,9.6,92,0.12,,---,0.20,VWS V14.01,2013-02-21 20:27:00,
2013-02-21 15:28:00,35.8,33.7,28.82,WSW,254,7.4,10.5,92,0.12,,---,0.20,VWS V14.01,2013-02-21 20:28:00,
2013-02-21 15:29:00,35.8,33.7,28.82,West,261,3.6,7.4,92,0.12,,---,0.20,VWS V14.01,2013-02-21 20:29:00,
2013-02-21 15:30:00,35.8,33.7,28.82,SW,232,4.0,5.4,92,0.12,,---,0.20,VWS V14.01,2013-02-21 20:30:00,
2013-02-21 15:31:00,26.8,9.3,29.12,ESE,106,7.4,10.1,47,0.00,,---,0.00,VWS V14.01,2013-02-21 20:31:00,
2013-02-21 15:32:00,35.8,33.7,28.82,West,278,8.7,12.1,92,0.12,,---,0.20,VWS V14.01,2013-02-21 20:32:00,
2013-02-21 15:33:00,35.6,33.8,28.82,WSW,254,6.7,9.2,93,0.12,,---,0.20,VWS V14.01,2013-02-21 20:33:00,
2013-02-21 15:34:00,35.6,33.8,28.82,WSW,244,6.9,7.4,93,0.12,,---,0.20,VWS V14.01,2013-02-21 20:34:00,
2013-02-21 15:35:00,35.6,33.8,28.82,WSW,250,2.7,7.8,93,0.12,,---,0.20,VWS V14.01,2013-02-21 20:35:00,
2013-02-21 15:36:00,26.6,9.1,29.12,ESE,105,8.3,13.4,47,0.00,,---,0.00,VWS V14.01,2013-02-21 20:36:00,
2013-02-21 15:37:00,35.6,33.8,28.82,SW,225,5.8,10.5,93,0.04,,---,0.20,VWS V14.01,2013-02-21 20:37:00,
2013-02-21 15:38:00,35.6,33.8,28.82,West,266,9.2,10.5,93,0.04,,---,0.20,VWS V14.01,2013-02-21 20:38:00,
2013-02-21 15:39:00,35.6,33.8,28.82,WSW,258,6.7,9.2,93,0.04,,---,0.20,VWS V14.01,2013-02-21 20:39:00,
2013-02-21 15:40:00,35.6,33.8,28.82,SSW,193,6.9,8.7,93,0.04,,---,0.20,VWS V14.01,2013-02-21 20:40:00,
2013-02-21 15:41:00,26.4,9.4,29.12,East,93,7.4,12.1,48,0.00,,---,0.00,VWS V14.01,2013-02-21 20:41:00,
2013-02-21 15:42:00,35.6,34.0,28.82,West,279,6.3,6.3,94,0.04,,---,0.20,VWS V14.01,2013-02-21 20:42:00,
2013-02-21 15:43:00,35.6,34.0,28.82,West,266,5.4,6.9,94,0.04,,---,0.20,VWS V14.01,2013-02-21 20:43:00,
2013-02-21 15:44:00,35.6,34.0,28.82,WSW,254,5.4,7.8,94,0.04,,---,0.20,VWS V14.01,2013-02-21 20:44:00,
2013-02-21 15:45:00,35.6,34.0,28.82,West,270,5.8,10.1,94,0.04,,---,0.20,VWS V14.01,2013-02-21 20:45:00,
2013-02-21 15:46:00,26.2,9.2,29.12,ESE,105,11.2,13.0,48,0.00,,---,0.00,VWS V14.01,2013-02-21 20:46:00,
2013-02-21 15:47:00,35.6,34.0,28.82,SW,226,7.4,11.0,94,0.04,,---,0.20,VWS V14.01,2013-02-21 20:47:00,
2013-02-21 15:48:00,35.6,34.0,28.82,WSW,245,4.0,8.7,94,0.04,,---,0.20,VWS V14.01,2013-02-21 20:48:00,
2013-02-21 15:49:00,35.6,34.0,28.82,WSW,251,5.8,10.5,94,0.04,,---,0.20,VWS V14.01,2013-02-21 20:49:00,
2013-02-21 15:50:00,35.6,34.0,28.82,SW,223,6.3,9.2,94,0.04,,---,0.20,VWS V14.01,2013-02-21 20:50:00,
2013-02-21 15:51:00,26.2,10.1,29.12,ENE,65,6.9,9.2,50,0.00,,---,0.00,VWS V14.01,2013-02-21 20:51:00,
2013-02-21 15:52:00,35.6,34.3,28.82,WSW,253,3.6,8.7,95,0.04,,---,0.20,VWS V14.01,2013-02-21 20:52:00,
2013-02-21 15:53:00,35.6,34.3,28.82,WSW,244,5.8,5.8,95,0.04,,---,0.20,VWS V14.01,2013-02-21 20:53:00,
2013-02-21 15:54:00,35.6,34.3,28.82,WSW,244,9.6,9.6,95,0.04,,---,0.20,VWS V14.01,2013-02-21 20:54:00,
2013-02-21 15:55:00,35.6,34.3,28.82,West,274,10.5,10.5,95,0.04,,---,0.20,VWS V14.01,2013-02-21 20:55:00,
2013-02-21 15:56:00,26.6,10.9,29.12,East,97,11.6,11.6,51,0.00,,---,0.00,VWS V14.01,2013-02-21 20:56:00,
2013-02-21 15:57:00,35.4,34.1,28.82,WSW,252,5.8,8.3,95,0.04,,---,0.20,VWS V14.01,2013-02-21 20:57:00,
2013-02-21 15:58:00,35.4,34.1,28.82,WSW,257,4.0,5.8,95,0.04,,---,0.20,VWS V14.01,2013-02-21 20:58:00,
2013-02-21 15:59:00,35.4,34.1,28.82,West,274,5.4,8.3,95,0.04,,---,0.20,VWS V14.01,2013-02-21 20:59:00,
2013-02-21 16:00:00,35.6,34.3,28.82,West,281,4.9,11.0,95,0.04,,---,0.20,VWS V14.01,2013-02-21 21:00:00,
2013-02-21 16:01:00,27.0,10.8,29.12,East,99,8.7,12.1,50,0.00,,---,0.00,VWS V14.01,2013-02-21 21:01:00,
2013-02-21 16:02:00,35.6,34.3,28.82,SW,223,4.5,7.8,95,0.04,,---,0.20,VWS V14.01,2013-02-21 21:02:00,
2013-02-21 16:03:00,35.6,34.3,28.82,WSW,248,6.7,9.2,95,0.04,,---,0.20,VWS V14.01,2013-02-21 21:03:00,
2013-02-21 16:04:00,35.6,34.3,28.82,West,270,7.8,7.8,95,0.04,,---,0.20,VWS V14.01,2013-02-21 21:04:00,
2013-02-21 16:05:00,35.4,34.1,28.82,WNW,282,10.5,12.5,95,0.04,,---,0.20,VWS V14.01,2013-02-21 21:05:00,
2013-02-21 16:06:00,26.8,10.2,29.12,ENE,68,6.9,11.0,49,0.00,,---,0.00,VWS V14.01,2013-02-21 21:06:00,
2013-02-21 16:07:00,35.4,34.1,28.82,West,269,7.4,11.0,95,0.04,,---,0.20,VWS V14.01,2013-02-21 21:07:00,
2013-02-21 16:08:00,35.4,34.1,28.82,West,259,11.2,13.0,95,0.04,,---,0.20,VWS V14.01,2013-02-21 21:08:00,
2013-02-21 16:09:00,35.4,34.1,28.82,SW,217,5.8,11.6,95,0.00,,---,0.20,VWS V14.01,2013-02-21 21:09:00,
2013-02-21 16:10:00,35.4,34.1,28.82,WSW,249,8.7,8.7,95,0.00,,---,0.20,VWS V14.01,2013-02-21 21:10:00,
2013-02-21 16:11:00,35.4,34.1,28.82,SW,220,3.1,8.7,95,0.00,,---,0.20,VWS V14.01,2013-02-21 21:11:00,
2013-02-21 16:12:00,26.4,9.4,29.15,SE,133,9.2,11.0,48,0.00,,---,0.00,VWS V14.01,2013-02-21 21:12:00,
2013-02-21 16:13:00,35.4,34.1,28.82,WSW,239,6.3,8.3,95,0.00,,---,0.20,VWS V14.01,2013-02-21 21:13:00,
2013-02-21 16:14:00,35.4,34.1,28.82,WSW,258,2.7,6.3,95,0.00,,---,0.20,VWS V14.01,2013-02-21 21:14:00,
2013-02-21 16:15:00,35.4,34.1,28.82,SW,235,7.4,7.4,95,0.00,,---,0.20,VWS V14.01,2013-02-21 21:15:00,
2013-02-21 16:16:00,35.4,34.1,28.82,WSW,249,0.0,7.4,95,0.00,,---,0.20,VWS V14.01,2013-02-21 21:16:00,
2013-02-21 16:17:00,26.4,9.9,29.15,East,89,5.4,9.2,49,0.00,,---,0.00,VWS V14.01,2013-02-21 21:17:00,
2013-02-21 16:18:00,35.4,34.1,28.82,West,261,5.8,6.9,95,0.00,,---,0.20,VWS V14.01,2013-02-21 21:18:00,
2013-02-21 16:19:00,35.4,34.1,28.82,WSW,252,7.4,7.4,95,0.00,,---,0.20,VWS V14.01,2013-02-21 21:19:00,
2013-02-21 16:20:00,35.4,34.1,28.82,West,270,5.8,9.2,95,0.00,,---,0.20,VWS V14.01,2013-02-21 21:20:00,
2013-02-21 16:21:00,35.2,34.0,28.85,SW,234,4.9,10.5,95,0.00,,---,0.20,VWS V14.01,2013-02-21 21:21:00,
2013-02-21 16:22:00,26.6,10.0,29.15,East,94,7.8,8.3,49,0.00,,---,0.00,VWS V14.01,2013-02-21 21:22:00,
2013-02-21 16:23:00,35.2,34.0,28.85,SW,234,6.7,8.7,95,0.00,,---,0.20,VWS V14.01,2013-02-21 21:23:00,
2013-02-21 16:24:00,35.2,34.0,28.85,WSW,246,5.4,6.9,95,0.00,,---,0.20,VWS V14.01,2013-02-21 21:24:00,
2013-02-21 16:25:00,35.2,34.0,28.85,WSW,245,10.1,11.2,95,0.00,,---,0.20,VWS V14.01,2013-02-21 21:25:00,
2013-02-21 16:26:00,35.2,34.0,28.85,SW,227,5.8,11.0,95,0.00,,---,0.20,VWS V14.01,2013-02-21 21:26:00,
2013-02-21 16:27:00,26.6,10.0,29.18,ESE,119,6.7,8.3,49,0.00,,---,0.00,VWS V14.01,2013-02-21 21:27:00,
2013-02-21 16:28:00,35.1,33.8,28.85,WSW,244,7.4,14.8,95,0.00,,---,0.20,VWS V14.01,2013-02-21 21:28:00,
2013-02-21 16:29:00,35.1,33.8,28.85,SW,231,4.0,8.7,95,0.00,,---,0.20,VWS V14.01,2013-02-21 21:29:00,
2013-02-21 16:30:00,35.1,33.8,28.85,West,276,6.7,9.6,95,0.00,,---,0.20,VWS V14.01,2013-02-21 21:30:00,
2013-02-21 16:31:00,35.1,33.8,28.85,SW,230,7.4,12.5,95,0.00,,---,0.20,VWS V14.01,2013-02-21 21:31:00,
2013-02-21 16:32:00,26.6,10.5,29.18,SE,127,6.9,7.8,50,0.00,,---,0.00,VWS V14.01,2013-02-21 21:32:00,
2013-02-21 16:33:00,35.1,33.8,28.85,WSW,248,9.2,9.2,95,0.00,,---,0.20,VWS V14.01,2013-02-21 21:33:00,
2013-02-21 16:34:00,35.1,33.8,28.85,West,277,6.7,9.6,95,0.00,,---,0.20,VWS V14.01,2013-02-21 21:34:00,
2013-02-21 16:35:00,35.1,33.8,28.85,WSW,237,3.6,6.9,95,0.00,,---,0.20,VWS V14.01,2013-02-21 21:35:00,
2013-02-21 16:36:00,35.1,33.5,28.85,SW,225,6.3,6.7,94,0.00,,---,0.20,VWS V14.01,2013-02-21 21:36:00,
2013-02-21 16:37:00,26.2,10.1,29.18,ESE,102,6.7,9.6,50,0.00,,---,0.00,VWS V14.01,2013-02-21 21:37:00,
2013-02-21 16:38:00,35.1,33.5,28.85,WSW,258,6.3,11.2,94,0.00,,---,0.20,VWS V14.01,2013-02-21 21:38:00,
2013-02-21 16:39:00,35.1,33.5,28.85,WSW,241,9.2,9.2,94,0.00,,---,0.20,VWS V14.01,2013-02-21 21:39:00,
2013-02-21 16:40:00,35.1,33.5,28.85,WSW,251,11.0,12.5,94,0.00,,---,0.20,VWS V14.01,2013-02-21 21:40:00,
2013-02-21 16:41:00,35.1,33.5,28.85,WSW,241,10.5,13.0,94,0.00,,---,0.20,VWS V14.01,2013-02-21 21:41:00,
2013-02-21 16:42:00,35.1,33.5,28.85,West,280,6.9,10.5,94,0.00,,---,0.20,VWS V14.01,2013-02-21 21:42:00,
2013-02-21 16:43:00,26.2,10.1,29.18,ESE,118,8.7,10.5,50,0.00,,---,0.00,VWS V14.01,2013-02-21 21:43:00,
2013-02-21 16:44:00,35.1,33.5,28.85,West,267,6.3,13.9,94,0.00,,---,0.20,VWS V14.01,2013-02-21 21:44:00,
2013-02-21 16:45:00,35.1,33.5,28.85,West,273,7.8,8.7,94,0.00,,---,0.20,VWS V14.01,2013-02-21 21:45:00,
2013-02-21 16:46:00,35.1,33.5,28.85,West,262,7.4,7.8,94,0.00,,---,0.20,VWS V14.01,2013-02-21 21:46:00,
2013-02-21 16:47:00,35.1,33.5,28.85,West,261,6.7,7.8,94,0.00,,---,0.20,VWS V14.01,2013-02-21 21:47:00,
2013-02-21 16:48:00,26.1,10.0,29.18,SE,124,6.7,8.3,50,0.00,,---,0.00,VWS V14.01,2013-02-21 21:48:00,
2013-02-21 16:49:00,35.1,33.5,28.85,West,261,9.2,11.6,94,0.00,,---,0.20,VWS V14.01,2013-02-21 21:49:00,
2013-02-21 16:50:00,35.1,33.5,28.85,West,267,9.2,13.0,94,0.00,,---,0.20,VWS V14.01,2013-02-21 21:50:00,
2013-02-21 16:51:00,35.1,33.5,28.85,SW,235,11.2,11.2,94,0.00,,---,0.20,VWS V14.01,2013-02-21 21:51:00,
2013-02-21 16:52:00,34.9,33.1,28.85,SW,223,4.9,12.1,93,0.00,,---,0.20,VWS V14.01,2013-02-21 21:52:00,
2013-02-21 16:53:00,34.9,33.1,28.85,WSW,256,13.4,13.4,93,0.00,,---,0.20,VWS V14.01,2013-02-21 21:53:00,
2013-02-21 16:54:00,26.2,10.6,29.18,ESE,114,8.3,9.6,51,0.00,,---,0.00,VWS V14.01,2013-02-21 21:54:00,
2013-02-21 16:55:00,34.9,33.1,28.85,West,281,6.7,7.4,93,0.00,,---,0.20,VWS V14.01,2013-02-21 21:55:00,
2013-02-21 16:56:00,34.9,33.1,28.85,WSW,252,5.4,8.3,93,0.00,,---,0.20,VWS V14.01,2013-02-21 21:56:00,
2013-02-21 16:57:00,34.9,33.1,28.85,West,272,4.9,8.7,93,0.00,,---,0.20,VWS V14.01,2013-02-21 21:57:00,
2013-02-21 16:58:00,34.9,33.1,28.85,West,263,2.7,7.4,93,0.00,,---,0.20,VWS V14.01,2013-02-21 21:58:00,
2013-02-21 16:59:00,26.2,11.0,29.18,SSE,149,5.8,8.3,52,0.00,,---,0.00,VWS V14.01,2013-02-21 21:59:00,
2013-02-21 17:00:00,34.9,33.1,28.85,SW,235,9.2,10.1,93,0.00,,---,0.20,VWS V14.01,2013-02-21 22:00:00,
2013-02-21 17:01:00,34.9,33.1,28.85,WSW,255,8.3,9.2,93,0.00,,---,0.20,VWS V14.01,2013-02-21 22:01:00,
2013-02-21 17:02:00,34.9,33.1,28.85,WSW,238,6.9,8.7,93,0.00,,---,0.20,VWS V14.01,2013-02-21 22:02:00,
2013-02-21 17:03:00,34.9,33.1,28.85,SW,233,7.4,10.5,93,0.00,,---,0.20,VWS V14.01,2013-02-21 22:03:00,
2013-02-21 17:04:00,26.2,11.0,29.18,SE,136,5.4,9.6,52,0.00,,---,0.00,VWS V14.01,2013-02-21 22:04:00,
2013-02-21 17:05:00,35.1,33.2,28.85,WSW,254,6.7,8.7,93,0.00,,---,0.20,VWS V14.01,2013-02-21 22:05:00,
2013-02-21 17:06:00,35.1,33.2,28.85,WSW,257,5.4,8.3,93,0.00,,---,0.20,VWS V14.01,2013-02-21 22:06:00,
2013-02-21 17:07:00,35.1,33.2,28.85,WSW,252,6.3,10.5,93,0.00,,---,0.20,VWS V14.01,2013-02-21 22:07:00,
2013-02-21 17:08:00,35.1,33.2,28.85,SW,232,4.0,6.3,93,0.00,,---,0.20,VWS V14.01,2013-02-21 22:08:00,
2013-02-21 17:09:00,26.1,10.9,29.18,ESE,118,6.9,6.9,52,0.00,,---,0.00,VWS V14.01,2013-02-21 22:09:00,
2013-02-21 17:10:00,35.1,33.5,28.85,WSW,254,6.9,11.0,94,0.00,,---,0.20,VWS V14.01,2013-02-21 22:10:00,
2013-02-21 17:11:00,35.1,33.2,28.85,SW,224,2.7,10.1,93,0.00,,---,0.20,VWS V14.01,2013-02-21 22:11:00,
2013-02-21 17:12:00,35.1,33.2,28.85,WSW,237,3.6,5.4,93,0.00,,---,0.20,VWS V14.01,2013-02-21 22:12:00,
2013-02-21 17:13:00,35.1,33.2,28.85,West,276,5.4,6.7,93,0.00,,---,0.20,VWS V14.01,2013-02-21 22:13:00,
2013-02-21 17:14:00,26.1,10.9,29.18,ESE,108,6.9,7.4,52,0.00,,---,0.00,VWS V14.01,2013-02-21 22:14:00,
2013-02-21 17:15:00,35.1,33.2,28.85,SSW,197,4.0,8.3,93,0.00,,---,0.20,VWS V14.01,2013-02-21 22:15:00,
2013-02-21 17:16:00,35.1,33.2,28.85,West,274,7.8,7.8,93,0.00,,---,0.20,VWS V14.01,2013-02-21 22:16:00,
2013-02-21 17:17:00,35.2,33.4,28.85,WSW,250,2.7,7.8,93,0.00,,---,0.20,VWS V14.01,2013-02-21 22:17:00,
2013-02-21 17:18:00,35.2,33.4,28.85,West,273,3.1,5.4,93,0.00,,---,0.20,VWS V14.01,2013-02-21 22:18:00,
2013-02-21 17:19:00,25.9,11.1,29.18,East,94,6.9,9.6,53,0.00,,---,0.00,VWS V14.01,2013-02-21 22:19:00,
2013-02-21 17:20:00,35.2,33.4,28.85,WSW,246,3.6,6.9,93,0.00,,---,0.20,VWS V14.01,2013-02-21 22:20:00,
2013-02-21 17:21:00,35.2,33.4,28.85,West,271,0.0,4.9,93,0.00,,---,0.20,VWS V14.01,2013-02-21 22:21:00,
2013-02-21 17:22:00,35.2,33.4,28.85,WSW,252,6.3,6.3,93,0.00,,---,0.20,VWS V14.01,2013-02-21 22:22:00,
2013-02-21 17:23:00,35.2,33.4,28.85,West,262,6.7,6.7,93,0.00,,---,0.20,VWS V14.01,2013-02-21 22:23:00,
2013-02-21 17:24:00,35.2,33.4,28.85,SW,226,4.5,6.7,93,0.00,,---,0.20,VWS V14.01,2013-02-21 22:24:00,
2013-02-21 17:25:00,25.9,11.1,29.18,ESE,102,7.4,8.7,53,0.00,,---,0.00,VWS V14.01,2013-02-21 22:25:00,
2013-02-21 17:26:00,35.2,33.4,28.85,SW,234,7.8,7.8,93,0.00,,---,0.20,VWS V14.01,2013-02-21 22:26:00,
2013-02-21 17:27:00,35.2,33.4,28.85,SW,232,0.0,7.8,93,0.00,,---,0.20,VWS V14.01,2013-02-21 22:27:00,
2013-02-21 17:28:00,35.2,33.4,28.85,WSW,250,8.3,8.3,93,0.00,,---,0.20,VWS V14.01,2013-02-21 22:28:00,
2013-02-21 17:29:00,35.2,33.4,28.85,SW,221,6.3,8.7,93,0.00,,---,0.20,VWS V14.01,2013-02-21 22:29:00,
2013-02-21 17:30:00,35.2,33.2,28.85,SSW,211,6.3,8.3,92,0.00,,---,0.20,VWS V14.01,2013-02-21 22:30:00,
2013-02-21 17:31:00,25.7,10.9,29.15,ENE,65,7.4,11.0,53,0.00,,---,0.00,VWS V14.01,2013-02-21 22:31:00,
2013-02-21 17:32:00,35.1,33.0,28.85,SW,227,5.4,7.8,92,0.00,,---,0.20,VWS V14.01,2013-02-21 22:32:00,
2013-02-21 17:33:00,35.1,33.0,28.85,WSW,244,7.4,9.2,92,0.00,,---,0.20,VWS V14.01,2013-02-21 22:33:00,
2013-02-21 17:34:00,35.1,33.0,28.85,WSW,252,5.4,9.2,92,0.00,,---,0.20,VWS V14.01,2013-02-21 22:34:00,
2013-02-21 17:35:00,35.1,33.0,28.85,WSW,253,6.3,6.7,92,0.00,,---,0.20,VWS V14.01,2013-02-21 22:35:00,
2013-02-21 17:36:00,35.1,32.7,28.85,SW,216,5.4,6.7,91,0.00,,---,0.20,VWS V14.01,2013-02-21 22:36:00,
2013-02-21 17:37:00,25.5,11.2,29.15,ESE,107,8.3,11.6,54,0.00,,---,0.00,VWS V14.01,2013-02-21 22:37:00,
2013-02-21 17:38:00,35.1,32.7,28.85,SW,232,6.3,8.3,91,0.00,,---,0.20,VWS V14.01,2013-02-21 22:38:00,
2013-02-21 17:39:00,35.1,32.7,28.85,SW,226,4.5,8.3,91,0.00,,---,0.20,VWS V14.01,2013-02-21 22:39:00,
2013-02-21 17:40:00,35.1,32.7,28.85,West,259,4.9,5.8,91,0.00,,---,0.20,VWS V14.01,2013-02-21 22:40:00,
2013-02-21 17:41:00,35.1,32.4,28.85,WSW,257,3.6,5.8,90,0.00,,---,0.20,VWS V14.01,2013-02-21 22:41:00,
2013-02-21 17:42:00,25.5,11.2,29.15,ESE,117,8.7,8.7,54,0.00,,---,0.00,VWS V14.01,2013-02-21 22:42:00,
2013-02-21 17:43:00,35.1,32.4,28.85,WSW,252,4.0,5.4,90,0.00,,---,0.20,VWS V14.01,2013-02-21 22:43:00,
2013-02-21 17:44:00,35.1,32.4,28.85,SW,236,5.4,6.7,90,0.00,,---,0.20,VWS V14.01,2013-02-21 22:44:00,
2013-02-21 17:45:00,35.1,32.4,28.85,West,279,5.8,7.8,90,0.00,,---,0.20,VWS V14.01,2013-02-21 22:45:00,
2013-02-21 17:46:00,35.1,32.4,28.85,WSW,252,6.7,6.7,90,0.00,,---,0.20,VWS V14.01,2013-02-21 22:46:00,
2013-02-21 17:47:00,35.1,32.2,28.85,West,276,7.4,7.4,89,0.00,,---,0.20,VWS V14.01,2013-02-21 22:47:00,
2013-02-21 17:48:00,25.5,11.2,29.15,ESE,106,7.8,14.3,54,0.00,,---,0.00,VWS V14.01,2013-02-21 22:48:00,
2013-02-21 17:49:00,35.1,32.2,28.85,SW,227,5.8,7.8,89,0.00,,---,0.20,VWS V14.01,2013-02-21 22:49:00,
2013-02-21 17:50:00,35.1,32.2,28.85,WSW,247,4.5,7.4,89,0.00,,---,0.20,VWS V14.01,2013-02-21 22:50:00,
2013-02-21 17:51:00,35.1,32.2,28.85,SW,220,3.6,6.3,89,0.00,,---,0.20,VWS V14.01,2013-02-21 22:51:00,
2013-02-21 17:52:00,34.9,32.0,28.85,WSW,248,4.0,6.9,89,0.00,,---,0.20,VWS V14.01,2013-02-21 22:52:00,
2013-02-21 17:53:00,34.9,32.0,28.85,WSW,253,8.3,8.3,89,0.00,,---,0.20,VWS V14.01,2013-02-21 22:53:00,
2013-02-21 17:54:00,34.9,32.0,28.85,WSW,253,6.7,9.6,89,0.00,,---,0.20,VWS V14.01,2013-02-21 22:54:00,
2013-02-21 17:55:00,34.9,32.0,28.85,WSW,257,6.7,6.7,89,0.00,,---,0.20,VWS V14.01,2013-02-21 22:55:00,
2013-02-21 17:56:00,25.3,11.0,29.15,East,79,9.2,9.2,54,0.00,,---,0.00,VWS V14.01,2013-02-21 22:56:00,
2013-02-21 17:57:00,34.9,32.0,28.85,SW,215,5.8,5.8,89,0.00,,---,0.20,VWS V14.01,2013-02-21 22:57:00,
2013-02-21 17:58:00,34.9,32.0,28.85,SW,235,2.7,7.4,89,0.00,,---,0.20,VWS V14.01,2013-02-21 22:58:00,
2013-02-21 17:59:00,34.9,32.0,28.85,WSW,247,4.9,6.7,89,0.00,,---,0.20,VWS V14.01,2013-02-21 22:59:00,
2013-02-21 18:00:00,34.9,32.0,28.85,WSW,247,9.2,9.2,89,0.00,,---,0.20,VWS V14.01,2013-02-21 23:00:00,
2013-02-21 18:01:00,25.3,11.4,29.12,East,92,4.9,8.7,55,0.00,,---,0.00,VWS V14.01,2013-02-21 23:01:00,
2013-02-21 18:02:00,34.9,32.0,28.85,WSW,252,5.4,7.8,89,0.00,,---,0.20,VWS V14.01,2013-02-21 23:02:00,
2013-02-21 18:03:00,34.9,32.0,28.85,SW,229,4.0,7.8,89,0.00,,---,0.20,VWS V14.01,2013-02-21 23:03:00,
2013-02-21 18:04:00,34.9,32.0,28.85,WSW,243,5.4,10.1,89,0.00,,---,0.20,VWS V14.01,2013-02-21 23:04:00,
2013-02-21 18:05:00,34.9,32.0,28.85,WSW,238,4.5,7.8,89,0.00,,---,0.20,VWS V14.01,2013-02-21 23:05:00,
2013-02-21 18:06:00,25.3,11.9,29.12,ESE,110,8.7,8.7,56,0.00,,---,0.00,VWS V14.01,2013-02-21 23:06:00,
2013-02-21 18:07:00,34.9,32.0,28.85,WSW,246,4.9,5.8,89,0.00,,---,0.20,VWS V14.01,2013-02-21 23:07:00,
2013-02-21 18:08:00,34.9,32.0,28.85,WSW,251,3.1,6.3,89,0.00,,---,0.20,VWS V14.01,2013-02-21 23:08:00,
2013-02-21 18:09:00,34.9,32.0,28.85,WSW,257,5.4,6.9,89,0.00,,---,0.20,VWS V14.01,2013-02-21 23:09:00,
2013-02-21 18:10:00,34.9,32.0,28.85,WSW,258,4.5,8.3,89,0.00,,---,0.20,VWS V14.01,2013-02-21 23:10:00,
2013-02-21 18:11:00,34.9,32.0,28.85,WSW,237,5.8,7.8,89,0.00,,---,0.20,VWS V14.01,2013-02-21 23:11:00,
2013-02-21 18:12:00,25.2,11.7,29.12,ESE,115,9.2,11.0,56,0.00,,---,0.00,VWS V14.01,2013-02-21 23:12:00,
2013-02-21 18:13:00,34.9,32.0,28.85,WSW,246,3.6,8.7,89,0.00,,---,0.20,VWS V14.01,2013-02-21 23:13:00,
2013-02-21 18:14:00,34.9,32.0,28.85,WSW,249,4.9,7.8,89,0.00,,---,0.20,VWS V14.01,2013-02-21 23:14:00,
2013-02-21 18:15:00,34.9,32.0,28.85,WSW,256,3.1,6.3,89,0.00,,---,0.20,VWS V14.01,2013-02-21 23:15:00,
2013-02-21 18:16:00,34.9,32.0,28.85,WSW,248,3.6,6.9,89,0.00,,---,0.20,VWS V14.01,2013-02-21 23:16:00,
2013-02-21 18:17:00,25.2,11.7,29.12,East,89,6.9,9.6,56,0.00,,---,0.00,VWS V14.01,2013-02-21 23:17:00,
2013-02-21 18:18:00,34.9,32.0,28.85,West,265,5.4,6.9,89,0.00,,---,0.20,VWS V14.01,2013-02-21 23:18:00,
2013-02-21 18:19:00,34.9,32.0,28.85,West,273,4.5,5.8,89,0.00,,---,0.20,VWS V14.01,2013-02-21 23:19:00,
2013-02-21 18:20:00,34.9,32.0,28.85,SW,215,5.8,7.4,89,0.00,,---,0.20,VWS V14.01,2013-02-21 23:20:00,
2013-02-21 18:21:00,34.9,32.0,28.85,West,260,6.3,8.7,89,0.00,,---,0.20,VWS V14.01,2013-02-21 23:21:00,
2013-02-21 18:22:00,25.2,11.7,29.12,ESE,102,9.2,10.1,56,0.00,,---,0.00,VWS V14.01,2013-02-21 23:22:00,
2013-02-21 18:23:00,34.9,32.2,28.85,WSW,251,3.1,6.3,90,0.00,,---,0.20,VWS V14.01,2013-02-21 23:23:00,
2013-02-21 18:24:00,34.9,32.2,28.85,WSW,242,3.6,5.4,90,0.00,,---,0.20,VWS V14.01,2013-02-21 23:24:00,
2013-02-21 18:25:00,34.9,32.2,28.85,WNW,287,0.0,4.9,90,0.00,,---,0.20,VWS V14.01,2013-02-21 23:25:00,
2013-02-21 18:26:00,34.9,32.2,28.85,WSW,253,9.2,9.2,90,0.00,,---,0.20,VWS V14.01,2013-02-21 23:26:00,
2013-02-21 18:27:00,25.2,11.7,29.12,ESE,121,7.4,11.6,56,0.00,,---,0.00,VWS V14.01,2013-02-21 23:27:00,
2013-02-21 18:28:00,34.9,32.2,28.85,WSW,256,6.9,6.9,90,0.00,,---,0.20,VWS V14.01,2013-02-21 23:28:00,
2013-02-21 18:29:00,34.9,32.2,28.85,SW,220,3.6,6.9,90,0.00,,---,0.20,VWS V14.01,2013-02-21 23:29:00,
2013-02-21 18:30:00,34.9,32.2,28.85,WSW,238,0.0,5.8,90,0.00,,---,0.20,VWS V14.01,2013-02-21 23:30:00,
2013-02-21 18:31:00,34.9,32.2,28.85,WSW,239,0.0,4.5,90,0.00,,---,0.20,VWS V14.01,2013-02-21 23:31:00,
2013-02-21 18:32:00,25.2,11.7,29.12,ESE,117,10.1,10.5,56,0.00,,---,0.00,VWS V14.01,2013-02-21 23:32:00,
2013-02-21 18:33:00,34.9,32.2,28.85,WNW,285,5.8,6.9,90,0.00,,---,0.20,VWS V14.01,2013-02-21 23:33:00,
2013-02-21 18:34:00,34.9,32.2,28.85,SSE,156,3.6,5.8,90,0.00,,---,0.20,VWS V14.01,2013-02-21 23:34:00,
2013-02-21 18:35:00,34.9,32.2,28.85,WSW,240,2.7,5.4,90,0.00,,---,0.20,VWS V14.01,2013-02-21 23:35:00,
2013-02-21 18:36:00,34.9,32.2,28.85,SW,221,2.7,5.8,90,0.00,,---,0.20,VWS V14.01,2013-02-21 23:36:00,
2013-02-21 18:37:00,25.2,12.1,29.12,East,84,8.7,10.5,57,0.00,,---,0.00,VWS V14.01,2013-02-21 23:37:00,
2013-02-21 18:38:00,34.9,32.2,28.85,SW,225,3.1,4.9,90,0.00,,---,0.20,VWS V14.01,2013-02-21 23:38:00,
2013-02-21 18:39:00,34.9,32.2,28.85,WNW,291,6.3,8.3,90,0.00,,---,0.20,VWS V14.01,2013-02-21 23:39:00,
2013-02-21 18:40:00,34.7,32.1,28.85,WSW,257,4.0,6.3,90,0.00,,---,0.20,VWS V14.01,2013-02-21 23:40:00,
2013-02-21 18:42:00,25.2,12.1,29.12,East,93,6.3,10.5,57,0.00,,---,0.00,VWS V14.01,2013-02-21 23:42:00,
2013-02-21 18:44:00,34.7,31.8,28.85,SSW,212,4.5,6.9,89,0.00,,---,0.20,VWS V14.01,2013-02-21 23:44:00,
2013-02-21 18:45:00,34.7,31.8,28.85,WSW,248,4.0,6.9,89,0.00,,---,0.20,VWS V14.01,2013-02-21 23:45:00,
2013-02-21 18:46:00,34.7,31.8,28.85,SW,216,5.4,6.3,89,0.00,,---,0.20,VWS V14.01,2013-02-21 23:46:00,
2013-02-21 18:47:00,25.2,12.1,29.12,East,91,9.6,11.6,57,0.00,,---,0.00,VWS V14.01,2013-02-21 23:47:00,
2013-02-21 18:48:00,34.7,32.1,28.85,SSW,202,4.0,6.3,90,0.00,,---,0.20,VWS V14.01,2013-02-21 23:48:00,
2013-02-21 18:49:00,34.7,31.8,28.85,WSW,239,4.0,4.9,89,0.00,,---,0.20,VWS V14.01,2013-02-21 23:49:00,
2013-02-21 18:50:00,34.7,31.8,28.85,SW,221,4.5,6.7,89,0.00,,---,0.20,VWS V14.01,2013-02-21 23:50:00,
2013-02-21 18:51:00,34.7,31.8,28.85,SW,234,2.7,4.9,89,0.00,,---,0.20,VWS V14.01,2013-02-21 23:51:00,
2013-02-21 18:52:00,25.2,12.1,29.12,East,96,6.3,11.2,57,0.00,,---,0.00,VWS V14.01,2013-02-21 23:52:00,
2013-02-21 18:53:00,34.7,31.8,28.85,SSW,198,4.0,4.5,89,0.00,,---,0.20,VWS V14.01,2013-02-21 23:53:00,
2013-02-21 18:54:00,34.5,31.6,28.85,West,276,5.8,5.8,89,0.00,,---,0.20,VWS V14.01,2013-02-21 23:54:00,
2013-02-21 18:55:00,34.5,31.6,28.85,WSW,248,4.5,5.8,89,0.00,,---,0.20,VWS V14.01,2013-02-21 23:55:00,
2013-02-21 18:56:00,34.5,31.6,28.85,SSW,209,5.8,6.7,89,0.00,,---,0.20,VWS V14.01,2013-02-21 23:56:00,
2013-02-21 18:57:00,25.2,12.1,29.12,ESE,102,11.2,12.1,57,0.00,,---,0.00,VWS V14.01,2013-02-21 23:57:00,
2013-02-21 18:58:00,34.5,31.6,28.85,SSW,211,0.0,3.6,89,0.00,,---,0.20,VWS V14.01,2013-02-21 23:58:00,
2013-02-21 18:59:00,34.5,31.6,28.85,SSW,212,3.1,4.0,89,0.00,,---,0.20,VWS V14.01,2013-02-21 23:59:00,
2013-02-21 19:00:00,34.5,31.6,28.85,WSW,237,5.8,6.3,89,0.00,,---,0.20,VWS V14.01,2013-02-22 00:00:00,
2013-02-21 19:01:00,34.5,31.6,28.85,SW,224,0.0,5.8,89,0.00,,---,0.20,VWS V14.01,2013-02-22 00:01:00,
2013-02-21 19:02:00,25.2,12.1,29.12,SE,126,6.7,12.1,57,0.00,,---,0.00,VWS V14.01,2013-02-22 00:02:00,
2013-02-21 19:03:00,34.5,31.6,28.85,SW,218,2.7,5.4,89,0.00,,---,0.20,VWS V14.01,2013-02-22 00:03:00,
2013-02-21 19:04:00,34.5,31.6,28.85,SW,219,3.6,7.8,89,0.00,,---,0.20,VWS V14.01,2013-02-22 00:04:00,
2013-02-21 19:05:00,34.5,31.6,28.85,SW,222,4.0,6.3,89,0.00,,---,0.20,VWS V14.01,2013-02-22 00:05:00,
2013-02-21 19:06:00,34.5,31.6,28.85,SSW,207,0.0,5.4,89,0.00,,---,0.20,VWS V14.01,2013-02-22 00:06:00,
2013-02-21 19:07:00,25.2,12.5,29.12,SE,134,8.7,13.0,58,0.00,,---,0.00,VWS V14.01,2013-02-22 00:07:00,
2013-02-21 19:08:00,34.5,31.3,28.85,WSW,243,6.7,7.8,88,0.00,,---,0.20,VWS V14.01,2013-02-22 00:08:00,
2013-02-21 19:09:00,34.5,31.3,28.85,WSW,243,0.0,6.7,88,0.00,,---,0.20,VWS V14.01,2013-02-22 00:09:00,
2013-02-21 19:10:00,34.5,31.3,28.85,SW,227,0.0,4.0,88,0.00,,---,0.20,VWS V14.01,2013-02-22 00:10:00,
2013-02-21 19:11:00,34.5,31.3,28.85,SSW,203,2.7,5.8,88,0.00,,---,0.20,VWS V14.01,2013-02-22 00:11:00,
2013-02-21 19:12:00,34.5,31.3,28.85,SSW,211,3.1,5.4,88,0.00,,---,0.20,VWS V14.01,2013-02-22 00:12:00,
2013-02-21 19:13:00,25.2,12.5,29.12,ESE,122,7.4,8.3,58,0.00,,---,0.00,VWS V14.01,2013-02-22 00:13:00,
2013-02-21 19:14:00,34.5,31.3,28.85,SW,215,0.0,3.6,88,0.00,,---,0.20,VWS V14.01,2013-02-22 00:14:00,
2013-02-21 19:15:00,34.5,31.3,28.85,SW,215,3.6,4.5,88,0.00,,---,0.20,VWS V14.01,2013-02-22 00:15:00,
2013-02-21 19:16:00,34.5,31.3,28.85,SW,215,2.7,4.0,88,0.00,,---,0.20,VWS V14.01,2013-02-22 00:16:00,
2013-02-21 19:17:00,34.5,31.3,28.85,SW,215,3.1,3.6,88,0.00,,---,0.20,VWS V14.01,2013-02-22 00:17:00,
2013-02-21 19:18:00,34.5,31.3,28.85,WSW,245,0.0,5.8,88,0.00,,---,0.20,VWS V14.01,2013-02-22 00:18:00,
2013-02-21 19:19:00,25.2,12.5,29.12,SE,128,11.2,11.6,58,0.00,,---,0.00,VWS V14.01,2013-02-22 00:19:00,
2013-02-21 19:20:00,34.5,31.3,28.85,SSW,211,0.0,4.0,88,0.00,,---,0.20,VWS V14.01,2013-02-22 00:20:00,
2013-02-21 19:21:00,34.5,31.3,28.85,SW,220,4.5,5.8,88,0.00,,---,0.20,VWS V14.01,2013-02-22 00:21:00,
2013-02-21 19:22:00,34.5,31.3,28.85,SW,234,4.0,4.9,88,0.00,,---,0.20,VWS V14.01,2013-02-22 00:22:00,
2013-02-21 19:23:00,34.5,31.3,28.85,SW,228,3.6,7.4,88,0.00,,---,0.20,VWS V14.01,2013-02-22 00:23:00,
2013-02-21 19:24:00,25.2,12.5,29.12,East,97,6.7,10.1,58,0.00,,---,0.00,VWS V14.01,2013-02-22 00:24:00,
2013-02-21 19:25:00,34.5,31.1,28.85,WSW,247,0.0,4.9,87,0.00,,---,0.20,VWS V14.01,2013-02-22 00:25:00,
2013-02-21 19:26:00,34.5,31.1,28.85,SW,231,2.7,4.0,87,0.00,,---,0.20,VWS V14.01,2013-02-22 00:26:00,
2013-02-21 19:27:00,34.5,31.1,28.85,SW,224,4.5,5.8,87,0.00,,---,0.20,VWS V14.01,2013-02-22 00:27:00,
2013-02-21 19:28:00,34.5,31.1,28.85,SW,226,4.5,5.4,87,0.00,,---,0.20,VWS V14.01,2013-02-22 00:28:00,
2013-02-21 19:29:00,25.2,12.5,29.12,East,96,10.1,13.9,58,0.00,,---,0.00,VWS V14.01,2013-02-22 00:29:00,
2013-02-21 19:30:00,34.5,31.1,28.85,SW,219,4.5,4.9,87,0.00,,---,0.20,VWS V14.01,2013-02-22 00:30:00,
2013-02-21 19:31:00,34.5,31.1,28.85,West,265,5.4,9.2,87,0.00,,---,0.20,VWS V14.01,2013-02-22 00:31:00,
2013-02-21 19:32:00,34.5,31.1,28.85,SW,229,6.7,6.7,87,0.00,,---,0.20,VWS V14.01,2013-02-22 00:32:00,
2013-02-21 19:33:00,34.5,31.1,28.85,SW,225,6.9,8.3,87,0.00,,---,0.20,VWS V14.01,2013-02-22 00:33:00,
2013-02-21 19:34:00,25.2,12.5,29.12,ESE,111,11.0,13.0,58,0.00,,---,0.00,VWS V14.01,2013-02-22 00:34:00,
2013-02-21 19:35:00,34.5,31.1,28.85,SW,218,3.1,6.7,87,0.00,,---,0.20,VWS V14.01,2013-02-22 00:35:00,
2013-02-21 19:36:00,34.5,30.8,28.85,SW,220,5.8,7.8,86,0.00,,---,0.20,VWS V14.01,2013-02-22 00:36:00,
2013-02-21 19:37:00,34.5,30.8,28.85,WSW,242,4.9,9.2,86,0.00,,---,0.20,VWS V14.01,2013-02-22 00:37:00,
2013-02-21 19:38:00,34.5,30.8,28.85,SSW,211,0.0,4.9,86,0.00,,---,0.20,VWS V14.01,2013-02-22 00:38:00,
2013-02-21 19:39:00,34.5,30.8,28.85,SW,228,5.4,5.8,86,0.00,,---,0.20,VWS V14.01,2013-02-22 00:39:00,
2013-02-21 19:40:00,25.2,12.1,29.12,ESE,105,10.1,13.0,57,0.00,,---,0.00,VWS V14.01,2013-02-22 00:40:00,
2013-02-21 19:41:00,34.5,30.8,28.85,SW,230,4.5,7.8,86,0.00,,---,0.20,VWS V14.01,2013-02-22 00:41:00,
2013-02-21 19:42:00,34.5,30.8,28.85,SW,236,4.0,5.4,86,0.00,,---,0.20,VWS V14.01,2013-02-22 00:42:00,
2013-02-21 19:43:00,34.5,30.5,28.85,SW,231,3.6,6.7,85,0.00,,---,0.20,VWS V14.01,2013-02-22 00:43:00,
2013-02-21 19:44:00,34.5,30.5,28.85,SW,229,5.8,6.3,85,0.00,,---,0.20,VWS V14.01,2013-02-22 00:44:00,
2013-02-21 19:45:00,34.5,30.5,28.85,WSW,242,4.0,8.3,85,0.00,,---,0.20,VWS V14.01,2013-02-22 00:45:00,
2013-02-21 19:46:00,25.2,12.1,29.12,SE,134,9.2,10.5,57,0.00,,---,0.00,VWS V14.01,2013-02-22 00:46:00,
2013-02-21 19:47:00,34.5,30.5,28.85,SW,220,4.9,6.3,85,0.00,,---,0.20,VWS V14.01,2013-02-22 00:47:00,
2013-02-21 19:48:00,34.5,30.5,28.85,SW,222,6.7,6.9,85,0.00,,---,0.20,VWS V14.01,2013-02-22 00:48:00,
2013-02-21 19:49:00,34.5,30.2,28.85,WSW,249,4.5,6.7,84,0.00,,---,0.20,VWS V14.01,2013-02-22 00:49:00,
2013-02-21 19:50:00,34.5,30.2,28.85,SSW,192,5.4,6.3,84,0.00,,---,0.20,VWS V14.01,2013-02-22 00:50:00,
2013-02-21 19:51:00,25.2,12.5,29.12,SE,127,8.3,8.7,58,0.00,,---,0.00,VWS V14.01,2013-02-22 00:51:00,
2013-02-21 19:52:00,34.5,30.2,28.85,SW,231,3.1,6.7,84,0.00,,---,0.20,VWS V14.01,2013-02-22 00:52:00,
2013-02-21 19:53:00,34.5,30.2,28.85,WSW,243,6.7,6.7,84,0.00,,---,0.20,VWS V14.01,2013-02-22 00:53:00,
2013-02-21 19:54:00,34.5,30.2,28.85,SW,217,6.3,6.7,84,0.00,,---,0.20,VWS V14.01,2013-02-22 00:54:00,
2013-02-21 19:55:00,34.5,30.2,28.85,WSW,238,0.0,6.3,84,0.00,,---,0.20,VWS V14.01,2013-02-22 00:55:00,
2013-02-21 19:56:00,34.5,29.9,28.85,SW,216,6.7,8.7,83,0.00,,---,0.20,VWS V14.01,2013-02-22 00:56:00,
2013-02-21 19:57:00,34.5,29.9,28.85,SW,232,7.8,8.3,83,0.00,,---,0.20,VWS V14.01,2013-02-22 00:57:00,
2013-02-21 19:58:00,25.3,12.6,29.12,East,85,7.8,12.5,58,0.00,,---,0.00,VWS V14.01,2013-02-22 00:58:00,
2013-02-21 19:59:00,34.5,29.9,28.85,SW,230,4.5,5.8,83,0.00,,---,0.20,VWS V14.01,2013-02-22 00:59:00,
2013-02-21 20:00:00,34.5,29.9,28.85,SW,221,4.9,5.4,83,0.00,,---,0.20,VWS V14.01,2013-02-22 01:00:00,
2013-02-21 20:01:00,34.5,29.9,28.85,SW,218,4.5,7.8,83,0.00,,---,0.20,VWS V14.01,2013-02-22 01:01:00,
2013-02-21 20:02:00,34.5,29.9,28.85,SW,223,3.1,7.8,83,0.00,,---,0.20,VWS V14.01,2013-02-22 01:02:00,
2013-02-21 20:03:00,25.2,12.5,29.12,ESE,111,11.6,11.6,58,0.00,,---,0.00,VWS V14.01,2013-02-22 01:03:00,
2013-02-21 20:04:00,34.5,29.6,28.85,SW,228,4.5,4.5,82,0.00,,---,0.20,VWS V14.01,2013-02-22 01:04:00,
2013-02-21 20:05:00,34.5,29.6,28.85,SW,227,4.0,6.7,82,0.00,,---,0.20,VWS V14.01,2013-02-22 01:05:00,
2013-02-21 20:06:00,34.5,29.6,28.88,SW,229,5.4,6.9,82,0.00,,---,0.20,VWS V14.01,2013-02-22 01:06:00,
2013-02-21 20:07:00,34.5,29.6,28.88,SW,227,4.5,5.8,82,0.00,,---,0.20,VWS V14.01,2013-02-22 01:07:00,
2013-02-21 20:08:00,34.5,29.6,28.88,SSW,208,7.4,8.3,82,0.00,,---,0.20,VWS V14.01,2013-02-22 01:08:00,
2013-02-21 20:09:00,34.5,29.6,28.88,WSW,248,6.3,7.8,82,0.00,,---,0.20,VWS V14.01,2013-02-22 01:09:00,
2013-02-21 20:10:00,25.2,12.1,29.12,East,88,7.8,11.6,57,0.00,,---,0.00,VWS V14.01,2013-02-22 01:10:00,
2013-02-21 20:11:00,34.5,29.6,28.88,SW,222,4.0,7.4,82,0.00,,---,0.20,VWS V14.01,2013-02-22 01:11:00,
2013-02-21 20:12:00,34.5,29.6,28.88,WSW,247,6.9,7.4,82,0.00,,---,0.20,VWS V14.01,2013-02-22 01:12:00,
2013-02-21 20:16:00,34.5,29.3,28.88,SW,226,3.1,7.4,81,0.00,,---,0.20,VWS V14.01,2013-02-22 01:16:00,
2013-02-21 20:17:00,34.5,29.3,28.88,SSW,195,6.7,7.4,81,0.00,,---,0.20,VWS V14.01,2013-02-22 01:17:00,
2013-02-21 20:18:00,34.5,29.3,28.88,SW,217,3.6,6.7,81,0.00,,---,0.20,VWS V14.01,2013-02-22 01:18:00,
2013-02-21 20:19:00,34.5,29.3,28.88,South,190,6.7,6.7,81,0.00,,---,0.20,VWS V14.01,2013-02-22 01:19:00,
2013-02-21 20:20:00,25.3,12.6,29.12,ESE,107,10.5,10.5,58,0.00,,---,0.00,VWS V14.01,2013-02-22 01:20:00,
2013-02-21 20:21:00,34.5,29.3,28.88,SW,228,0.0,5.4,81,0.00,,---,0.20,VWS V14.01,2013-02-22 01:21:00,
2013-02-21 20:22:00,34.5,29.3,28.88,SW,236,4.0,5.8,81,0.00,,---,0.20,VWS V14.01,2013-02-22 01:22:00,
2013-02-21 20:23:00,34.5,29.3,28.88,WSW,252,0.0,6.7,81,0.00,,---,0.20,VWS V14.01,2013-02-22 01:23:00,
2013-02-21 20:24:00,34.5,29.3,28.88,WSW,252,2.7,4.5,81,0.00,,---,0.20,VWS V14.01,2013-02-22 01:24:00,
2013-02-21 20:25:00,25.3,12.6,29.12,ESE,120,6.3,11.0,58,0.00,,---,0.00,VWS V14.01,2013-02-22 01:25:00,
2013-02-21 20:26:00,34.5,29.3,28.88,SW,229,5.8,5.8,81,0.00,,---,0.20,VWS V14.01,2013-02-22 01:26:00,
2013-02-21 20:27:00,34.5,29.3,28.88,SW,221,5.8,5.8,81,0.00,,---,0.20,VWS V14.01,2013-02-22 01:27:00,
2013-02-21 20:28:00,34.5,29.3,28.88,SSW,204,2.7,9.2,81,0.00,,---,0.20,VWS V14.01,2013-02-22 01:28:00,
2013-02-21 20:29:00,34.5,29.3,28.88,SSW,201,5.4,7.4,81,0.00,,---,0.20,VWS V14.01,2013-02-22 01:29:00,
2013-02-21 20:30:00,25.3,12.2,29.12,ESE,120,8.3,10.5,57,0.00,,---,0.00,VWS V14.01,2013-02-22 01:30:00,
2013-02-21 20:31:00,34.5,29.3,28.88,SW,218,5.8,6.7,81,0.00,,---,0.20,VWS V14.01,2013-02-22 01:31:00,
2013-02-21 20:32:00,34.5,29.3,28.88,SSW,210,6.7,6.7,81,0.00,,---,0.20,VWS V14.01,2013-02-22 01:32:00,
2013-02-21 20:33:00,34.5,29.3,28.88,SW,219,5.8,7.4,81,0.00,,---,0.20,VWS V14.01,2013-02-22 01:33:00,
2013-02-21 20:34:00,34.5,29.3,28.88,SW,219,5.8,5.8,81,0.00,,---,0.20,VWS V14.01,2013-02-22 01:34:00,
2013-02-21 20:35:00,34.5,29.3,28.88,SW,232,3.6,7.4,81,0.00,,---,0.20,VWS V14.01,2013-02-22 01:35:00,
2013-02-21 20:36:00,34.5,29.3,28.88,SSW,213,4.9,4.9,81,0.00,,---,0.20,VWS V14.01,2013-02-22 01:36:00,
2013-02-21 20:37:00,34.5,29.3,28.88,SSW,205,5.4,10.5,81,0.00,,---,0.20,VWS V14.01,2013-02-22 01:37:00,
2013-02-21 20:38:00,34.5,29.3,28.88,SSW,208,2.7,6.9,81,0.00,,---,0.20,VWS V14.01,2013-02-22 01:38:00,
2013-02-21 20:39:00,25.3,12.6,29.12,ESE,112,6.9,8.7,58,0.00,,---,0.00,VWS V14.01,2013-02-22 01:39:00,
2013-02-21 20:40:00,34.5,29.3,28.88,SW,234,4.0,7.4,81,0.00,,---,0.20,VWS V14.01,2013-02-22 01:40:00,
2013-02-21 20:41:00,34.5,29.3,28.88,SW,227,3.1,5.4,81,0.00,,---,0.20,VWS V14.01,2013-02-22 01:41:00,
2013-02-21 20:42:00,34.5,29.3,28.88,SSW,204,6.3,6.7,81,0.00,,---,0.20,VWS V14.01,2013-02-22 01:42:00,
2013-02-21 20:43:00,34.5,29.3,28.88,SSW,208,5.4,6.3,81,0.00,,---,0.20,VWS V14.01,2013-02-22 01:43:00,
2013-02-21 20:44:00,25.3,12.6,29.09,ESE,104,11.0,11.0,58,0.00,,---,0.00,VWS V14.01,2013-02-22 01:44:00,
2013-02-21 20:45:00,34.5,29.3,28.88,WSW,254,5.4,6.3,81,0.00,,---,0.20,VWS V14.01,2013-02-22 01:45:00,
2013-02-21 20:46:00,34.5,29.3,28.88,SW,219,5.8,5.8,81,0.00,,---,0.20,VWS V14.01,2013-02-22 01:46:00,
2013-02-21 20:47:00,34.5,29.3,28.88,SSW,203,0.0,5.8,81,0.00,,---,0.20,VWS V14.01,2013-02-22 01:47:00,
2013-02-21 20:48:00,34.5,29.3,28.88,SW,235,2.7,5.8,81,0.00,,---,0.20,VWS V14.01,2013-02-22 01:48:00,
2013-02-21 20:49:00,34.5,29.3,28.88,SW,217,4.0,7.8,81,0.00,,---,0.20,VWS V14.01,2013-02-22 01:49:00,
2013-02-21 20:50:00,34.5,29.3,28.88,West,261,6.7,6.7,81,0.00,,---,0.20,VWS V14.01,2013-02-22 01:50:00,
2013-02-21 20:51:00,34.5,29.3,28.88,SW,227,4.5,8.3,81,0.00,,---,0.20,VWS V14.01,2013-02-22 01:51:00,
2013-02-21 20:52:00,25.3,12.2,29.09,ESE,107,6.9,8.3,57,0.00,,---,0.00,VWS V14.01,2013-02-22 01:52:00,
2013-02-21 20:53:00,34.5,29.3,28.88,SW,217,4.0,6.7,81,0.00,,---,0.20,VWS V14.01,2013-02-22 01:53:00,
2013-02-21 20:54:00,34.5,29.3,28.88,SSW,212,4.9,5.4,81,0.00,,---,0.20,VWS V14.01,2013-02-22 01:54:00,
2013-02-21 20:55:00,34.5,29.3,28.88,SW,215,4.0,6.7,81,0.00,,---,0.20,VWS V14.01,2013-02-22 01:55:00,
2013-02-21 20:56:00,34.5,29.3,28.88,SW,214,4.5,5.4,81,0.00,,---,0.20,VWS V14.01,2013-02-22 01:56:00,
2013-02-21 20:57:00,25.3,12.2,29.09,East,83,11.6,11.6,57,0.00,,---,0.00,VWS V14.01,2013-02-22 01:57:00,
2013-02-21 20:58:00,34.5,29.3,28.88,SW,231,5.4,5.8,81,0.00,,---,0.20,VWS V14.01,2013-02-22 01:58:00,
2013-02-21 20:59:00,34.5,29.3,28.88,WSW,257,5.8,6.7,81,0.00,,---,0.20,VWS V14.01,2013-02-22 01:59:00,
2013-02-21 21:00:00,34.5,29.3,28.88,SSW,210,4.5,6.7,81,0.00,,---,0.20,VWS V14.01,2013-02-22 02:00:00,
2013-02-21 21:01:00,34.5,29.3,28.88,WSW,256,9.2,9.2,81,0.00,,---,0.20,VWS V14.01,2013-02-22 02:01:00,
2013-02-21 21:02:00,25.3,12.2,29.09,East,98,6.9,8.7,57,0.00,,---,0.00,VWS V14.01,2013-02-22 02:02:00,
2013-02-21 21:03:00,34.5,29.3,28.88,SW,225,4.9,4.9,81,0.00,,---,0.20,VWS V14.01,2013-02-22 02:03:00,
2013-02-21 21:04:00,34.5,29.3,28.88,WSW,245,6.3,6.3,81,0.00,,---,0.20,VWS V14.01,2013-02-22 02:04:00,
2013-02-21 21:05:00,34.5,29.3,28.88,SW,235,0.0,6.9,81,0.00,,---,0.20,VWS V14.01,2013-02-22 02:05:00,
2013-02-21 21:06:00,34.5,29.3,28.88,West,281,5.4,7.4,81,0.00,,---,0.20,VWS V14.01,2013-02-22 02:06:00,
2013-02-21 21:07:00,25.3,12.6,29.09,ESE,104,7.4,7.4,58,0.00,,---,0.00,VWS V14.01,2013-02-22 02:07:00,
2013-02-21 21:08:00,34.3,29.1,28.88,SSW,197,3.1,4.0,81,0.00,,---,0.20,VWS V14.01,2013-02-22 02:08:00,
2013-02-21 21:09:00,34.3,29.1,28.88,SW,235,5.4,6.3,81,0.00,,---,0.20,VWS V14.01,2013-02-22 02:09:00,
2013-02-21 21:10:00,34.3,29.1,28.88,WSW,257,4.0,6.3,81,0.00,,---,0.20,VWS V14.01,2013-02-22 02:10:00,
2013-02-21 21:11:00,34.3,29.1,28.88,SW,228,3.1,4.9,81,0.00,,---,0.20,VWS V14.01,2013-02-22 02:11:00,
2013-02-21 21:12:00,34.3,29.1,28.88,SW,229,3.6,4.0,81,0.00,,---,0.20,VWS V14.01,2013-02-22 02:12:00,
2013-02-21 21:13:00,34.3,29.1,28.88,SW,229,4.5,4.9,81,0.00,,---,0.20,VWS V14.01,2013-02-22 02:13:00,
2013-02-21 21:14:00,34.3,29.1,28.88,SSW,211,6.7,7.4,81,0.00,,---,0.20,VWS V14.01,2013-02-22 02:14:00,
2013-02-21 21:15:00,25.3,12.6,29.09,ESE,122,12.5,15.9,58,0.00,,---,0.00,VWS V14.01,2013-02-22 02:15:00,
2013-02-21 21:16:00,34.3,29.1,28.88,SSW,210,5.4,5.8,81,0.00,,---,0.20,VWS V14.01,2013-02-22 02:16:00,
2013-02-21 21:17:00,34.3,29.1,28.88,SW,230,7.8,7.8,81,0.00,,---,0.20,VWS V14.01,2013-02-22 02:17:00,
2013-02-21 21:18:00,34.3,29.1,28.88,WSW,251,4.0,7.8,81,0.00,,---,0.20,VWS V14.01,2013-02-22 02:18:00,
2013-02-21 21:19:00,34.3,29.1,28.88,SW,236,4.9,6.7,81,0.00,,---,0.20,VWS V14.01,2013-02-22 02:19:00,
2013-02-21 21:20:00,34.3,29.1,28.88,WSW,240,2.7,4.9,81,0.00,,---,0.20,VWS V14.01,2013-02-22 02:20:00,
2013-02-21 21:21:00,34.3,29.1,28.88,West,263,4.0,4.5,81,0.00,,---,0.20,VWS V14.01,2013-02-22 02:21:00,
2013-02-21 21:22:00,25.5,12.8,29.09,East,97,13.4,13.4,58,0.00,,---,0.00,VWS V14.01,2013-02-22 02:22:00,
2013-02-21 21:23:00,34.3,29.1,28.88,WSW,249,5.4,5.4,81,0.00,,---,0.20,VWS V14.01,2013-02-22 02:23:00,
2013-02-21 21:24:00,34.3,29.1,28.88,SW,226,3.6,6.3,81,0.00,,---,0.20,VWS V14.01,2013-02-22 02:24:00,
2013-02-21 21:25:00,34.3,29.1,28.88,WSW,237,0.0,4.9,81,0.00,,---,0.20,VWS V14.01,2013-02-22 02:25:00,
2013-02-21 21:26:00,34.3,29.1,28.88,WNW,293,3.1,5.4,81,0.00,,---,0.20,VWS V14.01,2013-02-22 02:26:00,
2013-02-21 21:27:00,25.5,12.8,29.09,East,99,13.0,13.0,58,0.00,,---,0.00,VWS V14.01,2013-02-22 02:27:00,
2013-02-21 21:28:00,34.3,28.8,28.88,WSW,246,4.9,5.8,80,0.00,,---,0.20,VWS V14.01,2013-02-22 02:28:00,
2013-02-21 21:29:00,34.3,28.8,28.88,WSW,254,4.0,6.9,80,0.00,,---,0.20,VWS V14.01,2013-02-22 02:29:00,
2013-02-21 21:30:00,34.3,28.8,28.88,WSW,241,6.7,6.9,80,0.00,,---,0.20,VWS V14.01,2013-02-22 02:30:00,
2013-02-21 21:31:00,34.3,28.8,28.88,West,260,3.6,6.7,80,0.00,,---,0.20,VWS V14.01,2013-02-22 02:31:00,
2013-02-21 21:32:00,25.5,12.8,29.09,ESE,118,5.8,8.7,58,0.00,,---,0.00,VWS V14.01,2013-02-22 02:32:00,
2013-02-21 21:33:00,34.3,28.8,28.88,West,271,6.7,6.7,80,0.00,,---,0.20,VWS V14.01,2013-02-22 02:33:00,
2013-02-21 21:34:00,34.3,28.8,28.88,West,261,6.7,6.7,80,0.00,,---,0.20,VWS V14.01,2013-02-22 02:34:00,
2013-02-21 21:35:00,34.3,28.8,28.88,WSW,252,5.8,8.3,80,0.00,,---,0.20,VWS V14.01,2013-02-22 02:35:00,
2013-02-21 21:36:00,34.3,28.5,28.88,West,265,5.4,6.3,79,0.00,,---,0.20,VWS V14.01,2013-02-22 02:36:00,
2013-02-21 21:37:00,25.5,12.8,29.09,East,100,6.3,10.5,58,0.00,,---,0.00,VWS V14.01,2013-02-22 02:37:00,
2013-02-21 21:38:00,34.3,28.5,28.88,SSW,209,6.9,6.9,79,0.00,,---,0.20,VWS V14.01,2013-02-22 02:38:00,
2013-02-21 21:39:00,34.5,28.7,28.88,WSW,250,5.8,6.9,79,0.00,,---,0.20,VWS V14.01,2013-02-22 02:39:00,
2013-02-21 21:40:00,34.5,28.7,28.88,West,263,3.6,5.8,79,0.00,,---,0.20,VWS V14.01,2013-02-22 02:40:00,
2013-02-21 21:41:00,34.5,28.7,28.88,SW,233,2.7,6.3,79,0.00,,---,0.20,VWS V14.01,2013-02-22 02:41:00,
2013-02-21 21:42:00,25.5,12.4,29.09,ESE,108,13.9,13.9,57,0.00,,---,0.00,VWS V14.01,2013-02-22 02:42:00,
2013-02-21 21:43:00,34.5,28.7,28.88,WSW,240,6.7,6.9,79,0.00,,---,0.20,VWS V14.01,2013-02-22 02:43:00,
2013-02-21 21:44:00,34.5,28.7,28.88,South,182,4.9,6.7,79,0.00,,---,0.20,VWS V14.01,2013-02-22 02:44:00,
2013-02-21 21:45:00,34.5,28.7,28.88,WSW,244,3.1,6.3,79,0.00,,---,0.20,VWS V14.01,2013-02-22 02:45:00,
2013-02-21 21:46:00,34.5,28.7,28.88,WSW,244,4.0,4.0,79,0.00,,---,0.20,VWS V14.01,2013-02-22 02:46:00,
2013-02-21 21:47:00,25.5,12.0,29.09,ESE,120,6.3,8.3,56,0.00,,---,0.00,VWS V14.01,2013-02-22 02:47:00,
2013-02-21 21:48:00,34.5,28.7,28.88,SW,225,4.9,6.3,79,0.00,,---,0.20,VWS V14.01,2013-02-22 02:48:00,
2013-02-21 21:49:00,34.5,28.7,28.88,SW,223,3.1,5.8,79,0.00,,---,0.20,VWS V14.01,2013-02-22 02:49:00,
2013-02-21 21:50:00,34.5,28.7,28.88,SW,223,4.0,4.0,79,0.00,,---,0.20,VWS V14.01,2013-02-22 02:50:00,
2013-02-21 21:51:00,34.5,28.7,28.88,West,274,3.6,5.8,79,0.00,,---,0.20,VWS V14.01,2013-02-22 02:51:00,
2013-02-21 21:52:00,25.5,12.0,29.09,SSE,147,5.4,7.8,56,0.00,,---,0.00,VWS V14.01,2013-02-22 02:52:00,
2013-02-21 21:53:00,34.5,28.7,28.88,SW,236,4.0,5.8,79,0.00,,---,0.20,VWS V14.01,2013-02-22 02:53:00,
2013-02-21 21:54:00,34.5,28.7,28.88,West,265,5.4,6.7,79,0.00,,---,0.20,VWS V14.01,2013-02-22 02:54:00,
2013-02-21 21:55:00,34.5,28.7,28.88,SW,215,4.5,5.4,79,0.00,,---,0.20,VWS V14.01,2013-02-22 02:55:00,
2013-02-21 21:56:00,34.5,28.7,28.88,West,275,4.5,5.4,79,0.00,,---,0.20,VWS V14.01,2013-02-22 02:56:00,
2013-02-21 21:57:00,25.5,11.6,29.09,ESE,108,10.1,11.0,55,0.00,,---,0.00,VWS V14.01,2013-02-22 02:57:00,
2013-02-21 21:58:00,34.5,28.7,28.88,SSW,213,4.9,5.8,79,0.00,,---,0.20,VWS V14.01,2013-02-22 02:58:00,
2013-02-21 21:59:00,34.5,28.7,28.88,SW,230,4.0,6.3,79,0.00,,---,0.20,VWS V14.01,2013-02-22 02:59:00,
2013-02-21 22:00:00,34.5,28.7,28.88,SW,230,2.7,4.0,79,0.00,,---,0.20,VWS V14.01,2013-02-22 03:00:00,
2013-02-21 22:01:00,34.5,28.7,28.88,SW,214,2.7,5.4,79,0.00,,---,0.20,VWS V14.01,2013-02-22 03:01:00,
2013-02-21 22:02:00,25.5,11.6,29.09,SE,130,8.7,11.6,55,0.00,,---,0.00,VWS V14.01,2013-02-22 03:02:00,
2013-02-21 22:03:00,34.5,28.7,28.88,SW,231,4.0,4.9,79,0.00,,---,0.20,VWS V14.01,2013-02-22 03:03:00,
2013-02-21 22:04:00,34.5,28.7,28.88,WSW,239,3.6,5.4,79,0.00,,---,0.20,VWS V14.01,2013-02-22 03:04:00,
2013-02-21 22:05:00,34.5,28.7,28.88,WSW,239,2.7,5.8,79,0.00,,---,0.20,VWS V14.01,2013-02-22 03:05:00,
2013-02-21 22:06:00,34.5,28.7,28.88,WSW,239,3.6,5.8,79,0.00,,---,0.20,VWS V14.01,2013-02-22 03:06:00,
2013-02-21 22:07:00,25.5,11.6,29.09,ESE,119,13.9,13.9,55,0.00,,---,0.00,VWS V14.01,2013-02-22 03:07:00,
2013-02-21 22:08:00,34.5,28.7,28.88,WSW,237,3.6,6.3,79,0.00,,---,0.20,VWS V14.01,2013-02-22 03:08:00,
2013-02-21 22:09:00,34.5,28.7,28.88,SW,236,3.1,5.8,79,0.00,,---,0.20,VWS V14.01,2013-02-22 03:09:00,
2013-02-21 22:10:00,34.5,28.7,28.88,SW,229,6.9,6.9,79,0.00,,---,0.20,VWS V14.01,2013-02-22 03:10:00,
2013-02-21 22:11:00,34.5,28.7,28.88,WSW,238,2.7,6.9,79,0.00,,---,0.20,VWS V14.01,2013-02-22 03:11:00,
2013-02-21 22:12:00,25.5,12.0,29.06,ESE,112,10.5,13.9,56,0.00,,---,0.00,VWS V14.01,2013-02-22 03:12:00,
2013-02-21 22:13:00,34.3,28.5,28.88,WSW,238,4.0,4.0,79,0.00,,---,0.20,VWS V14.01,2013-02-22 03:13:00,
2013-02-21 22:14:00,34.3,28.5,28.88,WSW,238,2.7,4.0,79,0.00,,---,0.20,VWS V14.01,2013-02-22 03:14:00,
2013-02-21 22:15:00,34.3,28.5,28.88,WSW,238,3.6,4.9,79,0.00,,---,0.20,VWS V14.01,2013-02-22 03:15:00,
2013-02-21 22:16:00,34.3,28.5,28.88,SW,215,4.5,6.3,79,0.00,,---,0.20,VWS V14.01,2013-02-22 03:16:00,
2013-02-21 22:17:00,34.3,28.5,28.88,SW,215,2.7,4.5,79,0.00,,---,0.20,VWS V14.01,2013-02-22 03:17:00,
2013-02-21 22:18:00,34.3,28.5,28.88,SW,215,0.0,4.5,79,0.00,,---,0.20,VWS V14.01,2013-02-22 03:18:00,
2013-02-21 22:19:00,34.3,28.5,28.88,SW,215,3.1,4.5,79,0.00,,---,0.20,VWS V14.01,2013-02-22 03:19:00,
2013-02-21 22:20:00,34.3,28.5,28.88,SW,217,6.7,6.7,79,0.00,,---,0.20,VWS V14.01,2013-02-22 03:20:00,
2013-02-21 22:21:00,25.3,12.6,29.06,East,100,9.6,11.0,58,0.00,,---,0.00,VWS V14.01,2013-02-22 03:21:00,
2013-02-21 22:22:00,34.3,28.5,28.88,SW,219,2.7,4.5,79,0.00,,---,0.20,VWS V14.01,2013-02-22 03:22:00,
2013-02-21 22:23:00,34.3,28.5,28.88,SW,217,3.1,6.9,79,0.00,,---,0.20,VWS V14.01,2013-02-22 03:23:00,
2013-02-21 22:24:00,34.3,28.5,28.88,SW,235,5.8,5.8,79,0.00,,---,0.20,VWS V14.01,2013-02-22 03:24:00,
2013-02-21 22:25:00,34.3,28.5,28.88,WSW,256,2.7,6.3,79,0.00,,---,0.20,VWS V14.01,2013-02-22 03:25:00,
2013-02-21 22:26:00,34.3,28.5,28.88,WSW,251,0.0,4.5,79,0.00,,---,0.20,VWS V14.01,2013-02-22 03:26:00,
2013-02-21 22:27:00,34.5,29.0,28.88,WSW,243,5.8,7.4,80,0.00,,---,0.20,VWS V14.01,2013-02-22 03:27:00,
2013-02-21 22:28:00,34.5,29.0,28.88,SW,226,5.4,8.7,80,0.00,,---,0.20,VWS V14.01,2013-02-22 03:28:00,
2013-02-21 22:29:00,34.5,29.0,28.88,WSW,258,5.4,5.4,80,0.00,,---,0.20,VWS V14.01,2013-02-22 03:29:00,
2013-02-21 22:30:00,34.5,29.0,28.88,SW,230,5.4,6.3,80,0.00,,---,0.20,VWS V14.01,2013-02-22 03:30:00,
2013-02-21 22:31:00,25.0,14.2,29.06,East,88,10.1,13.9,63,0.00,,---,0.00,VWS V14.01,2013-02-22 03:31:00,
2013-02-21 22:32:00,34.5,29.0,28.88,SW,231,5.4,7.8,80,0.00,,---,0.20,VWS V14.01,2013-02-22 03:32:00,
2013-02-21 22:33:00,34.5,29.0,28.88,WSW,255,5.4,7.4,80,0.00,,---,0.20,VWS V14.01,2013-02-22 03:33:00,
2013-02-21 22:34:00,34.5,29.0,28.88,SW,224,4.9,6.7,80,0.00,,---,0.20,VWS V14.01,2013-02-22 03:34:00,
2013-02-21 22:35:00,34.5,29.0,28.88,West,263,5.8,6.3,80,0.00,,---,0.20,VWS V14.01,2013-02-22 03:35:00,
2013-02-21 22:36:00,34.5,29.0,28.88,WSW,258,3.1,5.8,80,0.00,,---,0.20,VWS V14.01,2013-02-22 03:36:00,
2013-02-21 22:37:00,34.5,29.0,28.88,West,275,0.0,5.8,80,0.00,,---,0.20,VWS V14.01,2013-02-22 03:37:00,
2013-02-21 22:38:00,34.5,29.0,28.88,West,278,5.8,5.8,80,0.00,,---,0.20,VWS V14.01,2013-02-22 03:38:00,
2013-02-21 22:39:00,34.5,29.0,28.88,WSW,254,4.0,7.8,80,0.00,,---,0.20,VWS V14.01,2013-02-22 03:39:00,
2013-02-21 22:41:00,34.5,29.0,28.88,West,266,4.5,6.3,80,0.00,,---,0.20,VWS V14.01,2013-02-22 03:41:00,
2013-02-21 22:42:00,34.5,29.0,28.88,West,276,4.0,4.5,80,0.00,,---,0.20,VWS V14.01,2013-02-22 03:42:00,
2013-02-21 22:43:00,34.5,29.0,28.88,West,277,3.1,4.0,80,0.00,,---,0.20,VWS V14.01,2013-02-22 03:43:00,
2013-02-21 22:44:00,34.5,29.3,28.88,West,273,5.4,5.8,81,0.00,,---,0.20,VWS V14.01,2013-02-22 03:44:00,
2013-02-21 22:46:00,34.3,29.1,28.88,WSW,251,4.5,7.8,81,0.00,,---,0.20,VWS V14.01,2013-02-22 03:46:00,
2013-02-21 22:47:00,34.3,29.1,28.88,West,277,4.5,5.8,81,0.00,,---,0.20,VWS V14.01,2013-02-22 03:47:00,
2013-02-21 22:48:00,34.3,29.4,28.88,WNW,289,4.9,6.7,82,0.00,,---,0.20,VWS V14.01,2013-02-22 03:48:00,
2013-02-21 22:49:00,34.3,29.4,28.88,West,267,6.7,6.7,82,0.00,,---,0.20,VWS V14.01,2013-02-22 03:49:00,
2013-02-21 22:50:00,34.3,29.4,28.88,WNW,291,6.7,8.3,82,0.00,,---,0.20,VWS V14.01,2013-02-22 03:50:00,
2013-02-21 22:51:00,34.3,29.7,28.88,WNW,295,7.8,7.8,83,0.00,,---,0.20,VWS V14.01,2013-02-22 03:51:00,
2013-02-21 22:53:00,34.2,29.8,28.88,NW,315,6.3,8.3,84,0.00,,---,0.20,VWS V14.01,2013-02-22 03:53:00,
2013-02-21 22:55:00,34.0,30.0,28.88,West,278,9.6,10.1,85,0.00,,---,0.20,VWS V14.01,2013-02-22 03:55:00,
2013-02-21 22:56:00,34.0,30.0,28.88,WNW,292,4.0,9.6,85,0.00,,---,0.20,VWS V14.01,2013-02-22 03:56:00,
2013-02-21 22:57:00,34.0,30.0,28.88,West,262,4.5,7.8,85,0.00,,---,0.20,VWS V14.01,2013-02-22 03:57:00,
2013-02-21 22:58:00,34.0,30.0,28.88,WNW,285,5.8,8.7,85,0.00,,---,0.20,VWS V14.01,2013-02-22 03:58:00,
2013-02-21 22:59:00,33.8,29.8,28.88,WNW,295,8.3,9.2,85,0.00,,---,0.20,VWS V14.01,2013-02-22 03:59:00,
2013-02-21 23:00:00,33.8,30.1,28.88,West,272,4.9,8.7,86,0.00,,---,0.20,VWS V14.01,2013-02-22 04:00:00,
2013-02-21 23:01:00,33.8,30.1,28.88,WSW,247,6.9,14.3,86,0.00,,---,0.20,VWS V14.01,2013-02-22 04:01:00,
2013-02-21 23:02:00,33.6,29.6,28.88,WSW,242,8.3,11.0,85,0.00,,---,0.20,VWS V14.01,2013-02-22 04:02:00,
2013-02-21 23:03:00,33.6,29.6,28.88,WNW,295,6.9,14.8,85,0.00,,---,0.20,VWS V14.01,2013-02-22 04:03:00,
2013-02-21 23:04:00,33.6,29.6,28.88,WNW,298,5.8,7.8,85,0.00,,---,0.20,VWS V14.01,2013-02-22 04:04:00,
2013-02-21 23:05:00,33.6,29.6,28.88,WNW,290,4.5,8.7,85,0.00,,---,0.20,VWS V14.01,2013-02-22 04:05:00,
2013-02-21 23:06:00,33.6,29.6,28.88,West,267,7.4,7.8,85,0.00,,---,0.20,VWS V14.01,2013-02-22 04:06:00,
2013-02-21 23:07:00,33.6,29.6,28.88,WNW,299,3.1,7.4,85,0.00,,---,0.20,VWS V14.01,2013-02-22 04:07:00,
2013-02-21 23:08:00,33.6,29.6,28.88,West,271,4.0,7.8,85,0.00,,---,0.20,VWS V14.01,2013-02-22 04:08:00,
2013-02-21 23:09:00,33.6,29.6,28.88,WSW,255,4.9,6.9,85,0.00,,---,0.20,VWS V14.01,2013-02-22 04:09:00,
2013-02-21 23:10:00,33.6,29.6,28.88,West,277,5.8,8.3,85,0.00,,---,0.20,VWS V14.01,2013-02-22 04:10:00,
2013-02-21 23:11:00,33.6,29.6,28.88,WSW,256,7.4,8.7,85,0.00,,---,0.20,VWS V14.01,2013-02-22 04:11:00,
2013-02-21 23:12:00,33.6,29.6,28.88,West,264,5.8,7.4,85,0.00,,---,0.20,VWS V14.01,2013-02-22 04:12:00,
2013-02-21 23:13:00,33.6,29.6,28.88,West,263,4.0,9.2,85,0.00,,---,0.20,VWS V14.01,2013-02-22 04:13:00,
2013-02-21 23:14:00,33.6,29.6,28.88,West,268,3.6,5.8,85,0.00,,---,0.20,VWS V14.01,2013-02-22 04:14:00,
2013-02-21 23:15:00,33.6,29.6,28.88,NW,304,5.4,6.9,85,0.00,,---,0.20,VWS V14.01,2013-02-22 04:15:00,
2013-02-21 23:16:00,33.4,29.4,28.88,WNW,289,6.3,6.7,85,0.00,,---,0.20,VWS V14.01,2013-02-22 04:16:00,
2013-02-21 23:17:00,33.4,29.4,28.88,West,266,5.4,6.7,85,0.00,,---,0.20,VWS V14.01,2013-02-22 04:17:00,
2013-02-21 23:18:00,33.4,29.4,28.88,West,269,9.2,9.2,85,0.00,,---,0.20,VWS V14.01,2013-02-22 04:18:00,
2013-02-21 23:19:00,33.4,29.4,28.88,WSW,254,7.4,9.2,85,0.00,,---,0.20,VWS V14.01,2013-02-22 04:19:00,
2013-02-21 23:20:00,33.4,29.4,28.88,WSW,246,6.3,9.2,85,0.00,,---,0.20,VWS V14.01,2013-02-22 04:20:00,
2013-02-21 23:21:00,33.4,29.4,28.88,SW,221,4.9,11.0,85,0.00,,---,0.20,VWS V14.01,2013-02-22 04:21:00,
2013-02-21 23:22:00,33.4,29.4,28.88,WNW,296,4.5,6.9,85,0.00,,---,0.20,VWS V14.01,2013-02-22 04:22:00,
2013-02-21 23:23:00,33.4,29.4,28.88,WNW,289,6.7,9.2,85,0.00,,---,0.20,VWS V14.01,2013-02-22 04:23:00,
2013-02-21 23:24:00,33.4,29.4,28.88,West,262,6.3,8.7,85,0.00,,---,0.20,VWS V14.01,2013-02-22 04:24:00,
2013-02-21 23:25:00,33.3,29.2,28.88,West,281,6.7,8.3,85,0.00,,---,0.20,VWS V14.01,2013-02-22 04:25:00,
2013-02-21 23:26:00,33.3,29.2,28.88,West,278,4.9,6.7,85,0.00,,---,0.20,VWS V14.01,2013-02-22 04:26:00,
2013-02-21 23:27:00,33.3,29.2,28.88,West,273,8.7,8.7,85,0.00,,---,0.20,VWS V14.01,2013-02-22 04:27:00,
2013-02-21 23:28:00,33.3,29.2,28.88,NW,306,8.3,11.0,85,0.00,,---,0.20,VWS V14.01,2013-02-22 04:28:00,
2013-02-21 23:29:00,33.3,29.2,28.88,NW,324,6.9,11.6,85,0.00,,---,0.20,VWS V14.01,2013-02-22 04:29:00,
2013-02-21 23:30:00,33.3,29.2,28.88,WNW,283,8.7,8.7,85,0.00,,---,0.20,VWS V14.01,2013-02-22 04:30:00,
2013-02-21 23:31:00,33.3,29.5,28.88,West,281,9.2,11.2,86,0.00,,---,0.20,VWS V14.01,2013-02-22 04:31:00,
2013-02-21 23:32:00,33.3,29.5,28.88,WNW,286,7.8,9.2,86,0.00,,---,0.20,VWS V14.01,2013-02-22 04:32:00,
2013-02-21 23:33:00,33.3,29.5,28.88,WSW,258,12.1,12.1,86,0.00,,---,0.20,VWS V14.01,2013-02-22 04:33:00,
2013-02-21 23:34:00,33.3,29.5,28.88,WSW,244,7.8,12.1,86,0.00,,---,0.20,VWS V14.01,2013-02-22 04:34:00,
2013-02-21 23:35:00,33.1,29.4,28.88,WSW,251,4.0,11.6,86,0.00,,---,0.20,VWS V14.01,2013-02-22 04:35:00,
2013-02-21 23:36:00,33.1,29.6,28.88,WNW,286,7.8,11.0,87,0.00,,---,0.20,VWS V14.01,2013-02-22 04:36:00,
2013-02-21 23:37:00,33.1,29.6,28.88,WNW,298,6.7,9.6,87,0.00,,---,0.20,VWS V14.01,2013-02-22 04:37:00,
2013-02-21 23:38:00,33.1,29.6,28.88,WNW,296,7.8,11.0,87,0.00,,---,0.20,VWS V14.01,2013-02-22 04:38:00,
2013-02-21 23:39:00,33.1,29.6,28.88,West,271,6.9,9.2,87,0.00,,---,0.20,VWS V14.01,2013-02-22 04:39:00,
2013-02-21 23:40:00,33.1,29.9,28.88,WNW,284,4.5,6.9,88,0.00,,---,0.20,VWS V14.01,2013-02-22 04:40:00,
2013-02-21 23:41:00,33.1,29.9,28.88,WNW,293,6.9,8.7,88,0.00,,---,0.20,VWS V14.01,2013-02-22 04:41:00,
2013-02-21 23:42:00,33.1,29.9,28.88,West,268,4.5,6.9,88,0.00,,---,0.20,VWS V14.01,2013-02-22 04:42:00,
2013-02-21 23:43:00,33.1,29.9,28.88,WSW,255,9.6,9.6,88,0.00,,---,0.20,VWS V14.01,2013-02-22 04:43:00,
2013-02-21 23:44:00,33.1,29.9,28.88,WSW,256,6.7,9.6,88,0.00,,---,0.20,VWS V14.01,2013-02-22 04:44:00,
2013-02-21 23:45:00,33.1,30.2,28.88,West,263,4.9,6.7,89,0.00,,---,0.20,VWS V14.01,2013-02-22 04:45:00,
2013-02-21 23:46:00,33.1,30.2,28.88,West,267,4.9,6.7,89,0.00,,---,0.20,VWS V14.01,2013-02-22 04:46:00,
2013-02-21 23:47:00,33.1,30.2,28.88,WSW,249,6.9,7.4,89,0.00,,---,0.20,VWS V14.01,2013-02-22 04:47:00,
2013-02-21 23:48:00,33.1,30.2,28.88,WSW,246,7.4,8.3,89,0.00,,---,0.20,VWS V14.01,2013-02-22 04:48:00,
2013-02-21 23:49:00,33.1,30.2,28.88,West,261,3.1,7.4,89,0.00,,---,0.20,VWS V14.01,2013-02-22 04:49:00,
2013-02-21 23:50:00,33.1,30.5,28.88,West,267,4.0,4.9,90,0.00,,---,0.20,VWS V14.01,2013-02-22 04:50:00,
2013-02-21 23:51:00,32.9,30.3,28.88,WNW,300,6.3,6.9,90,0.00,,---,0.20,VWS V14.01,2013-02-22 04:51:00,
2013-02-21 23:52:00,33.1,30.5,28.88,WSW,246,6.3,8.3,90,0.00,,---,0.20,VWS V14.01,2013-02-22 04:52:00,
2013-02-21 23:53:00,32.9,30.3,28.88,WNW,292,5.8,8.3,90,0.00,,---,0.20,VWS V14.01,2013-02-22 04:53:00,
2013-02-21 23:54:00,32.9,30.6,28.88,WSW,257,10.1,11.2,91,0.00,,---,0.20,VWS V14.01,2013-02-22 04:54:00,
2013-02-21 23:55:00,33.1,30.7,28.88,West,260,6.3,10.1,91,0.00,,---,0.20,VWS V14.01,2013-02-22 04:55:00,
2013-02-21 23:56:00,32.9,30.6,28.88,West,269,5.8,8.7,91,0.00,,---,0.20,VWS V14.01,2013-02-22 04:56:00,
2013-02-21 23:57:00,32.9,30.6,28.88,WSW,252,4.5,7.8,91,0.00,,---,0.20,VWS V14.01,2013-02-22 04:57:00,
2013-02-21 23:58:00,32.9,30.8,28.88,WSW,257,5.4,5.8,92,0.00,,---,0.20,VWS V14.01,2013-02-22 04:58:00,
2013-02-21 23:59:00,32.9,30.8,28.88,WNW,289,7.4,7.4,92,0.00,,---,0.20,VWS V14.01,2013-02-22 04:59:00,